[[{"header":{"parameterUnit":"m.s-1","parameterCategory":1,"la1":30.6,"la2":29.2853,"lo1":-89.7004,"lo2":-87.6739,"dy":0.0162,"dx":0.0183,"nx":112,"ny":82,"refTime":"2023-09-26T12:00:00:Z","depth":0,"parameterNumber":2,"parameterNumberName":"U-component_of_WINDS"},"data":[0.0,0.0,0.0,0.0,0.0,0.0,0.0,0.0,0.0,0.0,0.0,0.0,0.0,0.0,0.0,0.0,0.0,0.0,0.0,0.0,0.0,0.0,0.0,0.0,0.0,0.0,0.0,0.0,0.0,0.0,0.0,0.0,0.0,0.0,0.0,0.0,0.0,0.0,0.0,0.0,0.0,0.0,0.0,0.0,0.0,0.0,0.0,0.0,0.0,0.0,0.0,0.0,0.0,0.0,0.0,0.0,0.0,0.0,0.0,0.0,0.0,0.0,0.0,0.0,0.0,0.0,0.0,0.0,0.0,0.0,0.0,0.0,0.0,0.0,0.0,0.0,0.0,0.0,0.0,0.0,0.0,0.0,0.0,0.0,0.0,0.0,0.0,0.0,0.0,0.0,2.657,2.8217,3.0396,3.0673,2.8091,2.7861,2.6208,2.2383,0.0,0.0,0.0,0.0,0.0,0.0,0.0,0.0,0.0,0.0,0.0,0.0,0.0,0.0,0.0,0.0,0.0,0.0,0.0,0.0,0.0,0.0,0.0,0.0,0.0,0.0,0.0,0.0,0.0,0.0,0.0,0.0,0.0,0.0,0.0,0.0,0.0,0.0,0.0,0.0,0.0,0.0,0.0,0.0,0.0,0.0,0.0,0.0,0.0,0.0,0.0,0.0,0.0,0.0,0.0,0.0,0.0,0.0,0.0,0.0,0.0,0.0,0.0,0.0,0.0,0.0,0.0,0.0,0.0,0.0,0.0,0.0,0.0,0.0,0.0,0.0,0.0,0.0,0.0,0.0,0.0,0.0,0.0,0.0,0.0,0.0,0.0,0.0,0.0,0.0,0.0,0.0,0.0,0.0,0.0,0.0,0.0,0.0,0.0,0.0,0.0,0.0,0.0,0.0,2.6426,2.8648,3.033,3.042,2.8334,2.6727,2.4826,2.2483,0.0,0.0,0.0,0.0,0.0,0.0,0.0,0.0,0.0,0.0,0.0,0.0,0.0,0.0,0.0,0.0,0.0,0.0,0.0,0.0,0.0,0.0,0.0,0.0,0.0,0.0,0.0,0.0,0.0,0.0,0.0,0.0,0.0,0.0,0.0,0.0,0.0,0.0,0.0,0.0,0.0,0.0,0.0,0.0,0.0,0.0,0.0,0.0,0.0,0.0,0.0,0.0,0.0,0.0,0.0,0.0,0.0,0.0,0.0,0.0,0.0,0.0,0.0,0.0,0.0,0.0,0.0,0.0,0.0,0.0,0.0,0.0,0.0,0.0,0.0,0.0,0.0,0.0,0.0,0.0,0.0,0.0,0.0,0.0,0.0,0.0,0.0,0.0,0.0,0.0,0.0,0.0,0.0,0.0,0.0,0.0,0.0,0.0,0.0,0.0,0.0,0.0,0.0,2.5877,2.6655,2.8182,2.933,2.9328,2.7755,2.588,2.4122,2.2496,2.1714,0.0,0.0,0.0,0.0,0.0,0.0,0.0,0.0,0.0,0.0,0.0,0.0,0.0,0.0,0.0,0.0,0.0,0.0,0.0,0.0,0.0,0.0,0.0,0.0,0.0,0.0,0.0,0.0,0.0,0.0,0.0,0.0,0.0,0.0,0.0,0.0,0.0,0.0,0.0,0.0,0.0,0.0,0.0,0.0,0.0,0.0,0.0,0.0,0.0,0.0,0.0,0.0,0.0,0.0,0.0,0.0,0.0,0.0,0.0,0.0,0.0,0.0,0.0,0.0,0.0,0.0,0.0,0.0,0.0,0.0,0.0,0.0,0.0,0.0,0.0,0.0,0.0,0.0,0.0,0.0,0.0,0.0,0.0,0.0,0.0,0.0,0.0,0.0,0.0,0.0,0.0,0.0,0.0,0.0,0.0,0.0,0.0,0.0,0.0,0.0,0.0,0.0,2.6553,2.6966,2.8198,2.8612,2.8373,2.7268,2.5158,2.3428,2.2293,2.05,0.0,0.0,0.0,0.0,0.0,0.0,0.0,0.0,0.0,0.0,0.0,0.0,0.0,0.0,0.0,0.0,0.0,0.0,0.0,0.0,0.0,0.0,0.0,0.0,0.0,0.0,0.0,0.0,0.0,0.0,0.0,0.0,0.0,0.0,0.0,0.0,0.0,0.0,0.0,0.0,0.0,0.0,0.0,0.0,0.0,0.0,0.0,0.0,0.0,0.0,0.0,0.0,0.0,0.0,0.0,0.0,0.0,0.0,0.0,0.0,0.0,0.0,0.0,0.0,0.0,0.0,0.0,0.0,0.0,0.0,0.0,0.0,0.0,0.0,0.0,0.0,0.0,0.0,0.0,0.0,0.0,0.0,0.0,0.0,0.0,0.0,0.0,0.0,0.0,0.0,0.0,0.0,0.0,0.0,0.0,0.0,0.0,0.0,0.0,0.0,0.0,0.0,2.6324,2.7117,2.9671,2.8937,2.8007,2.7445,2.4544,2.2452,2.1798,1.9891,0.0,0.0,0.0,0.0,0.0,0.0,0.0,0.0,0.0,0.0,0.0,0.0,0.0,0.0,0.0,0.0,0.0,0.0,0.0,0.0,0.0,0.0,0.0,0.0,0.0,0.0,0.0,0.0,0.0,0.0,0.0,0.0,0.0,0.0,0.0,0.0,0.0,0.0,0.0,0.0,0.0,0.0,0.0,0.0,0.0,0.0,0.0,0.0,0.0,0.0,0.0,0.0,0.0,0.0,0.0,0.0,0.0,0.0,0.0,0.0,0.0,0.0,0.0,0.0,0.0,0.0,0.0,0.0,0.0,0.0,0.0,0.0,0.0,0.0,0.0,0.0,0.0,0.0,0.0,0.0,0.0,0.0,0.0,0.0,0.0,0.0,0.0,0.0,0.0,0.0,0.0,0.0,0.0,0.0,0.0,0.0,0.0,0.0,0.0,0.0,0.0,0.0,2.561,2.6069,2.7792,2.7297,2.6438,2.5474,2.3601,2.207,2.115,0.0,0.0,0.0,0.0,0.0,0.0,0.0,0.0,0.0,0.0,0.0,0.0,0.0,0.0,0.0,0.0,0.0,0.0,0.0,0.0,0.0,0.0,0.0,0.0,0.0,0.0,0.0,0.0,0.0,0.0,0.0,0.0,0.0,0.0,0.0,0.0,0.0,0.0,0.0,0.0,0.0,0.0,0.0,0.0,0.0,0.0,0.0,0.0,0.0,0.0,0.0,0.0,0.0,0.0,0.0,0.0,0.0,0.0,0.0,0.0,0.0,0.0,0.0,0.0,0.0,0.0,0.0,0.0,0.0,0.0,0.0,0.0,0.0,0.0,0.0,0.0,0.0,0.0,0.0,0.0,0.0,0.0,0.0,0.0,0.0,0.0,0.0,0.0,0.0,0.0,0.0,0.0,0.0,0.0,0.0,0.0,0.0,0.0,0.0,0.0,0.0,0.0,2.5182,2.5062,2.5398,2.6894,2.6289,2.5419,2.4622,2.2692,2.1316,2.0722,0.0,0.0,0.0,0.0,0.0,0.0,0.0,0.0,0.0,0.0,0.0,0.0,0.0,0.0,0.0,0.0,0.0,0.0,0.0,0.0,0.0,0.0,0.0,0.0,0.0,0.0,0.0,0.0,0.0,0.0,0.0,0.0,0.0,0.0,0.0,0.0,0.0,0.0,0.0,0.0,0.0,0.0,0.0,0.0,0.0,0.0,0.0,0.0,0.0,0.0,0.0,0.0,0.0,0.0,0.0,0.0,0.0,0.0,0.0,0.0,0.0,0.0,0.0,0.0,0.0,0.0,0.0,0.0,0.0,0.0,0.0,0.0,0.0,0.0,0.0,0.0,0.0,0.0,0.0,0.0,0.0,0.0,0.0,0.0,0.0,0.0,0.0,0.0,0.0,0.0,0.0,0.0,0.0,0.0,0.0,0.0,0.0,0.0,0.0,0.0,0.0,0.0,2.4826,2.4701,2.5338,2.7536,2.6208,2.5205,2.5243,2.1837,1.9974,0.0,0.0,0.0,0.0,0.0,0.0,0.0,0.0,0.0,0.0,0.0,0.0,0.0,0.0,0.0,0.0,0.0,0.0,0.0,0.0,0.0,0.0,0.0,0.0,0.0,0.0,0.0,0.0,0.0,0.0,0.0,0.0,0.0,0.0,0.0,0.0,0.0,0.0,0.0,0.0,0.0,0.0,0.0,0.0,0.0,0.0,0.0,0.0,0.0,0.0,0.0,0.0,0.0,0.0,0.0,0.0,0.0,0.0,0.0,0.0,0.0,0.0,0.0,0.0,0.0,0.0,0.0,0.0,0.0,0.0,0.0,0.0,0.0,0.0,0.0,0.0,0.0,0.0,0.0,0.0,0.0,0.0,0.0,0.0,0.0,0.0,0.0,0.0,0.0,0.0,0.0,0.0,0.0,0.0,0.0,0.0,0.0,0.0,0.0,0.0,0.0,0.0,0.0,2.4826,2.4701,2.5039,2.6376,2.5326,2.4164,2.3337,2.1078,1.9765,1.9974,0.0,0.0,0.0,0.0,0.0,0.0,0.0,0.0,0.0,0.0,0.0,0.0,0.0,0.0,0.0,0.0,0.0,0.0,0.0,0.0,0.0,0.0,0.0,0.0,0.0,0.0,0.0,0.0,0.0,0.0,0.0,0.0,0.0,0.0,0.0,0.0,0.0,0.0,0.0,0.0,0.0,0.0,0.0,0.0,0.0,0.0,0.0,0.0,0.0,0.0,0.0,0.0,0.0,0.0,0.0,0.0,0.0,0.0,0.0,0.0,0.0,0.0,0.0,0.0,0.0,0.0,0.0,0.0,0.0,0.0,0.0,0.0,0.0,0.0,0.0,0.0,0.0,0.0,0.0,0.0,0.0,0.0,0.0,0.0,0.0,0.0,0.0,0.0,0.0,0.0,0.0,0.0,0.0,0.0,0.0,0.0,0.0,0.0,0.0,0.0,0.0,0.0,2.4643,2.4611,2.4789,2.5522,2.4765,2.3617,2.216,2.0603,1.969,1.969,0.0,0.0,0.0,0.0,0.0,0.0,0.0,0.0,0.0,0.0,0.0,0.0,0.0,0.0,0.0,0.0,0.0,0.0,0.0,0.0,0.0,0.0,0.0,0.0,0.0,0.0,0.0,0.0,0.0,0.0,0.0,0.0,0.0,0.0,0.0,0.0,0.0,0.0,0.0,0.0,0.0,0.0,0.0,0.0,0.0,0.0,0.0,0.0,0.0,0.0,0.0,0.0,0.0,0.0,0.0,0.0,0.0,0.0,0.0,0.0,0.0,0.0,0.0,0.0,0.0,0.0,0.0,0.0,0.0,0.0,0.0,0.0,0.0,0.0,0.0,0.0,0.0,0.0,0.0,0.0,0.0,0.0,0.0,0.0,0.0,0.0,0.0,0.0,0.0,0.0,0.0,0.0,0.0,0.0,0.0,0.0,0.0,0.0,0.0,0.0,0.0,0.0,2.4452,2.4495,2.459,2.4975,2.4466,2.3417,2.1688,2.0385,1.969,1.969,0.0,0.0,0.0,0.0,0.0,0.0,0.0,0.0,0.0,0.0,0.0,0.0,0.0,0.0,0.0,0.0,0.0,0.0,0.0,0.0,0.0,0.0,0.0,0.0,0.0,0.0,0.0,0.0,0.0,0.0,0.0,0.0,0.0,0.0,0.0,0.0,0.0,0.0,0.0,0.0,0.0,0.0,0.0,0.0,0.0,0.0,0.0,0.0,0.0,0.0,0.0,0.0,0.0,0.0,0.0,0.0,0.0,0.0,0.0,0.0,2.2479,2.2321,0.0,0.0,0.0,0.0,0.0,0.0,0.0,0.0,0.0,0.0,0.0,0.0,0.0,0.0,0.0,0.0,0.0,0.0,0.0,0.0,0.0,0.0,0.0,0.0,0.0,0.0,0.0,0.0,0.0,0.0,0.0,0.0,0.0,0.0,0.0,0.0,0.0,0.0,0.0,0.0,2.5232,2.4478,2.4196,2.5056,2.4198,2.3057,2.1765,2.0452,1.969,1.969,1.9076,0.0,0.0,0.0,0.0,0.0,0.0,0.0,0.0,0.0,0.0,0.0,0.0,0.0,0.0,0.0,0.0,0.0,0.0,0.0,0.0,0.0,0.0,0.0,0.0,0.0,0.0,0.0,0.0,0.0,0.0,0.0,0.0,0.0,0.0,0.0,0.0,0.0,0.0,0.0,0.0,0.0,0.0,0.0,0.0,0.0,0.0,0.0,0.0,0.0,0.0,0.0,0.0,0.0,0.0,0.0,0.0,0.0,0.0,0.0,2.4521,2.3488,0.0,0.0,0.0,0.0,0.0,0.0,0.0,0.0,0.0,0.0,0.0,0.0,0.0,0.0,0.0,0.0,0.0,0.0,0.0,0.0,0.0,0.0,0.0,0.0,0.0,0.0,0.0,0.0,0.0,0.0,0.0,0.0,0.0,0.0,0.0,0.0,0.0,0.0,0.0,0.0,2.5488,2.4813,2.4223,2.4237,2.3431,2.2347,2.0835,2.0094,1.969,1.969,1.9361,0.0,0.0,0.0,0.0,0.0,0.0,0.0,0.0,0.0,0.0,0.0,0.0,0.0,0.0,0.0,0.0,0.0,0.0,0.0,0.0,0.0,0.0,0.0,0.0,0.0,0.0,0.0,0.0,0.0,0.0,0.0,0.0,0.0,0.0,0.0,0.0,0.0,0.0,0.0,0.0,0.0,0.0,0.0,0.0,0.0,0.0,0.0,0.0,0.0,0.0,0.0,0.0,0.0,2.8437,2.9157,2.9575,2.9696,2.9763,2.9677,2.7914,2.6027,2.4194,2.4534,0.0,0.0,0.0,0.0,0.0,0.0,0.0,0.0,0.0,0.0,0.0,0.0,0.0,0.0,0.0,0.0,0.0,0.0,0.0,0.0,0.0,0.0,2.7836,2.8081,2.7913,2.7196,2.531,0.0,0.0,0.0,0.0,0.0,0.0,0.0,0.0,0.0,0.0,0.0,2.5378,2.5011,2.4346,2.3487,2.2926,2.1972,2.0377,2.0109,1.9989,1.9869,1.975,1.969,0.0,0.0,0.0,0.0,0.0,0.0,0.0,0.0,0.0,0.0,0.0,0.0,0.0,0.0,0.0,0.0,0.0,0.0,0.0,0.0,0.0,0.0,0.0,0.0,0.0,0.0,0.0,0.0,0.0,0.0,0.0,0.0,2.1428,2.2079,0.0,0.0,0.0,0.0,0.0,0.0,0.0,0.0,0.0,0.0,0.0,0.0,0.0,2.6908,2.825,3.036,3.0829,2.9677,3.2363,3.3019,3.1913,3.2541,3.281,3.2855,3.3195,0.0,2.7127,2.5952,0.0,0.0,0.0,0.0,0.0,0.0,0.0,0.0,0.0,0.0,0.0,0.0,0.0,0.0,0.0,0.0,0.0,0.0,0.0,0.0,0.0,0.0,2.9276,2.7429,2.7143,2.7151,2.6615,2.7061,2.718,2.5847,2.5761,2.5828,0.0,0.0,0.0,0.0,0.0,0.0,2.4943,2.4506,2.4185,2.4224,2.3773,2.3125,2.2379,2.1754,2.1186,2.0617,2.0019,1.969,1.969,2.0348,0.0,0.0,0.0,0.0,0.0,0.0,0.0,0.0,0.0,0.0,0.0,0.0,0.0,0.0,0.0,0.0,0.0,0.0,0.0,0.0,0.0,0.0,0.0,0.0,0.0,0.0,0.0,0.0,0.0,2.1371,2.1721,2.101,2.165,2.2073,0.0,0.0,0.0,0.0,0.0,0.0,0.0,0.0,0.0,2.8099,2.9265,3.0176,3.0834,3.2639,3.3419,3.3235,3.4941,3.566,3.5473,3.5761,3.5915,3.5932,3.6249,3.5061,3.2672,3.0319,2.8883,2.8056,0.0,0.0,0.0,0.0,2.9661,2.9903,3.2041,3.2291,3.181,3.2645,0.0,0.0,0.0,0.0,0.0,0.0,0.0,3.0041,2.9607,3.0411,3.11,3.0118,3.0302,3.0543,3.0012,3.0101,2.9634,2.73,2.7199,2.7368,2.6928,2.6167,0.0,0.0,0.0,2.5537,2.509,2.4932,2.4561,2.3918,2.3375,2.2817,2.2173,2.1515,2.1021,2.0737,2.0064,1.969,1.969,2.0707,2.1261,0.0,0.0,0.0,0.0,0.0,0.0,0.0,0.0,0.0,0.0,0.0,0.0,0.0,0.0,0.0,0.0,0.0,0.0,0.0,0.0,0.0,0.0,0.0,0.0,0.0,0.0,0.0,0.0,2.181,2.1967,2.0352,2.1547,2.2264,0.0,0.0,0.0,0.0,0.0,0.0,2.6929,2.8438,2.978,3.0898,3.1991,3.2844,3.3436,3.4523,3.5429,3.6178,3.6775,3.7551,3.8465,3.8265,3.8289,3.8455,3.8455,3.8054,3.7137,3.4115,3.2219,3.1206,3.0796,3.1099,3.1888,3.2719,3.2946,3.3127,3.5074,3.5572,3.5231,3.4746,3.3922,3.2761,3.06,0.0,0.0,0.0,0.0,3.1631,3.1726,3.2302,3.2841,3.2656,3.3043,3.3295,3.274,3.2596,3.1749,2.8941,2.8721,2.8789,2.8213,2.7046,0.0,2.6231,2.6299,2.6124,2.5314,2.5326,2.4972,2.383,2.3232,2.2712,2.2218,2.159,2.1216,2.1216,2.0423,2.0019,2.0183,2.1006,2.1605,2.1934,0.0,0.0,0.0,0.0,0.0,0.0,0.0,0.0,0.0,0.0,0.0,0.0,0.0,0.0,0.0,0.0,0.0,0.0,0.0,0.0,0.0,0.0,0.0,0.0,0.0,0.0,0.0,0.0,0.0,2.1086,2.2629,0.0,0.0,0.0,0.0,2.4774,2.6052,2.7085,2.7771,2.9177,3.0961,3.3149,3.3233,3.4281,3.6439,3.6572,3.6954,3.7703,3.7753,3.8556,3.9968,3.9194,3.9278,4.0003,4.0003,3.9581,3.864,3.5635,3.4349,3.4153,3.2753,3.2642,3.3278,3.3356,3.3822,3.4423,3.4523,3.4559,3.4888,3.7007,3.6644,3.5284,3.4464,3.3253,0.0,0.0,3.3177,3.4159,3.3474,3.3862,3.4294,3.3634,3.3456,3.3456,3.3423,3.3406,3.2679,3.0429,2.9448,2.9011,2.896,0.0,2.7494,2.6928,2.7498,2.7324,2.5544,2.5342,2.5185,2.4612,2.3939,2.3535,2.3505,2.2936,2.2619,2.2619,2.1365,2.0946,2.156,2.1051,2.135,2.2607,2.2724,0.0,0.0,0.0,0.0,0.0,0.0,0.0,0.0,0.0,0.0,0.0,0.0,0.0,0.0,0.0,0.0,0.0,0.0,0.0,0.0,0.0,0.0,0.0,0.0,0.0,0.0,0.0,0.0,2.335,2.4696,0.0,2.481,2.552,2.6423,2.7482,2.8796,3.0155,3.1328,3.2772,3.4201,3.5449,3.5971,3.6598,3.7377,3.7392,3.7547,3.7824,3.8262,3.8797,3.9333,3.904,3.9362,4.0054,3.9564,3.9463,3.9665,3.9039,3.7949,3.6621,3.6125,3.6071,3.6337,3.6838,3.7168,3.7475,3.7946,3.8085,3.8021,3.7407,3.6141,3.4759,3.4015,3.3761,3.3795,3.4286,3.5182,3.5903,3.5588,3.5761,3.5876,3.5613,3.5547,3.558,3.5613,3.5605,3.5199,3.3897,3.1901,3.0412,3.0412,2.8628,2.7234,2.717,2.7025,2.6592,2.5621,2.5879,2.5938,2.53,2.4657,2.4253,2.4253,2.3281,2.2724,2.2724,2.144,2.1006,2.1665,2.147,2.1769,2.2667,2.3071,2.3385,0.0,0.0,0.0,0.0,0.0,0.0,0.0,0.0,0.0,0.0,0.0,0.0,0.0,0.0,0.0,0.0,0.0,0.0,0.0,0.0,0.0,0.0,0.0,0.0,0.0,2.4871,2.5818,2.5348,2.6841,2.7663,2.7141,2.7819,2.8728,2.9798,3.1105,3.2408,3.3668,3.4873,3.5869,3.6648,3.7126,3.7388,3.7403,3.7418,3.751,3.7778,3.7759,3.8327,3.9321,3.8768,3.8985,3.9682,3.9408,3.9597,4.0165,4.0888,4.0491,3.936,3.9362,3.9244,3.9106,3.9834,3.9985,3.9799,4.0273,4.029,3.9834,3.8379,3.7043,3.5926,3.5436,3.5622,3.6113,3.662,3.7313,3.7778,3.7233,3.6905,3.6734,3.6713,3.6544,3.6533,3.704,3.7161,3.6878,3.5836,3.3852,3.2266,3.2026,3.0203,2.8721,2.8674,2.8124,2.7622,2.728,2.7066,2.6752,2.6318,2.5285,2.4582,2.4582,2.3834,2.3236,2.2996,2.2173,2.1889,2.2323,2.2143,2.2323,2.2981,2.3625,2.4059,2.4268,0.0,0.0,0.0,0.0,0.0,0.0,0.0,0.0,0.0,0.0,0.0,0.0,0.0,0.0,0.0,0.0,0.0,0.0,0.0,0.0,0.0,0.0,0.0,2.4024,2.6448,2.7893,2.689,2.9041,3.0093,2.8851,2.9919,3.0864,3.1568,3.2818,3.3841,3.4469,3.5165,3.5829,3.6511,3.6591,3.6561,3.6565,3.6576,3.6979,3.7682,3.6284,3.7175,4.0003,3.8522,3.8267,3.9011,3.9792,4.011,4.0249,4.098,4.1687,4.2337,4.226,4.1842,4.1288,4.1965,4.1779,4.117,4.117,4.0696,4.007,4.007,3.9597,3.9022,3.9022,3.9022,3.9022,3.9022,3.9529,3.9733,3.8242,3.7319,3.6812,3.6774,3.6243,3.6136,3.7616,3.7891,3.7494,3.6026,3.5081,3.4337,3.3584,3.2837,3.2125,3.1467,3.084,0.0,3.0443,2.8786,2.7655,2.7685,2.5884,2.4672,2.4672,2.4642,2.4373,2.367,2.3595,2.358,2.3595,2.2996,2.2981,2.3625,2.4313,2.4971,2.5615,0.0,0.0,0.0,0.0,0.0,0.0,0.0,0.0,0.0,0.0,0.0,0.0,0.0,0.0,0.0,0.0,0.0,0.0,0.0,0.0,0.0,2.573,2.7025,2.7025,2.855,2.9962,3.0788,3.1943,3.2542,3.2184,3.2913,3.3472,3.3651,3.4454,3.5041,3.521,3.5379,3.5564,3.5814,3.5814,3.5815,3.5812,3.6261,3.6356,3.6125,3.7329,3.8367,3.9224,3.878,3.9594,4.131,4.0485,4.0689,4.1765,4.2496,4.2901,4.3,4.1895,4.1388,4.1169,4.0832,4.0561,4.0392,4.0392,4.0257,4.007,4.007,3.9935,3.9783,3.9783,3.9783,3.9783,3.9783,3.9918,3.9851,3.8854,3.8066,3.7641,3.815,3.7718,3.7494,3.8472,3.8238,3.7566,3.6602,3.5836,3.4781,3.3079,3.1785,3.0942,3.0773,3.0212,2.984,2.9873,2.8951,2.8502,2.8981,2.7679,2.6767,2.6767,2.5884,2.5061,2.4388,2.346,2.3131,2.358,2.2996,2.3206,2.4313,2.5001,2.5435,0.0,0.0,0.0,0.0,0.0,0.0,0.0,0.0,0.0,0.0,0.0,0.0,0.0,0.0,0.0,0.0,0.0,0.0,0.0,0.0,0.0,0.0,2.7527,2.9158,3.0281,3.1061,3.1992,3.3231,3.3933,3.4442,3.4726,3.4838,3.5142,3.5644,3.5549,3.5644,3.5874,3.5954,3.5954,3.5954,3.6481,3.6662,3.6317,3.7359,3.773,3.7391,3.867,3.9487,3.9774,3.9863,4.0389,4.1308,4.1065,4.1519,4.2392,4.3103,4.3592,4.383,0.0,0.0,0.0,0.0,4.0815,4.0544,4.0544,4.0341,4.007,4.007,4.007,4.007,4.007,4.007,4.002,3.9662,3.961,3.9315,3.823,3.76,3.7499,3.8246,3.8092,3.8036,3.88,3.8579,3.7855,3.6512,3.5904,0.0,3.3248,3.2493,3.2175,3.215,3.1419,3.0911,3.118,3.0163,2.9445,2.9564,2.8382,2.7505,2.7186,2.6452,0.0,0.0,0.0,2.4358,2.4433,2.4088,0.0,0.0,0.0,2.6153,2.6437,2.6437,0.0,0.0,2.5938,2.5644,0.0,0.0,0.0,0.0,0.0,0.0,0.0,0.0,0.0,0.0,0.0,0.0,0.0,0.0,0.0,0.0,2.9486,3.1001,3.3484,3.3888,3.4128,3.4637,3.5235,3.5839,3.6572,3.6009,3.612,3.7308,3.6285,3.5863,3.6607,3.6622,0.0,0.0,0.0,3.8111,3.742,3.9025,3.9859,3.9783,4.0053,4.0572,4.1121,4.1288,4.1006,4.0493,4.1841,4.2501,4.2601,4.3256,4.3985,4.4553,4.4439,4.3826,4.3081,4.232,4.1644,4.1085,4.1085,0.0,0.0,4.007,4.007,4.007,4.007,4.002,3.9833,3.9086,3.8854,3.8453,3.7068,3.6676,3.6783,3.7632,3.7748,3.7863,3.8635,3.8674,3.8091,3.6107,3.5656,3.5186,3.3937,3.4075,3.439,3.4388,3.3365,3.2811,3.332,3.1764,3.0417,2.9864,2.8592,0.0,2.6976,2.6782,2.6422,2.5764,2.6198,2.6213,2.563,2.5674,2.5989,2.6572,2.6662,2.6991,2.7625,2.7625,2.7604,2.7533,2.561,2.5049,0.0,0.0,0.0,0.0,0.0,0.0,0.0,0.0,0.0,0.0,0.0,0.0,0.0,0.0,0.0,3.1227,3.2721,3.4083,3.5684,3.6342,3.6507,3.6148,3.6207,3.6543,3.718,3.6679,3.6611,3.7353,3.6689,3.6596,3.7212,3.7262,3.7261,3.7249,3.7497,3.7541,3.7382,3.8983,3.9452,3.8953,4.0876,0.0,4.2033,4.206,4.2655,4.3673,4.3334,4.3586,4.4136,4.4311,4.4468,4.4507,4.3223,4.2308,4.1542,4.0781,4.0426,4.029,4.029,4.0206,4.007,4.007,4.007,4.007,4.007,3.9662,0.0,3.8962,3.8469,3.7921,3.7632,3.71,3.6783,3.7632,3.7322,3.7024,3.7863,3.7483,3.6917,3.649,3.5919,3.5443,3.513,3.4328,3.3698,3.3664,3.3469,3.3155,3.2766,3.1898,3.1228,3.1165,2.9983,2.9146,2.9011,2.8008,2.7096,2.6437,2.6019,2.5749,2.5615,2.6123,2.6452,2.6587,2.7111,2.744,2.7625,2.7625,2.7506,2.731,2.6467,2.6193,0.0,0.0,0.0,0.0,0.0,0.0,0.0,0.0,0.0,0.0,0.0,2.6767,2.787,0.0,3.0938,3.3111,3.4621,3.5864,3.6791,3.7188,3.7149,3.6588,3.6753,3.7233,3.7865,3.7345,3.7349,3.8342,3.7481,3.721,3.7871,3.794,3.7903,3.7884,3.8235,3.8411,3.8411,3.9616,4.0032,3.9722,4.213,4.2889,4.2205,4.3473,4.4191,4.4485,4.4136,4.4451,4.5145,4.4744,4.4587,4.4451,4.3305,4.2644,4.2269,4.1897,4.1508,4.1187,4.1187,4.1187,4.1187,4.1187,4.0891,4.0538,4.0538,3.9748,3.878,3.8344,3.7753,3.71,3.6768,3.6368,3.6228,3.704,3.6904,3.6722,3.7084,3.6904,3.6492,3.6117,3.5718,3.5504,3.5504,3.4951,3.4502,3.4502,3.4203,3.3858,3.3544,3.2632,3.1898,3.1511,3.0642,2.9924,2.9609,2.8966,2.8442,2.8113,2.747,2.7111,2.7111,2.7096,2.7245,2.759,2.7919,2.8248,2.8577,2.8577,2.834,2.7767,2.7131,2.6637,0.0,0.0,0.0,0.0,0.0,0.0,0.0,2.5063,2.6069,2.7088,2.8061,2.9248,3.0716,3.2025,3.3388,3.4994,3.6194,3.7014,3.75,3.7729,3.7546,3.694,3.7308,3.7858,3.856,3.8016,3.8101,3.9318,3.8272,3.7899,3.8572,3.8587,3.8587,3.8587,3.9247,3.9499,3.9424,4.0512,4.0977,4.0902,4.3412,4.391,4.2734,4.4913,4.5552,4.4891,4.4976,4.536,4.5886,4.5106,4.4812,4.4722,4.3944,4.3639,4.3606,4.3318,4.2811,4.2286,4.2286,4.2162,4.2055,4.2055,4.1455,4.0794,4.0794,3.986,3.8647,3.795,3.7218,3.6411,3.5864,3.5609,3.5668,3.6212,3.6384,3.6384,3.6384,3.6384,3.6228,3.5619,3.5504,3.5504,3.5504,3.5504,3.5504,3.5504,3.504,3.4622,3.4502,3.3559,3.2647,3.1988,3.13,3.0597,2.9819,2.9654,2.9579,2.9579,2.9086,2.8786,2.8786,2.8263,2.8218,2.8786,2.8613,2.8812,2.9347,2.9153,2.8737,2.7963,2.7359,2.6688,2.148,2.2113,2.3176,2.4866,2.4942,2.5452,0.0,2.9357,2.9403,3.0508,3.1374,3.2403,3.3614,3.4554,3.5734,3.7673,3.8054,3.8196,3.8302,3.8788,3.8938,3.8273,3.8213,3.8536,3.9242,3.8713,3.8624,3.9343,3.8731,3.8587,3.9262,3.9277,3.9277,3.9277,3.9956,3.9986,3.9424,4.1426,4.2179,4.1602,4.4087,4.5192,4.503,4.6196,4.6599,4.6532,4.6532,4.6573,4.6605,4.5864,4.5586,4.55,4.4739,4.4451,4.4282,4.2912,4.2371,4.2286,4.2286,4.1804,4.1156,4.1156,4.0619,3.9902,3.9902,3.9298,3.8632,3.8503,3.7536,3.649,3.6439,3.5953,3.5504,3.5619,3.5619,3.5619,3.5619,3.5619,3.5619,3.5504,3.5504,3.5504,3.5504,3.5504,3.5504,3.5504,3.5444,3.5175,3.4562,3.4352,3.4008,3.335,3.2677,3.1779,3.0507,2.9894,2.9579,2.9579,2.9505,2.9475,2.9475,2.94,2.9385,2.9475,2.8759,2.8367,2.8453,2.765,2.7127,2.686,2.6797,2.6456,2.4312,2.4747,2.5241,2.6452,2.741,2.8487,3.0133,3.0911,3.1627,3.2868,3.4059,3.5063,3.5917,3.6691,3.7458,3.8287,3.8747,3.8972,3.8996,3.8852,3.8674,3.8412,3.8091,3.8262,3.9305,3.913,3.9101,3.9409,3.9116,3.9101,3.9409,3.9778,3.9971,3.9971,4.0652,4.0872,4.0601,4.149,4.1833,4.1527,4.4106,4.5087,4.4731,4.6583,4.7188,4.6824,4.7225,4.7191,4.6726,4.5981,4.5699,4.5637,4.488,4.4587,4.4502,4.3859,4.3312,4.2865,4.2865,4.2308,4.1598,4.1598,4.0976,4.035,4.035,3.9442,3.8493,3.8493,3.7767,3.703,3.703,3.6821,3.6522,3.6163,3.6073,3.5968,3.5594,3.5504,3.5504,3.5504,3.5504,3.5504,3.5504,3.5504,3.5504,3.5504,3.5504,3.54,3.5115,3.4726,3.4218,3.3559,3.3245,3.2856,3.2287,3.1659,3.1285,3.1285,3.0552,3.0118,3.0118,2.9774,2.9759,3.0118,2.9755,2.971,2.9903,2.9572,2.8994,2.8289,2.8289,2.79,2.5979,2.6722,2.7395,2.8412,3.0148,3.1644,3.1839,3.2916,3.4143,3.5085,3.6193,3.7173,3.7563,3.8226,3.8667,3.8644,3.9086,3.9424,3.9424,3.8842,3.8373,3.8373,3.784,3.7788,3.8762,3.9009,3.9233,3.9409,3.9586,3.9661,3.9661,4.0326,4.0674,4.068,4.1294,4.161,4.1439,4.1715,4.1851,4.1695,4.3972,4.4802,4.4352,4.6749,4.7567,4.706,4.7851,4.7886,4.7344,4.6633,4.6051,4.5554,4.4848,4.4289,4.3856,4.3856,4.3621,4.3246,4.3047,4.2395,4.1674,4.1674,4.1013,4.0363,4.0363,3.9571,3.8676,3.8676,3.8197,3.7689,3.7689,3.7539,3.73,3.6851,3.6746,3.6611,3.6133,3.6028,3.6028,3.6028,3.6028,3.6028,3.6028,3.5893,3.5774,3.5774,3.5624,3.5504,3.5504,3.507,3.4577,3.4098,3.3888,3.3769,3.3769,3.3155,3.2706,3.2527,3.1599,3.0971,3.0791,3.0537,3.047,3.0672,3.0602,3.0589,3.0606,3.0411,2.9849,2.9054,2.9054,2.871,2.545,2.7051,2.8996,3.0941,3.2901,3.4532,3.5205,3.6342,3.727,3.7315,3.7878,3.8322,3.8364,3.8892,3.9379,3.9394,3.9409,3.9424,3.9424,3.8842,3.8373,3.8373,3.7801,3.7398,3.7429,3.8072,3.8718,3.9322,3.9986,4.0356,4.0356,4.1024,4.1354,4.1351,4.1986,4.2031,4.1374,4.2595,4.2932,4.2411,4.4067,4.4834,4.4867,4.6775,4.7637,4.762,4.854,4.8951,4.8883,4.8132,4.6898,4.5425,4.4669,4.3434,4.2062,4.2062,4.2583,4.3185,4.2316,4.1478,4.0758,4.0758,4.0115,3.9409,3.9409,3.9409,3.9394,3.9394,3.8901,3.8362,3.8362,3.7883,3.7404,3.7389,3.7375,3.7375,3.736,3.7345,3.7345,3.7345,3.7345,3.7345,3.7345,3.6851,3.6462,3.6462,3.5908,3.5504,3.5504,3.5489,3.5474,3.5444,3.4846,3.4442,3.4442,3.3844,3.3185,3.2557,3.2482,3.2168,3.1524,3.2093,3.1973,3.1085,3.0886,3.0337,2.9425,2.8626,2.8157,2.817,2.817,2.8109,2.7709,2.9684,3.1569,3.3095,3.4666,3.5968,3.6626,3.7449,3.7903,3.7466,3.729,3.7124,3.7137,3.6952,3.7084,3.7929,3.844,3.871,3.875,3.8561,3.8113,3.7258,3.6944,3.6783,3.6783,3.7754,3.8463,3.8718,3.9778,4.0396,4.0371,4.1483,4.2067,4.2045,4.2654,4.2852,4.2639,4.3051,4.319,4.3006,4.4187,4.5141,4.5746,4.6366,4.6695,4.6694,4.6996,4.7161,4.7095,4.6385,4.5737,4.5126,4.3928,4.3154,4.2572,4.1503,4.1578,4.2126,4.137,4.0569,3.994,4.0379,4.0028,3.9499,3.9933,4.0068,4.0068,4.0068,4.0217,4.0277,3.9828,3.9559,3.917,3.8272,3.8063,3.7943,3.7509,3.7404,3.7404,3.7404,3.7404,3.7404,3.7404,3.724,3.6956,3.6552,3.5923,3.5504,3.5504,3.5504,3.5504,3.5504,3.5295,3.516,3.516,3.4532,3.4053,3.3829,3.341,3.3066,3.2841,3.3036,3.2697,3.176,3.1703,3.1059,2.996,2.9613,2.9407,2.9227,2.9227,2.9227,3.0268,3.2258,3.3963,3.5489,3.6416,3.7039,3.7201,3.7556,3.7546,3.6748,3.6328,3.607,3.5856,3.5215,3.5204,3.6541,3.7064,3.7629,3.8278,3.8175,3.785,3.7255,3.7196,3.7075,3.6836,3.8003,3.8665,3.8391,3.9899,4.0741,4.0749,4.2006,4.2763,4.2763,4.313,4.3329,4.3329,4.3329,4.3329,4.3344,4.3957,4.4584,4.5168,4.5544,4.5683,4.569,4.6041,4.6205,4.6136,4.5697,4.5144,4.4542,4.3621,4.2899,4.2303,4.1324,4.125,4.1469,4.0852,4.0379,4.0187,4.0606,4.0472,4.0202,4.0621,4.0756,4.0756,4.0756,4.1055,4.128,4.0861,4.0576,4.0187,3.932,3.8931,3.8646,3.8212,3.8123,3.8123,3.8123,3.8123,3.8123,3.8123,3.7928,3.7539,3.6911,3.6267,3.5774,3.5534,3.5504,3.5504,3.5504,3.5504,3.5504,3.5504,3.51,3.4741,3.4487,3.4083,3.3739,3.3499,3.3398,3.2902,3.1933,3.1811,3.1223,3.0077,3.0077,2.9997,2.9792,2.9792,2.9611,3.2885,3.4588,3.6066,3.7834,3.7974,3.7552,3.7022,3.6747,3.6341,3.5127,3.5095,3.5053,3.4441,3.3785,3.3833,3.525,3.5529,3.6252,3.8162,3.7901,3.782,3.8347,3.8467,3.8242,3.7584,3.8691,3.92,3.8542,4.0289,4.1445,4.1414,4.2641,4.3329,4.3329,4.3329,4.3329,4.3329,4.3329,4.3329,4.3329,4.3329,4.3329,4.3329,4.4297,4.4737,4.4812,4.569,4.6032,4.6032,4.6032,4.5151,4.3805,4.3758,4.2814,4.1429,4.1384,4.1399,4.1339,4.0711,4.0861,4.1339,4.1414,4.1384,4.1339,4.1414,4.1429,4.1429,4.1429,4.1444,4.1474,4.1444,4.0965,4.0487,4.0457,3.9978,3.9514,3.9514,3.9499,3.9469,3.9469,3.9439,3.9424,3.9424,3.8871,3.8212,3.7554,3.6956,3.6327,3.5639,3.5534,3.5504,3.5504,3.5504,3.5504,3.5504,3.5504,3.5235,3.4562,3.4517,3.417,3.3557,3.3267,3.2613,3.1612,3.1328,3.0758,2.9792,2.9792,2.9792,2.9792,2.9714,2.9106,3.4339,3.5851,3.7141,3.6807,3.6388,3.6011,3.5843,3.5176,3.4365,3.3691,3.256,3.1625,3.1519,3.1767,3.2645,3.4479,3.5956,3.7476,3.8945,3.9466,3.9541,3.9185,3.9589,3.9634,3.8975,3.9664,4.0068,3.9903,4.0815,4.1626,4.2089,4.2865,4.3329,4.3329,4.3329,4.3329,4.3329,4.3329,4.3329,4.3329,4.3329,4.3329,4.3329,4.3551,4.3708,4.3708,4.3912,4.4036,4.4036,4.4036,4.3805,4.3391,4.2893,4.2545,4.2058,4.1564,4.1698,4.2087,4.1923,4.1324,4.0816,4.1788,4.1444,4.0831,4.1818,4.2117,4.2117,4.2117,4.2462,4.2716,4.2237,4.1983,4.1728,4.125,4.0995,4.0876,4.0876,4.0502,4.0157,4.0157,3.9753,3.9424,3.9424,3.9275,3.8931,3.8242,3.8003,3.7494,3.6387,3.5804,3.5504,3.5504,3.5504,3.5504,3.5504,3.5504,3.5429,3.525,3.4508,3.406,3.39,3.3152,3.2315,3.1309,3.1249,3.0758,2.9792,2.9792,2.9792,2.9792,2.8937,2.8347,3.5483,3.6775,3.7676,3.6795,3.588,3.4859,3.3919,3.296,3.2013,3.0717,3.0009,2.9421,2.8885,2.9799,3.1123,3.2485,3.4651,3.6773,3.868,3.9544,4.0053,4.0247,4.0861,4.0995,4.0337,4.0876,4.1265,4.1265,4.1595,4.2001,4.2391,4.294,4.3329,4.3329,4.3329,4.3329,4.3329,4.3329,4.3329,4.3329,4.3329,4.3329,4.3329,4.3329,4.3329,4.3329,4.3329,4.3329,4.3329,4.3329,4.3329,4.3299,4.294,4.2776,4.2746,4.2372,4.2476,4.2776,4.2776,4.2117,4.1429,4.2447,4.2297,4.1818,4.2566,4.2776,4.2776,4.2776,4.3045,4.324,4.288,4.2581,4.2344,4.1893,4.1594,4.1384,4.1384,4.1085,4.0741,4.0457,4.0337,4.0098,3.9514,3.9664,3.9619,3.8945,3.8586,3.8123,3.7419,3.6746,3.6237,3.5968,3.6178,3.6118,3.5549,3.5774,3.5804,3.5519,3.4543,3.4027,3.4027,3.2678,3.1742,3.118,3.0833,3.0355,2.9792,2.9792,2.9534,2.9028,2.8426,2.7591,3.6415,3.7303,3.7633,3.6906,3.5559,3.3849,3.1764,3.0686,2.9535,2.7407,2.7598,2.7827,2.666,2.8055,2.9607,3.0469,3.2727,3.5316,3.8142,3.911,4.0038,4.1354,4.2087,4.2267,4.1698,4.2162,4.2491,4.2491,4.2491,4.2539,4.2479,4.3,4.3329,4.3329,4.3329,4.3329,4.3329,4.3329,4.3329,4.3329,4.3329,4.3329,4.3329,4.3329,4.3329,4.3329,4.3329,4.3329,4.3329,4.3329,4.3329,4.3329,4.3329,4.3329,4.3329,4.3329,4.3329,4.3329,4.3329,4.297,4.2581,4.315,4.3284,4.3225,4.3314,4.3329,4.3329,4.3329,4.3329,4.3329,4.3329,4.291,4.2491,4.2491,4.2058,4.1639,4.1639,4.1564,4.1309,4.0651,4.0995,4.101,3.9873,4.0083,4.0202,3.9634,3.896,3.8527,3.8527,3.7868,3.721,3.6671,3.709,3.6956,3.5848,3.606,3.6023,3.5442,3.4303,3.3602,3.3602,3.196,3.1044,3.1044,3.0216,2.9792,2.9792,2.9624,2.9106,2.8084,2.7763,2.6603,3.6436,3.6917,3.6928,3.4925,3.3752,3.2515,3.0585,2.9186,2.7893,2.6609,2.6082,2.585,2.5774,2.6942,2.8693,3.094,3.2687,3.4971,3.8721,3.9813,4.0711,4.2028,4.2761,4.312,4.3,4.3105,4.3165,4.3165,4.3165,4.315,4.315,4.3269,4.3329,4.3329,4.3329,4.3329,4.3329,4.3329,4.3329,4.3329,4.3329,4.3329,4.3329,4.3329,4.3329,4.3329,4.3329,4.3329,4.3329,4.3329,4.3329,4.3329,4.3329,4.3329,4.3329,4.3329,4.3329,4.3329,4.3329,4.3254,4.318,4.3299,4.297,4.2626,4.3165,4.3329,4.3329,4.3329,4.3329,4.3329,4.3329,4.324,4.3165,4.3165,4.3075,4.3,4.3,4.2566,4.1998,4.1339,4.1309,4.1309,4.107,4.0681,4.0367,4.0247,3.9664,3.9245,3.9245,3.8167,3.736,3.727,3.7345,3.7315,3.7105,3.5947,3.5212,3.5096,3.2955,3.1669,3.1669,3.0633,3.0075,3.0075,2.9856,2.9792,2.9792,2.8846,2.8255,2.8084,2.6191,2.5199,3.5762,3.6315,3.6483,3.5041,3.3593,3.2062,2.9917,2.8126,2.6582,2.5139,2.4903,2.4875,2.4596,2.6213,2.8021,2.926,3.0844,3.3335,3.733,3.8437,3.9709,4.2087,4.294,4.3329,4.3329,4.3329,4.3329,4.3329,4.3329,4.3329,4.3329,4.3329,4.3329,4.3329,4.3658,4.3673,4.3329,4.3673,4.3673,4.3329,4.3329,4.3329,4.3344,4.3688,4.3658,4.3374,4.4062,4.3958,4.3359,4.3703,4.3643,4.3329,4.3329,4.3329,4.3329,4.3329,4.3329,4.3329,4.3329,4.3329,4.3329,4.3329,4.312,4.2925,4.324,4.3329,4.3329,4.3329,4.3329,4.3329,4.3329,4.3329,4.3329,4.3329,4.3329,4.3329,4.3329,4.309,4.2671,4.2013,4.2162,4.2177,4.1489,4.1399,4.1309,4.0965,4.0651,4.0307,3.9978,3.8884,3.7842,3.7153,3.7388,3.7099,3.5913,3.5109,3.4649,3.4663,3.2461,3.1312,3.1615,3.0433,2.9792,2.9792,2.9792,2.9792,2.9792,2.8688,2.7904,2.7495,2.5654,2.4924,3.5102,3.5855,3.621,3.5487,3.3966,3.1965,2.954,2.7482,2.5591,2.3923,2.3924,2.4088,2.367,2.53,2.6916,2.7503,2.8985,3.1495,3.5504,3.6836,3.8542,4.1579,4.2641,4.318,4.3329,4.3329,4.3329,4.3329,4.3329,4.3329,4.3329,4.3329,4.3404,4.3539,4.3913,4.3928,4.3539,4.3913,4.3838,4.3329,4.3329,4.3404,4.3569,4.4077,4.4107,4.3808,4.484,4.4631,4.3584,4.4107,4.3928,4.3329,4.3329,4.3329,4.3329,4.3329,4.3329,4.3329,4.3329,4.3329,4.3329,4.3329,4.3329,4.3329,4.3329,4.3329,4.3329,4.3329,4.3434,4.3539,4.3539,4.3539,4.3509,4.3359,4.3329,4.3329,4.3329,4.3329,4.318,4.2671,4.2985,4.3,4.1983,4.2117,4.2192,4.1669,4.1292,4.0812,4.0159,3.9102,3.7933,3.6476,3.7044,3.6717,3.4823,3.4465,3.423,3.4181,3.2359,3.1457,3.1837,3.0687,2.9967,2.9967,2.9854,2.9702,2.9443,2.8279,2.7369,2.6678,2.553,2.5144,3.4625,3.5567,3.6223,3.5453,3.4113,3.2236,2.9586,2.7275,2.5272,2.3879,2.3206,2.3011,2.3505,2.3804,2.4777,2.718,2.8255,3.0163,3.4113,3.6252,3.8197,4.0337,4.1683,4.2686,4.3284,4.3329,4.3329,4.3329,4.3329,4.3329,4.3329,4.3329,4.3599,4.4212,4.3703,4.3673,4.4212,4.3688,4.3389,4.3329,4.3329,4.3643,4.4227,4.4287,4.4601,4.5125,4.5244,4.4885,4.4227,4.4287,4.3928,4.3329,4.3329,4.3329,4.3329,4.3329,4.3329,4.3329,4.3329,4.3329,4.3329,4.3329,4.3329,4.3329,4.3329,4.3329,4.3329,4.3329,4.3763,4.4227,4.4227,4.4227,4.4062,4.3479,4.3329,4.3329,4.3329,4.3329,4.3314,4.3254,4.3284,4.3299,4.318,4.2716,4.2419,4.2359,4.0832,3.9563,3.902,3.7966,3.666,3.5047,3.5801,3.6235,3.6046,3.4685,3.3834,3.3847,3.2336,3.141,3.1461,3.0889,3.0545,3.0545,3.0043,2.9275,2.8255,2.7209,2.6312,2.5588,2.5525,2.5438,3.3319,3.4537,3.5314,3.5245,3.3225,3.0993,2.9638,2.6802,2.4238,2.3714,2.3101,2.2862,2.349,2.3595,2.4194,2.6069,2.6251,2.759,3.1539,3.3125,3.519,3.8766,4.0367,4.1743,4.3195,4.3329,4.3329,4.3329,4.3329,4.3329,4.3329,4.3703,4.3868,4.3718,4.4631,4.4676,4.3733,4.4242,4.4122,4.3329,4.3329,4.3673,4.4317,4.4317,4.4466,4.4751,4.5559,4.5304,4.4347,4.4751,4.4526,4.3883,4.3494,4.3329,4.3389,4.3778,4.3928,4.3988,4.4377,4.4257,4.3988,4.4392,4.3988,4.3329,4.3329,4.3329,4.3329,4.3329,4.3808,4.4317,4.4317,4.4601,4.484,4.4571,4.4511,4.4511,4.4511,4.4212,4.3928,4.3928,4.3599,4.3329,4.3329,4.312,4.2689,4.199,4.1256,4.0363,3.9056,3.7907,3.6708,3.5368,3.5261,3.5047,3.4415,3.3398,3.2982,3.3341,3.2111,3.1386,3.1386,3.0884,3.0457,3.0131,2.9905,2.9275,2.8096,2.7046,2.6623,2.6846,2.4995,2.5114,3.1719,3.3144,3.4323,3.462,3.2077,2.9354,2.8926,2.5731,2.2872,2.3016,2.2724,2.2574,2.321,2.3492,2.397,2.5099,2.5237,2.6378,2.9759,3.115,3.332,3.7345,3.8826,4.0367,4.2551,4.3105,4.3329,4.3329,4.3329,4.3419,4.3614,4.4062,4.4107,4.3643,4.499,4.514,4.3928,4.4451,4.4347,4.3614,4.3419,4.3673,4.4317,4.4317,4.4421,4.4661,4.5813,4.5663,4.4646,4.511,4.49,4.4242,4.3584,4.3329,4.3404,4.4062,4.4317,4.4407,4.5065,4.499,4.4676,4.5155,4.4541,4.3629,4.3629,4.3494,4.3329,4.3329,4.3943,4.4646,4.4855,4.5244,4.5544,4.5349,4.5289,4.5289,4.5289,4.493,4.4601,4.4601,4.4062,4.3629,4.3629,4.3114,4.2548,4.1684,4.0986,4.0067,3.8601,3.7414,3.6363,3.5401,3.4933,3.4242,3.3179,3.2704,3.2641,3.3056,3.2164,3.1637,3.1637,3.0984,3.0432,3.0043,2.988,2.9275,2.8096,2.736,2.7065,2.7097,2.5225,2.5527,2.9884,3.1424,3.3199,3.3639,3.0611,2.7533,2.7201,2.3894,2.1061,2.1595,2.1704,2.1913,2.2581,2.3198,2.3819,2.4477,2.5734,2.7275,2.931,3.127,3.3499,3.6193,3.706,3.8482,4.1145,4.2566,4.3329,4.3329,4.3329,4.3614,4.4272,4.4317,4.4317,4.4302,4.4332,4.4631,4.5274,4.4003,4.3673,4.4302,4.3643,4.3673,4.4317,4.4317,4.4661,4.5334,4.6022,4.5933,4.5289,4.5289,4.49,4.4242,4.3584,4.3329,4.3404,4.4062,4.4317,4.4407,4.5065,4.5289,4.5289,4.5289,4.484,4.4302,4.4302,4.3853,4.3329,4.3329,4.4272,4.5439,4.6127,4.6307,4.6142,4.5454,4.5289,4.5289,4.5289,4.5289,4.5289,4.5289,4.4751,4.4302,4.4302,4.2796,4.1587,4.1587,3.9582,3.7909,3.7418,3.6224,3.5328,3.4776,3.4713,3.4261,3.3169,3.3068,3.3068,3.3081,3.2528,3.2202,3.2202,3.1185,3.062,3.0608,3.0068,2.9275,2.8096,2.8096,2.7204,2.5424,2.6689,2.7296,2.609,2.6866,2.7493,2.7946,2.6302,2.4626,2.4804,2.2731,2.0917,2.1588,2.1689,2.1919,2.2579,2.3183,2.4118,2.5719,2.6318,2.729,2.9295,3.127,3.3499,3.6178,3.9424,4.1788,4.2626,4.309,4.3329,4.3329,4.3329,4.3419,4.3629,4.4062,4.4317,4.4317,4.4751,4.4661,4.3958,4.3988,4.3883,4.3643,4.3434,4.3673,4.4302,4.3853,4.4003,4.4631,4.4855,4.4825,4.4631,4.4631,4.4496,4.4242,4.3584,4.3599,4.4077,4.4751,4.5274,4.5783,4.6441,4.6381,4.6082,4.6516,4.5903,4.5065,4.5544,4.49,4.4197,4.511,4.5678,4.6157,4.6815,4.6995,4.6935,4.6726,4.6666,4.6666,4.6666,4.6322,4.5992,4.5992,4.5439,4.4712,4.3799,4.2922,4.1696,4.0021,3.8799,3.7782,3.6826,3.6362,3.5893,3.5341,3.529,3.4839,3.3734,3.3633,3.3483,3.3106,3.2528,3.2039,3.1675,3.0984,3.0432,3.0068,2.988,2.9275,2.8096,2.8096,2.7021,2.5028,2.6096,2.5791,2.3612,2.4458,2.4909,2.5329,2.3973,2.2624,2.3075,2.1569,2.02,2.0798,2.1159,2.1506,2.2191,2.2825,2.3818,2.5555,2.6063,2.7006,2.9265,3.1061,3.332,3.6462,4.0247,4.2596,4.2596,4.3045,4.3329,4.3329,4.3329,4.3449,4.3688,4.3853,4.4062,4.4302,4.4706,4.4526,4.3718,4.3868,4.3868,4.3703,4.3449,4.3539,4.3928,4.3524,4.3554,4.3958,4.4212,4.4317,0.0,4.4317,4.4317,4.4242,4.3584,4.3733,4.4392,4.505,4.5723,4.6426,4.707,4.704,4.677,4.7174,4.6561,4.5768,4.6187,4.5559,4.4915,4.6007,4.6322,4.6471,4.713,4.7309,4.7309,4.7309,4.7309,4.7309,4.7309,4.698,4.6696,4.6696,4.6157,4.5312,4.4023,4.2753,4.1197,3.9243,3.8043,3.7243,3.6452,3.6358,3.6232,3.5893,3.5855,3.5491,3.46,3.4135,3.3759,3.3407,3.2654,3.1964,3.1411,3.0884,3.0357,2.9804,2.9993,2.9754,2.9071,2.8339,2.7334,2.6012,2.5909,2.4997,0.0,2.3513,2.4377,2.4956,2.3121,2.1348,2.1861,2.04,0.0,1.9581,2.0222,2.0931,2.1654,2.2267,2.3167,2.4582,2.536,2.6677,2.934,3.1046,3.3395,3.7105,3.9903,4.1489,4.1384,4.2566,4.3329,4.3329,4.3329,4.3599,4.4212,4.3658,4.3614,4.4227,4.4242,4.4242,4.4242,4.3643,4.3643,4.4242,4.3629,4.3329,4.3329,4.3329,4.3329,4.3359,4.3988,4.4242,4.4242,4.4242,4.4242,4.4182,4.3569,4.3763,4.4466,4.5065,4.5753,4.6486,4.71,4.7309,4.7309,4.7309,4.689,4.6396,4.6396,4.5918,4.5514,4.6202,4.6396,4.6531,4.7145,4.7309,4.7309,4.7309,4.7309,4.7309,4.7309,4.7309,4.7309,4.7309,4.6715,4.5838,4.4525,4.2359,4.0273,3.9031,3.7454,3.6358,3.6358,3.6358,3.6263,3.6263,3.6156,3.5849,3.5351,3.4497,3.3935,3.3897,3.2842,3.1989,3.1474,3.0947,3.0432,2.9917,3.0407,3.0591,3.0498,2.8777,2.7875,2.7765,2.5941,2.4629,2.0318,0.0,1.9716,1.9809,1.9656,1.9532,0.0,1.9584,1.956,1.969,2.0222,2.1061,2.2253,2.2611,2.3618,2.6456,2.7006,2.8038,3.0702,3.4367,3.7315,3.8766,4.1265,4.2476,4.1474,4.2566,4.3329,4.3329,4.3329,4.3404,4.3554,4.3419,4.3404,4.3554,4.3569,4.3569,4.3569,4.3404,4.3404,4.3569,4.3404,4.3329,4.3329,4.3329,4.3329,4.3344,4.3494,4.3569,4.3569,4.3569,4.3569,4.3554,4.3389,4.4047,4.508,4.5229,4.6052,4.71,4.7249,4.7309,4.7309,4.7309,4.7189,4.707,4.707,4.6621,4.6217,4.689,4.707,4.7115,4.7264,4.7309,4.7309,4.7309,4.7309,4.7309,4.7309,4.7309,4.7309,4.7309,4.6417,4.5187,4.3953,4.1704,3.9719,3.835,3.7165,3.6358,3.6358,3.5463,3.4884,3.4884,3.3958,3.3185,3.307,3.3983,3.4349,3.3922,3.2842,3.2152,3.2026,3.1499,3.1148,3.1022,3.1148,3.0778,2.9833,2.8877,2.7777,2.6472,2.5498,2.4785,1.969,1.9515,1.93,1.93,1.9508,1.9727,1.9719,1.9694,1.969,1.969,1.9999,2.0647,2.198,2.2476,2.3666,2.6681,2.7284,2.8506,3.1792,3.5163,3.7952,3.9636,4.1384,4.2402,4.2282,4.2925,4.3329,4.3329,4.3329,4.3329,4.3329,4.3329,4.3329,4.3329,4.3329,4.3329,4.3329,4.3329,4.3329,4.3329,4.3329,4.3329,4.3329,4.3329,4.3329,4.3329,4.3329,4.3329,4.3329,4.3329,4.3329,4.3329,4.3329,4.4137,4.5289,4.5289,4.6142,4.7309,4.7309,4.7309,4.7309,4.7309,4.7309,4.7309,4.7309,4.7055,4.6845,4.7204,4.7309,4.7309,4.7309,4.7309,4.7309,4.7309,4.7309,4.7309,4.7309,4.7309,4.7121,4.6535,4.5869,4.4826,4.293,4.1309,3.9873,3.8591,3.7663,3.6818,3.5952,3.5222,3.4426,3.3487,3.2744,3.2331,3.2331,3.2707,3.3056,3.3338,3.286,3.2491,3.2227,3.1926,3.1763,3.1763,3.124,3.0749,3.0292,2.888,2.731,2.5837,2.4909,2.3846,1.969,2.0333,2.0932,2.0632,2.0557,2.0535,2.0557,2.0117,1.969,1.969,1.9779,2.0258,2.1605,2.2473,2.3834,2.6467,2.754,2.9226,3.2852,3.5107,3.7376,3.9979,4.11,4.2043,4.294,4.3225,4.3329,4.3329,4.3329,4.3329,4.3329,4.3329,4.3329,4.3329,4.3329,4.3329,4.3329,4.3329,4.3329,4.3329,4.3329,4.3329,4.3329,4.3329,4.3329,4.3329,4.3329,4.3329,4.3329,4.3329,4.3329,4.3329,4.3329,4.4077,4.5155,4.5259,4.6082,4.7174,4.7264,4.7309,4.7309,4.7309,4.7309,4.7309,4.7309,4.7309,4.7309,4.7309,4.7309,4.7309,4.7309,4.7309,4.7309,4.7309,4.7309,4.7309,4.7309,4.7309,4.6916,4.5689,4.5207,4.4349,4.1985,4.1031,4.0187,3.9058,3.8166,3.7109,3.5501,3.4858,3.3931,3.2285,3.1869,3.1735,3.1735,3.1151,3.1292,3.243,3.2698,3.2671,3.2365,3.234,3.2256,3.2075,3.1002,3.0596,3.0676,2.838,2.6567,2.5247,2.3943,2.2594,1.969,2.1006,2.1964,2.0273,1.9839,1.9839,1.9854,1.9765,1.969,1.969,2.0161,2.0959,2.2293,2.3505,2.5196,2.7859,3.0367,3.2643,3.4445,3.6792,3.8641,3.9444,4.1624,4.2671,4.1773,4.2686,4.3329,4.3329,4.3329,4.3329,4.3329,4.3329,4.3329,4.3329,4.3329,4.3329,4.3329,4.3329,4.3329,4.3329,4.3329,4.3329,4.3329,4.3329,4.3329,4.3329,4.3329,4.3329,4.3329,4.3329,4.3329,4.3329,4.3329,4.3793,4.4526,4.5095,4.5798,4.6546,4.7115,4.7309,4.7309,4.7309,4.7309,4.7309,4.7309,4.7309,4.7309,4.7309,4.7309,4.7309,4.7309,4.7309,4.7309,4.7309,4.7309,4.7309,4.7309,4.7309,4.6916,4.5689,4.4549,4.3313,4.1887,4.0279,3.9158,3.8969,3.7323,3.5997,3.5698,3.3339,3.1507,3.1222,2.9843,2.89,2.89,3.007,3.1043,3.1653,3.1574,3.1916,3.2943,3.2943,3.2475,3.1368,3.1192,3.0145,2.8132,2.6622,2.5179,2.3962,2.2659,2.182,1.969,2.0348,2.101,2.0826,2.1289,2.1715,2.1401,2.1051,2.0994,2.1674,2.1814,2.2178,2.3505,2.5091,2.7107,2.9729,3.2319,3.4209,3.4608,3.6482,3.825,3.925,4.1115,4.2043,4.1444,4.2566,4.318,4.2836,4.3135,4.3329,4.3329,4.3329,4.3329,4.3329,4.3329,4.3329,4.3329,4.3329,4.3329,4.3329,4.3329,4.3329,4.3329,4.3329,4.3329,4.3329,4.3329,4.3329,4.3329,4.3329,4.3329,4.3329,4.3329,4.3943,4.493,4.5603,4.6052,4.6307,4.6247,4.6456,4.677,4.677,4.701,4.7309,4.7309,4.7309,4.7309,4.7309,4.7309,4.7309,4.7309,4.7309,4.7309,4.7309,4.7309,4.7309,4.7309,4.7309,4.6726,4.4734,4.3882,4.2834,4.0932,3.9867,3.932,3.932,3.7892,3.6331,3.5305,3.294,3.0982,2.9992,2.8955,2.8291,2.8291,2.9403,3.0838,3.2248,3.2544,3.2822,3.3093,3.2426,3.1777,3.1223,2.9954,2.8358,2.6451,2.5189,2.3529,2.1456,2.0845,2.0128,1.969,1.9914,2.0347,2.1054,2.1971,2.2817,2.3255,2.273,2.2615,2.4222,2.4163,2.4164,2.512,2.7066,2.9263,3.152,3.3774,3.5182,3.5064,3.6362,3.7973,3.9429,4.0666,4.1384,4.1384,4.2417,4.2895,4.2387,4.297,4.3269,4.312,4.324,4.3195,4.288,4.3165,4.3254,4.3105,4.3254,4.3329,4.3329,4.3329,4.3329,4.3329,4.3329,4.3329,4.3329,4.3329,4.3329,4.3329,4.3329,4.3329,4.3329,4.3329,4.4047,4.5125,4.5663,4.5948,4.6022,4.5663,4.5873,4.6352,4.6501,4.689,4.7309,4.7309,4.7309,4.7309,4.7309,4.7309,4.7309,4.7309,4.7309,4.7309,4.7309,4.7309,4.7309,4.7309,4.7106,4.6166,4.3975,4.3218,4.2363,4.007,3.9697,3.9697,3.9697,3.8465,3.6885,3.4989,3.302,3.1143,2.9211,2.8603,2.8455,2.9066,2.9743,3.1031,3.3171,3.3784,3.3847,3.3294,3.1937,3.1092,3.0941,2.8844,2.7037,2.5723,2.4181,2.2486,2.0656,2.0051,1.9085,1.969,2.0602,2.1291,2.0124,1.9907,2.0948,2.4541,2.4383,2.4184,2.6773,2.7306,2.7258,2.7369,2.949,3.159,3.2789,3.4606,3.6028,3.6734,3.7872,3.9062,4.0159,4.095,4.1384,4.1384,4.2013,4.2417,4.2357,4.297,4.3075,4.2462,4.3015,4.2776,4.1564,4.2701,4.3045,4.2432,4.303,4.3329,4.3329,4.3329,4.3329,4.3329,4.3329,4.3329,4.3329,4.3329,4.3329,4.3329,4.3329,4.3329,4.3329,4.3329,4.3763,4.4392,4.4451,4.484,4.5454,4.6052,4.6277,4.6426,4.704,4.7264,4.7309,4.7309,4.7309,4.7309,4.7309,4.7309,4.7309,4.7309,4.7309,4.7309,4.7309,4.7309,4.7309,4.7309,4.6358,4.5115,4.3787,4.2544,4.1319,3.9981,3.9697,3.9697,3.9697,3.8465,3.6907,3.5463,3.3225,3.1267,2.9744,2.8789,2.914,3.1097,3.1329,3.2045,3.372,3.4361,3.4412,3.3859,3.2131,3.0898,3.0266,2.887,2.7549,2.6328,2.3982,2.3227,2.3919,2.133,1.9821,1.969,2.0662,2.168,2.1575,2.1584,2.2293,2.4997,2.5517,2.6218,2.8864,2.941,2.9666,3.0481,3.1809,3.2939,3.3503,3.5799,3.7357,3.6909,3.8603,3.9757,3.9755,4.0726,4.1055,4.0247,4.113,4.1579,4.1175,4.1743,4.2013,4.1758,4.1983,4.1893,4.1399,4.1863,4.1998,4.1758,4.1998,4.2117,4.2132,4.294,4.3329,4.3329,4.3329,4.3329,4.3329,4.3329,4.3329,4.3329,4.3329,4.3329,4.3374,4.3778,4.4092,4.4317,4.4317,4.4721,4.5274,4.5125,4.5618,4.6367,4.6621,4.698,4.7309,4.7309,4.7309,4.7309,4.7309,4.7309,4.7309,4.7309,4.7309,4.7309,4.7309,4.7309,4.7309,4.7309,4.6255,4.5024,4.3787,4.2461,4.1219,3.9878,3.9697,3.9697,3.9697,3.8465,3.693,3.5508,3.3496,3.1581,3.0177,2.9938,3.0569,3.1895,3.2769,3.3624,3.4385,3.4613,3.4474,3.3922,3.2047,3.0887,3.0594,2.8321,2.6437,2.5107,2.3874,2.3123,2.2672,2.155,2.1075,1.969,2.0363,2.1276,2.2143,2.2667,2.3657,2.6291,2.7049,2.8165,3.1427,3.1708,3.1734,3.2662,3.3185,3.3716,3.4324,3.6325,3.763,3.7054,3.8396,3.9364,3.9125,3.9888,4.0172,3.9484,4.0427,4.0891,4.0427,4.101,4.1294,4.1085,4.1265,4.119,4.0771,4.116,4.128,4.107,4.128,4.1384,4.1384,4.2282,4.2716,4.2731,4.2925,4.291,4.2731,4.2925,4.303,4.303,4.303,4.315,4.3389,4.3823,4.4003,4.4003,4.4003,4.4287,4.4661,4.4631,4.5229,4.6067,4.6501,4.6935,4.7309,4.7309,4.7309,4.7309,4.7309,4.7309,4.7309,4.7309,4.7309,4.7309,4.7309,4.7309,4.7309,4.7309,4.5973,4.4549,4.3693,4.2168,4.0743,3.989,3.9697,3.9697,3.9697,3.8804,3.769,3.6162,3.4732,3.3116,3.1336,3.1075,3.1546,3.2889,3.3719,3.4318,3.4936,3.4813,3.455,3.4173,3.1727,3.0572,3.0874,2.7934,2.5958,2.5006,2.4345,2.3788,2.3151,2.2638,2.2367,1.969,1.969,2.0034,2.138,2.2682,2.4672,2.8682,2.9086,2.9924,3.4532,3.4427,3.3499,3.3499,3.3499,3.3933,3.528,3.6058,3.6701,3.7315,3.7404,3.7659,3.8302,3.8377,3.8646,3.9349,3.9993,4.0382,4.0382,4.0995,4.107,4.0412,4.0995,4.0756,3.9454,4.0666,4.104,4.0397,4.104,4.1354,4.1354,4.1354,4.1369,4.1399,4.2058,4.1998,4.1414,4.2073,4.2434,4.2434,4.2357,4.2746,4.3329,4.3329,4.3329,4.3329,4.3329,4.3329,4.3524,4.4825,4.5289,4.5514,4.686,4.7294,4.7294,4.7294,4.7294,4.7294,4.7294,4.7294,4.7294,4.7294,4.7309,4.7309,4.7309,4.7309,4.7309,4.7309,4.5298,4.3504,4.3504,4.1406,3.9697,3.9697,3.9697,3.9697,3.9697,3.9697,3.9141,3.769,3.7106,3.5862,3.3411,3.196,3.1973,3.4225,3.3886,3.4076,3.5449,3.5027,3.4726,3.4726,3.134,2.9877,3.0948,2.7934,2.6387,2.6387,2.5311,2.5396,2.6387,2.4794,2.3951,1.969,2.0378,2.141,2.2712,2.4373,2.6632,3.0148,3.0088,3.0208,3.3425,3.3784,3.3634,3.4098,3.4188,3.4307,3.4711,3.5744,3.6552,3.6731,3.7135,3.7479,3.7674,3.7704,3.7958,3.8631,3.8871,3.9185,3.9679,3.9888,3.9709,3.902,3.917,3.9095,3.8706,3.908,3.9409,3.9709,3.9903,3.9993,3.9993,3.9993,4.0487,4.1384,4.1579,4.1564,4.1384,4.1594,4.1669,4.1713,4.2177,4.2746,4.3329,4.3329,4.3329,4.3329,4.3329,4.3629,4.4077,4.4466,4.4915,4.5364,4.5753,4.6217,4.6621,4.6621,4.6621,4.6621,4.6621,4.6621,4.6621,4.6621,4.6965,4.7309,4.7309,4.7309,4.7019,4.6166,4.4642,4.3218,4.2363,4.0844,3.9697,3.9697,3.9697,3.9697,3.9697,3.9697,3.9141,3.769,3.6468,3.5233,3.3814,3.4118,3.4402,3.4359,3.5125,3.5556,3.5474,3.5027,3.4726,3.4726,3.1938,3.0583,3.0874,2.7934,2.6387,2.6387,2.5785,2.5631,2.5928,2.5408,2.5144,2.0019,2.0872,2.2128,2.3939,2.5914,2.8188,3.1225,3.1928,3.2377,3.3963,3.4068,3.4083,3.4756,3.4666,3.4562,3.4846,3.5564,3.6088,3.6088,3.6417,3.6746,3.7015,3.7045,3.73,3.7943,3.8003,3.8167,3.8586,3.8616,3.8437,3.8018,3.8003,3.8003,3.8003,3.8257,3.8467,3.8616,3.9155,3.929,3.9005,3.9005,3.9574,4.0606,4.0876,4.0846,4.0621,4.0876,4.0995,4.107,4.1983,4.2581,4.297,4.324,4.3329,4.3329,4.3329,4.3584,4.3958,4.4227,4.4571,4.496,4.5221,4.5744,4.6267,4.6271,4.6506,4.6651,4.6396,4.6311,4.6271,4.6307,4.6375,4.6661,4.7148,4.7309,4.6931,4.5689,4.4349,4.3122,4.1887,4.0554,3.9697,3.9697,3.9697,3.9697,3.9697,3.9697,3.9362,3.8465,3.7037,3.6067,3.5897,3.5833,3.5687,3.5563,3.609,3.6219,3.5893,3.5152,3.4441,3.3961,3.1646,3.0203,2.9924,2.7384,2.6133,2.6133,2.5869,2.5742,2.5742,2.5742,2.5742,2.0663,2.1315,2.2428,2.5152,2.743,2.9609,3.2123,3.4098,3.5385,3.534,3.4921,3.4756,3.5385,3.4996,3.4771,3.54,3.5504,3.5504,3.5504,3.5504,3.5729,3.6327,3.6402,3.6641,3.727,3.733,3.7345,3.7404,3.7404,3.7389,3.733,3.733,3.733,3.733,3.7898,3.7958,3.7419,3.8631,3.8916,3.8302,3.8302,3.8631,3.926,3.9918,3.9933,3.9454,4.0053,4.0337,4.0502,4.1758,4.2312,4.2432,4.3075,4.3329,4.3329,4.3329,4.3329,4.3419,4.4018,4.4227,4.4265,4.4876,4.5555,4.6102,4.6085,4.6498,4.692,4.6322,4.6137,4.6141,4.6181,4.5699,4.5461,4.6748,4.7043,4.6593,4.532,4.4037,4.2862,4.1677,4.0453,3.9697,3.9697,3.9697,3.9697,3.9697,3.9697,3.9697,3.9697,3.857,3.8012,3.8742,3.7161,3.6311,3.7052,3.6646,3.6358,3.6358,3.5328,3.4144,3.2804,3.0583,2.9075,2.8294,2.659,2.5742,2.5742,2.5742,2.5742,2.5742,2.5742,2.5742,2.1738,2.233,2.3333,2.6949,2.9773,3.2093,3.3694,3.4382,3.4547,3.4038,3.4651,3.5325,3.5474,3.5385,3.5325,3.5489,3.5504,3.5504,3.5504,3.5504,3.5549,3.5699,3.5714,3.5968,3.6626,3.6686,3.6881,3.7375,3.7404,3.7195,3.6716,3.6686,3.6686,3.6686,3.6821,3.706,3.7404,3.7704,3.7764,3.7629,3.7629,3.7704,3.7853,3.8512,3.9035,3.9424,3.9574,3.9918,4.0457,4.1265,4.1893,4.2432,4.3075,4.3329,4.3329,4.3329,4.3329,4.3359,4.3494,4.3539,4.3584,4.3683,4.4161,4.4751,4.4728,4.4863,4.4885,4.4735,4.4706,4.4815,4.5379,4.4778,4.4195,4.4976,4.4819,4.3895,4.2195,4.1558,4.1161,4.0274,3.989,3.9697,3.9697,3.9697,3.9697,3.9697,3.9697,3.9697,3.9697,3.9465,3.8976,3.8304,3.7767,3.7294,3.6621,3.6433,3.6358,3.6358,3.5328,3.3662,3.1449,3.012,2.891,2.7831,2.644,2.5742,2.5742,2.5742,2.5742,2.5742,2.5742,2.5742,2.2003,2.2821,2.4146,2.8384,3.097,3.2781,3.3784,3.4008,3.3903,3.3559,3.4577,3.5504,3.5504,3.5504,3.54,3.507,3.5295,3.5385,3.5055,3.5295,3.5504,3.5504,3.5504,3.5639,3.5983,3.6013,3.6148,3.6477,3.6492,3.6357,3.6028,3.6013,3.6013,3.6013,3.6327,3.6492,3.6492,3.7105,3.7255,3.6971,3.6971,3.6971,3.6985,3.7629,3.8287,3.8931,3.8931,3.9305,3.9978,4.0636,4.1294,4.1923,4.2267,4.2596,4.2865,4.2865,4.2865,4.291,4.3225,4.3329,4.3329,4.3329,4.3778,4.4317,4.428,4.4512,4.4682,4.4408,4.4542,4.4833,4.5247,4.4383,4.35,4.3673,4.3223,4.2321,4.0754,4.0602,4.0546,3.9538,3.9509,3.9697,3.9697,3.9697,3.9697,3.9697,3.9697,3.9697,3.9697,3.9471,3.9069,3.8479,3.7927,3.7374,3.681,3.6508,3.6257,3.5994,3.4613,3.3172,3.1576,3.0181,2.8588,2.6764,2.6014,2.6014,2.6572,2.6014,2.6014,2.6572,2.6014,2.5333,2.2024,2.3456,2.5319,2.9349,3.127,3.2347,3.3006,3.3245,3.332,3.332,3.4307,3.516,3.516,3.516,3.4966,3.4397,3.4786,3.4951,3.4382,3.4801,3.5205,3.531,3.5325,3.537,3.5489,3.5504,3.5504,3.5504,3.5504,3.5504,3.5504,3.5504,3.5504,3.5504,3.6028,3.6058,3.5504,3.6552,3.6821,3.6312,3.6312,3.6312,3.6327,3.6851,3.7569,3.8392,3.8392,3.8781,3.9469,4.0127,4.0726,4.122,4.1324,4.1713,4.2207,4.2327,4.2357,4.2462,4.3105,4.3329,4.3329,4.3329,4.3703,4.4167,4.4161,4.4542,4.4846,4.4437,4.4729,4.5179,4.5408,4.4477,4.3403,4.3057,4.2355,4.1448,4.0158,4.0375,4.0496,3.9395,3.9512,3.9697,3.9697,3.9697,3.9697,3.9697,3.9697,3.9697,3.9697,3.9207,3.8831,3.873,3.7801,3.7149,3.7048,3.6621,3.6119,3.5579,3.4071,3.2867,3.2146,3.0593,2.8669,2.638,2.638,2.6754,2.7589,2.6572,2.6476,2.722,2.5994,2.4716,2.2493,2.5227,2.7872,2.935,3.0238,3.0956,3.1644,3.2243,3.2647,3.2647,3.3245,3.3769,3.3769,3.3769,3.3739,3.3649,3.3709,3.3739,3.3649,3.3709,3.3978,3.4547,3.4607,3.4846,3.5444,3.5504,3.5504,3.5504,3.5504,3.5504,3.5504,3.5504,3.5504,3.5504,3.5594,3.5594,3.5504,3.5669,3.5714,3.5639,3.5639,3.5639,3.5639,3.5729,3.6716,3.8392,3.8392,3.8781,3.9469,4.0127,4.0442,4.0591,4.116,4.1429,4.1579,4.2147,4.2357,4.2462,4.3105,4.3329,4.3329,4.3329,4.3389,4.3464,4.3399,4.3474,4.3668,4.4139,4.4354,4.4747,4.5865,4.4848,4.3715,4.4241,4.3051,4.1473,4.008,4.0318,4.0686,4.0452,3.998,3.9697,3.9697,3.9697,3.9697,3.9697,3.9697,3.9697,3.9697,3.9207,3.868,3.8178,3.7563,3.6985,3.6508,3.6408,3.6119,3.5579,3.4844,3.3715,3.2158,3.1329,3.0316,2.8947,2.8947,2.8495,2.7589,2.741,2.6849,2.5917,2.4599,2.389,2.2639,2.4815,2.6873,2.895,2.9327,2.9507,3.0693,3.1177,3.139,3.139,3.1928,3.2617,3.3365,3.3499,3.338,3.3006,3.3245,3.3365,3.2991,3.326,3.3604,3.3888,3.3918,3.4053,3.4352,3.4711,3.4936,3.4936,3.5295,3.5504,3.5504,3.5504,3.5504,3.5504,3.5504,3.5504,3.5504,3.5504,3.5504,3.5504,3.5504,3.5504,3.5504,3.5504,3.6163,3.733,3.733,3.7898,3.8856,3.9155,3.9709,4.0382,4.0307,4.0502,4.0876,4.116,4.1489,4.1908,4.2566,4.303,4.3329,4.3329,4.3329,4.3329,4.3329,4.3329,4.3429,4.4117,4.456,4.5082,4.606,4.5461,4.4676,4.4968,4.4124,4.3126,4.2475,4.1827,4.1087,4.0671,4.0068,3.9697,3.9697,3.9697,3.9697,3.9697,3.9697,3.9697,3.9697,3.8931,3.8291,3.804,3.7236,3.6621,3.6383,3.5667,3.5215,3.5048,3.3506,3.2632,3.2644,3.1721,3.1311,3.1512,3.0135,2.9131,2.8588,2.7955,2.6894,2.5518,2.4267,2.2876,2.2194,2.3599,2.5075,2.7221,2.7856,2.8216,2.9388,2.9916,3.0208,3.0278,3.0672,3.133,3.2317,3.2632,3.2632,3.2317,3.2527,3.2632,3.2302,3.2691,3.3051,3.323,3.3245,3.3305,3.3484,3.3933,3.4233,3.4233,3.4696,3.4996,3.4996,3.516,3.525,3.525,3.5415,3.5504,3.5504,3.5504,3.5504,3.5504,3.5504,3.5504,3.5504,3.5504,3.5774,3.6252,3.6417,3.712,3.8153,3.8317,3.8886,3.9619,3.9469,3.9604,3.9933,4.0292,4.0831,4.1489,4.2145,4.2772,4.3329,4.3329,4.3329,4.3329,4.3329,4.3329,4.3414,4.4124,4.4788,4.5447,4.6102,4.6117,4.5859,4.5866,4.5464,4.5017,4.4705,4.3112,4.1613,4.1178,4.024,3.9534,3.9672,3.9697,3.9697,3.9697,3.9697,3.9788,4.0173,3.902,3.8252,3.8481,3.7329,3.6521,3.637,3.5475,3.4725,3.4309,3.2711,3.2052,3.2562,3.2052,3.1965,3.2612,3.0777,2.9681,2.9407,2.7819,2.6365,2.4965,2.3439,2.1558,2.0737,2.1929,2.3185,2.3514,2.5352,2.7111,2.7304,2.8409,2.9409,2.9597,2.9654,2.9699,2.9774,3.0268,3.0866,3.1422,3.1061,3.0881,3.1437,3.1556,3.1869,3.2497,3.2557,3.2811,3.344,3.3529,3.3544,3.3544,3.3574,3.3604,3.3604,3.4188,3.4532,3.4532,3.516,3.5504,3.5504,3.5504,3.5504,3.5504,3.5504,3.5504,3.5504,3.5504,3.5534,3.5594,3.6207,3.6851,3.7509,3.8138,3.8063,3.7689,3.8931,3.9035,3.8661,3.9964,4.0816,4.1519,4.2149,4.2793,4.3329,4.3329,4.3329,4.3329,4.3329,4.3329,4.3419,4.4078,4.4757,4.5489,4.6137,4.6715,4.7163,4.7207,4.7163,4.6759,4.552,4.3342,4.1874,4.2296,4.0481,3.9082,3.9597,3.9697,3.9697,3.9697,3.9697,4.0173,4.1319,3.994,3.9079,3.9712,3.821,3.6923,3.6408,3.6358,3.5387,3.3155,3.3961,3.356,3.1359,3.2413,3.2426,3.1311,3.1134,3.0586,2.9407,2.6876,2.4975,2.3782,2.1049,1.9731,2.1603,2.1616,2.1818,2.4204,2.498,2.5465,2.6718,2.7899,2.8735,2.8813,2.9229,2.9579,2.9579,2.9759,2.9998,3.0238,3.0402,3.0447,3.0298,3.1001,3.1465,3.1255,3.1614,3.1973,3.2213,3.2617,3.2871,3.2871,3.326,3.3499,3.3499,3.3724,3.3844,3.3844,3.4083,3.4412,3.4846,3.528,3.5504,3.5504,3.5504,3.5504,3.5504,3.5504,3.5504,3.5519,3.5744,3.6222,3.6836,3.7075,3.7509,3.8048,3.8108,3.8512,3.9065,3.914,3.9843,4.0861,4.1547,4.2175,4.2776,4.3195,4.3329,4.3329,4.3329,4.3329,4.3464,4.4092,4.4757,4.5346,4.5609,4.6471,4.7309,4.7309,4.698,4.6379,4.5566,4.3428,4.1763,4.1984,3.9987,3.8492,3.9069,3.917,3.9283,3.9647,3.9697,3.989,4.0364,3.9487,3.883,3.8715,3.7779,3.696,3.6408,3.4739,3.3511,3.2969,3.1639,3.0604,3.0079,3.0496,3.0508,3.0045,2.9315,2.868,2.8226,2.6411,2.4468,2.2366,2.0436,1.9008,2.173,2.1359,2.1114,2.3456,2.3833,2.3958,2.5301,2.6598,2.7523,2.7578,2.8284,2.8858,2.8858,2.8899,2.9056,2.9505,2.9744,2.9804,2.9609,3.0328,3.0717,3.0253,3.0597,3.0956,3.1165,3.1584,3.1928,3.2168,3.2587,3.2841,3.2841,3.3036,3.326,3.3484,3.3709,3.4038,3.4472,3.516,3.5385,3.516,3.5385,3.5385,3.516,3.54,3.5504,3.5504,3.5504,3.5744,3.6178,3.6402,3.6851,3.7419,3.7419,3.7958,3.8721,3.8445,3.9262,4.0502,4.1159,4.1861,4.2518,4.3071,4.3329,4.3329,4.3329,4.3329,4.3354,4.3862,4.4152,4.4376,4.4394,4.5247,4.6048,4.5786,4.5712,4.5478,4.4881,4.3195,4.1658,4.1404,3.9372,3.7914,3.8479,3.858,3.8768,3.9333,3.9421,3.9676,4.0249,3.9664,3.9045,3.863,3.7956,3.6967,3.5824,3.4056,3.262,3.1624,3.0295,2.9289,2.8817,2.9223,2.9223,2.8773,2.8049,2.72,2.632,2.4878,2.3097,2.0939,1.8978,1.7181,0.0,0.0,0.0,2.1039,2.1858,2.2736,2.2962,2.445,2.5819,2.5975,2.6698,2.738,2.7396,2.7491,2.7985,2.9304,2.8981,2.8816,2.943,2.9564,2.9564,2.9549,2.9564,2.9819,3.0417,3.0477,3.0746,3.1362,3.1437,3.1437,3.1437,3.2123,3.2781,3.3425,3.4068,3.4412,3.4412,3.51,3.5115,3.4457,3.5145,3.513,3.4502,3.519,3.5504,3.5504,3.5504,3.5504,3.5549,3.6193,3.6088,3.5654,3.6881,3.7389,3.7485,3.8112,3.9252,4.0502,4.1141,4.1837,4.2441,4.313,4.3329,4.3329,4.3329,4.3329,4.325,4.325,4.2962,4.2567,4.2553,4.3013,4.3355,4.2795,4.3483,4.412,4.3526,4.2509,4.1558,4.0877,3.8852,3.7337,3.7902,3.8002,3.8203,3.8806,3.8894,3.9562,4.134,4.044,3.9715,3.986,3.8723,3.7035,3.4567,3.4385,3.2828,2.9204,3.0111,2.9781,2.762,2.868,2.8773,2.7589,2.7494,2.6224,2.3692,2.2357,2.0939,1.9517,1.6613,1.4145,2.1721,0.0,0.0,0.0,0.0,0.0,2.3217,2.4182,2.519,2.5728,2.6158,2.6583,2.7162,2.6989,2.6842,2.7224,2.8006,2.8487,2.8225,2.8966,2.94,2.8921,2.928,2.9654,2.9819,2.9834,2.9924,3.0103,3.0537,3.0791,3.0791,3.1435,3.1884,3.2078,3.2706,3.3051,3.3051,3.3724,3.3963,3.3769,3.4442,3.4666,3.4502,3.519,3.5504,3.5504,3.5504,3.5504,3.5519,3.5699,3.5953,3.6207,3.6088,3.6881,3.8093,3.7814,3.8531,3.9858,4.098,4.1517,4.1876,4.2921,4.3329,4.3329,4.3329,4.3329,4.3155,4.229,4.2371,4.2482,4.2125,4.1439,4.11,4.1848,4.1945,4.1737,4.1598,4.0924,4.0335,4.0142,3.8247,3.6885,3.7839,3.8002,3.8341,3.932,3.9471,3.9611,4.0147,3.9537,3.9007,3.8545,3.7834,3.6626,3.4543,3.3464,3.1717,2.9204,2.8466,2.7491,2.6237,2.6572,2.6562,2.6197,2.5275,2.3962,2.2257,2.1853,2.0939,1.9509,1.6394,1.3971,2.2106,2.1781,2.1385,2.1869,0.0,0.0,2.2592,2.3431,2.4265,2.473,2.5134,2.5587,2.606,2.5939,2.5889,2.617,2.7241,2.7817,2.727,2.8083,2.8592,2.8218,2.8517,2.8861,2.9146,2.9175,2.928,2.9564,2.9924,3.0223,3.0492,3.0881,3.124,3.1467,3.2168,3.2512,3.2512,3.3155,3.3365,3.3095,3.3754,3.3918,3.3694,3.4637,3.507,3.51,3.5385,3.5504,3.5504,3.5504,3.5729,3.6043,3.5654,3.6522,3.7943,3.7554,3.8257,3.9604,4.092,4.1384,4.1594,4.291,4.3329,4.325,4.2725,4.274,4.2626,4.124,4.0814,4.054,3.9742,3.9338,3.9235,3.9799,3.993,4.0011,4.0024,3.9524,3.9175,3.9421,3.8197,3.7249,3.7902,3.8002,3.8316,3.922,3.9346,3.9346,3.9346,3.9069,3.8567,3.7751,3.6849,3.5623,3.3709,3.2163,3.0317,2.8317,2.7231,2.6445,2.5762,2.5742,2.543,2.4913,2.4097,2.2767,2.0845,2.0845,1.9448,1.6716,1.4146,1.2143,2.218,2.2003,2.1688,2.1688,2.1738,0.0,2.1705,2.2555,2.3393,2.3393,2.403,2.459,2.4656,2.4749,2.4996,2.5759,2.6468,2.6891,2.6602,2.7135,2.7575,2.7465,2.74,2.767,2.8411,2.8419,2.8652,2.931,2.9522,2.9883,3.0462,3.0548,3.0878,3.1452,3.2093,3.2407,3.2407,3.2976,3.2976,3.2422,3.3066,3.308,3.2557,3.3873,3.4472,3.4517,3.5205,3.5504,3.5504,3.5504,3.5504,3.5504,3.5504,3.6282,3.7404,3.7404,3.8257,3.9589,4.0846,4.1265,4.1489,4.2791,4.313,4.2797,4.1903,4.1808,4.1782,4.0124,3.8827,3.7678,3.6628,3.715,3.7808,3.7248,3.7908,3.8652,3.8779,3.8329,3.8165,3.8831,3.8442,3.8027,3.809,3.8103,3.8304,3.8881,3.8956,3.8944,3.8881,3.8818,3.8366,3.7299,3.599,3.434,3.2476,3.0701,2.8961,2.7143,2.6621,2.6191,2.5752,2.5742,2.5118,2.3692,2.3384,2.1963,1.9428,1.9206,1.7001,1.2807,1.1189,0.9593,2.2282,2.2237,2.2163,2.2163,2.2618,0.0,2.2298,2.2794,2.3393,2.3393,2.3523,2.3832,2.4421,2.4199,2.4172,2.4925,2.5287,2.574,2.6363,2.7057,2.7288,2.6704,2.6257,2.6419,2.7547,2.7255,2.726,2.797,2.8941,2.9816,3.0432,3.0943,3.1317,3.1509,3.1601,3.1676,3.1676,3.1795,3.1795,3.1676,3.2392,3.2647,3.2557,3.3873,3.4472,3.4517,3.5205,3.5504,3.5504,3.5504,3.5504,3.5504,3.5504,3.6282,3.7404,3.7404,3.8257,3.9529,4.0322,4.0591,4.0801,4.2117,4.1942,4.1184,4.1526,4.1001,4.0124,3.8854,3.7586,3.6722,3.6452,3.6534,3.6747,3.6578,3.6698,3.714,3.8019,3.7728,3.7805,3.9295,3.8705,3.8153,3.8617,3.8693,3.8894,3.9446,3.9534,3.9371,3.8931,3.8467,3.7927,3.7262,3.5576,3.3977,3.2443,3.0701,2.8961,2.7143,2.6621,2.6191,2.5752,2.5742,2.5118,2.3692,2.1558,1.9627,1.7996,1.6804,1.5036,1.2812,1.1326,0.9705,2.2412,2.231,2.2395,2.2767,2.2852,0.0,0.0,2.2852,2.297,2.3325,2.3105,2.3071,2.3816,2.3432,2.3362,2.4463,2.4728,2.5118,2.6046,2.6361,2.6209,2.5575,2.5499,2.5636,2.5956,2.629,2.6682,2.707,2.8262,2.9173,2.9544,3.0127,3.0486,3.0537,3.0552,3.0717,3.1016,3.1016,3.1195,3.1482,3.1869,3.2018,3.2078,3.338,3.3978,3.4038,3.5055,3.5504,3.5504,3.5504,3.5504,3.5504,3.5504,3.6088,3.6941,3.6941,3.7778,3.9005,3.9679,4.0127,4.0561,4.1549,4.1327,4.0545,4.0335,3.9275,3.8096,3.7764,3.7019,3.6358,3.6358,3.6358,3.6358,3.6358,3.6358,3.6584,3.7472,3.7417,3.7481,3.8667,3.8417,3.8229,3.8793,3.8868,3.8868,3.8856,3.8856,3.8655,3.8103,3.7776,3.718,3.5929,3.432,3.2755,3.1429,2.9703,2.8267,2.7041,2.6621,2.6191,2.5752,2.502,2.3692,2.1659,1.9627,1.8227,1.7368,1.5223,1.3766,1.2705,1.0455,0.8877,2.2682,2.2733,2.3021,2.3325,2.3173,2.2987,0.0,0.0,0.0,2.3088,2.2716,2.2496,2.3071,2.2699,2.275,2.4052,2.4303,2.4603,2.5438,2.5166,2.4875,2.4869,2.4898,2.4921,2.4856,2.5608,2.6241,2.6509,2.7626,2.8336,2.8559,2.9173,2.9506,2.9619,2.9579,2.9879,3.0492,3.0507,3.0851,3.1482,3.1482,3.1482,3.1511,3.2766,3.338,3.3559,3.4771,3.5385,3.5504,3.5504,3.5504,3.5504,3.5504,3.5908,3.6492,3.6492,3.721,3.8302,3.8975,3.9574,4.0142,4.0935,4.0788,4.0077,3.8827,3.7481,3.6458,3.6897,3.6887,3.6722,3.6452,3.6534,3.6709,3.6709,3.6534,3.6641,3.7333,3.7302,3.7267,3.7855,3.7889,3.7979,3.8642,3.8705,3.8542,3.8078,3.8002,3.7814,3.7262,3.698,3.6161,3.4531,3.2955,3.1531,3.0421,2.8709,2.748,2.7041,2.6621,2.6191,2.5752,2.4196,2.2165,1.9627,1.8297,1.733,1.6832,1.4244,1.2858,1.2639,0.9493,0.8069,2.3291,2.4239,2.4932,2.3714,2.4323,2.4746,2.2868,0.0,2.3105,2.2547,0.0,2.2344,2.2412,0.0,0.0,2.3393,2.3511,2.3631,2.3935,2.3408,2.3718,2.5628,2.4312,2.3893,2.5508,2.532,2.5456,2.6348,2.7005,2.7661,2.8365,2.911,2.9506,2.9619,2.9579,2.9879,3.0492,3.0507,3.0851,3.1482,3.1482,3.1482,3.1497,3.2287,3.2946,3.3529,3.4277,3.4936,3.5504,3.5504,3.5504,3.5504,3.5504,3.5908,3.6492,3.6492,3.6926,3.7614,3.8272,3.8556,3.8826,4.0098,3.9859,3.88,3.7169,3.6577,3.637,3.6433,3.7201,3.7678,3.6628,3.715,3.7939,3.7939,3.715,3.683,3.8411,3.7495,3.6811,3.7787,3.7602,3.743,3.804,3.8103,3.809,3.8015,3.8002,3.7814,3.7262,3.6149,3.5131,3.4433,3.2039,3.0525,3.0317,2.8709,2.748,2.7041,2.6621,2.6191,2.5752,2.3276,2.1143,1.9627,1.8297,1.6905,1.5469,1.3675,1.2735,1.2419,0.9568,0.817,2.3511,2.4154,2.4915,2.4729,2.4628,2.4499,2.3984,2.3402,2.3052,2.3196,0.0,0.0,0.0,0.0,0.0,0.0,2.3038,2.3097,2.4024,2.3173,2.2787,2.3564,2.3156,2.3274,2.4457,2.4595,2.476,2.5141,2.6093,2.7015,2.7814,2.8481,2.8826,2.8981,2.8604,2.8906,2.9968,2.9968,3.0492,3.1482,3.1482,3.1482,3.1497,3.2213,3.2871,3.3529,3.4188,3.4861,3.5504,3.5504,3.5504,3.5504,3.5504,3.5669,3.5923,3.5923,3.6327,3.6971,3.7599,3.8063,3.8374,3.8438,3.8383,3.8038,3.6416,3.6107,3.6358,3.6358,3.7243,3.803,3.7494,3.8302,3.9183,3.9183,3.8209,3.7546,3.8298,3.733,3.6515,3.6975,3.6912,3.6847,3.7023,3.7312,3.7425,3.7098,3.6442,3.5868,3.5637,3.4374,3.3172,3.2162,3.103,3.0016,2.9207,2.8433,2.7744,2.7051,2.5648,2.4072,2.2274,2.1049,1.9736,1.8245,1.6892,1.5737,1.469,1.2456,1.1299,1.1005,0.9029,0.8102,2.4154,2.4678,2.5454,2.5717,2.5283,2.4878,2.4999,2.4398,2.3798,2.3781,2.3562,0.0,0.0,0.0,2.3004,2.3342,0.0,2.2902,2.3765,2.2987,2.24,2.2655,2.2814,2.3023,2.3375,2.3677,2.4008,2.4398,2.5336,2.627,2.7292,2.7953,2.8281,2.8217,2.7951,2.8495,2.9856,2.9672,3.0258,3.1524,3.1492,3.1377,3.127,3.1943,3.2602,3.326,3.3918,3.4592,3.5235,3.5429,3.5504,3.5504,3.5504,3.5504,3.5504,3.5504,3.5923,3.6582,3.7195,3.7958,3.8468,3.7442,3.7497,3.7626,3.598,3.5931,3.6452,3.6803,3.7678,3.8559,3.8559,3.9271,3.9899,3.9899,3.872,3.7678,3.7989,3.7207,3.6358,3.6358,3.6358,3.6358,3.6358,3.6684,3.6764,3.6118,3.5066,3.4382,3.4146,3.2712,3.1472,3.06,3.0088,2.9357,2.8231,2.8125,2.7639,2.6356,2.4272,2.2064,1.9731,1.9627,1.8868,1.7257,1.589,1.4686,1.3766,1.1468,1.0075,0.941,0.8432,0.8038,2.5541,2.6607,2.7436,2.6419,2.6697,2.6801,2.542,2.5895,2.6047,2.3869,2.4883,2.5611,2.3735,2.3951,2.4188,2.3511,2.3376,0.0,0.0,2.2344,2.2835,2.4242,2.3786,2.3197,2.27,2.2462,2.304,2.4656,2.4767,2.5386,2.6864,2.7807,2.8044,2.7458,2.8123,2.9162,3.0545,2.991,3.0273,3.1626,3.155,3.118,3.0552,3.1255,3.1928,3.2587,3.3245,3.3903,3.4562,3.5235,3.5504,3.5504,3.5504,3.5504,3.5504,3.5504,3.5923,3.6582,3.7195,3.8272,3.9106,3.7597,3.7483,3.7578,3.6005,3.5931,3.6628,3.7756,3.8917,3.9812,3.9812,3.9899,3.9899,3.9899,3.8134,3.6752,3.7896,3.7206,3.6358,3.6358,3.6358,3.6358,3.6358,3.637,3.6152,3.5151,3.4706,3.4223,3.3735,3.1693,3.0485,3.0947,2.9363,2.8231,2.7725,2.7685,2.6768,2.4545,2.2773,2.1143,1.9627,1.9627,1.8868,1.7257,1.589,1.4282,1.2479,1.1075,0.9578,0.8038,0.8038,0.8038,2.5473,2.6319,2.6979,2.6635,2.6533,2.6238,2.5276,2.5721,2.5825,2.4098,2.4482,2.491,2.4265,2.3528,2.3122,2.3359,2.2987,2.2598,0.0,2.231,2.2496,2.2987,2.3241,2.3131,2.2467,2.2666,2.3044,2.3549,2.4068,2.4975,2.6451,2.7048,2.7745,2.8575,2.8443,2.8841,2.9844,2.9638,2.9785,3.0273,3.0648,3.0731,3.0522,3.121,3.2138,3.317,3.3395,3.4128,3.5175,3.5415,3.5504,3.5504,3.5504,3.5504,3.5504,3.5504,3.5923,3.6641,3.7689,3.8661,3.9222,3.7997,3.7746,3.7811,3.7308,3.7355,3.7769,3.8917,4.0131,4.0831,4.0073,4.049,4.0831,4.0073,3.8662,3.7652,3.8028,3.7191,3.6358,3.6358,3.6358,3.6358,3.6358,3.5667,3.4969,3.4631,3.3726,3.2667,3.1564,3.0003,2.9066,2.9216,2.869,2.8125,2.7695,2.6276,2.4351,2.1796,2.0837,1.9723,1.8297,1.8109,1.723,1.5611,1.4112,1.2561,1.078,0.9498,0.8482,0.8038,0.8038,0.7537,2.5795,2.6539,2.7131,2.7282,2.7308,2.7137,2.639,2.6896,2.7048,2.5257,2.5446,2.578,2.5368,2.4289,2.3545,2.3748,2.3173,2.2598,0.0,2.231,2.231,2.231,2.2733,2.2936,2.2716,2.276,2.3128,2.386,2.4158,2.4928,2.6384,2.6937,2.7706,2.8794,2.8688,2.9111,3.0149,2.9949,3.0107,3.0643,3.0803,3.0844,3.091,3.1564,3.2347,3.3155,3.3395,3.4128,3.513,3.513,3.528,3.5504,3.5504,3.5504,3.5504,3.5504,3.6058,3.6971,3.8018,3.8841,3.922,3.7868,3.794,3.8477,3.8104,3.8406,3.8917,3.9724,4.0404,4.0831,4.0073,4.0131,4.0204,3.9434,3.8392,3.7494,3.7494,3.6883,3.6358,3.6358,3.6358,3.6275,3.5729,3.5005,3.4272,3.3923,3.2611,3.1251,3.0144,2.8993,2.835,2.8496,2.793,2.7059,2.6064,2.3894,2.1895,2.0151,1.9338,1.8457,1.7539,1.7248,1.6427,1.4789,1.3238,1.1649,1.0092,0.8681,0.8038,0.8038,0.8038,0.7235]},{"header":{"parameterUnit":"m.s-1","parameterCategory":1,"la1":30.6,"la2":29.2853,"lo1":-89.7004,"lo2":-87.6739,"dy":0.0162,"dx":0.0183,"nx":112,"ny":82,"refTime":"2023-09-26T12:00:00:Z","depth":0,"parameterNumber":3,"parameterNumberName":"V-component_of_WINDS"},"data":[0.0,0.0,0.0,0.0,0.0,0.0,0.0,0.0,0.0,0.0,0.0,0.0,0.0,0.0,0.0,0.0,0.0,0.0,0.0,0.0,0.0,0.0,0.0,0.0,0.0,0.0,0.0,0.0,0.0,0.0,0.0,0.0,0.0,0.0,0.0,0.0,0.0,0.0,0.0,0.0,0.0,0.0,0.0,0.0,0.0,0.0,0.0,0.0,0.0,0.0,0.0,0.0,0.0,0.0,0.0,0.0,0.0,0.0,0.0,0.0,0.0,0.0,0.0,0.0,0.0,0.0,0.0,0.0,0.0,0.0,0.0,0.0,0.0,0.0,0.0,0.0,0.0,0.0,0.0,0.0,0.0,0.0,0.0,0.0,0.0,0.0,0.0,0.0,0.0,0.0,1.1484,1.2637,1.5155,1.6654,1.6382,1.7073,1.702,1.5672,0.0,0.0,0.0,0.0,0.0,0.0,0.0,0.0,0.0,0.0,0.0,0.0,0.0,0.0,0.0,0.0,0.0,0.0,0.0,0.0,0.0,0.0,0.0,0.0,0.0,0.0,0.0,0.0,0.0,0.0,0.0,0.0,0.0,0.0,0.0,0.0,0.0,0.0,0.0,0.0,0.0,0.0,0.0,0.0,0.0,0.0,0.0,0.0,0.0,0.0,0.0,0.0,0.0,0.0,0.0,0.0,0.0,0.0,0.0,0.0,0.0,0.0,0.0,0.0,0.0,0.0,0.0,0.0,0.0,0.0,0.0,0.0,0.0,0.0,0.0,0.0,0.0,0.0,0.0,0.0,0.0,0.0,0.0,0.0,0.0,0.0,0.0,0.0,0.0,0.0,0.0,0.0,0.0,0.0,0.0,0.0,0.0,0.0,0.0,0.0,0.0,0.0,0.0,0.0,1.296,1.5717,1.7072,1.774,1.7534,1.744,1.7222,1.6865,0.0,0.0,0.0,0.0,0.0,0.0,0.0,0.0,0.0,0.0,0.0,0.0,0.0,0.0,0.0,0.0,0.0,0.0,0.0,0.0,0.0,0.0,0.0,0.0,0.0,0.0,0.0,0.0,0.0,0.0,0.0,0.0,0.0,0.0,0.0,0.0,0.0,0.0,0.0,0.0,0.0,0.0,0.0,0.0,0.0,0.0,0.0,0.0,0.0,0.0,0.0,0.0,0.0,0.0,0.0,0.0,0.0,0.0,0.0,0.0,0.0,0.0,0.0,0.0,0.0,0.0,0.0,0.0,0.0,0.0,0.0,0.0,0.0,0.0,0.0,0.0,0.0,0.0,0.0,0.0,0.0,0.0,0.0,0.0,0.0,0.0,0.0,0.0,0.0,0.0,0.0,0.0,0.0,0.0,0.0,0.0,0.0,0.0,0.0,0.0,0.0,0.0,0.0,1.1793,1.3508,1.6108,1.6934,1.7362,1.7428,1.7129,1.6969,1.7107,1.6587,0.0,0.0,0.0,0.0,0.0,0.0,0.0,0.0,0.0,0.0,0.0,0.0,0.0,0.0,0.0,0.0,0.0,0.0,0.0,0.0,0.0,0.0,0.0,0.0,0.0,0.0,0.0,0.0,0.0,0.0,0.0,0.0,0.0,0.0,0.0,0.0,0.0,0.0,0.0,0.0,0.0,0.0,0.0,0.0,0.0,0.0,0.0,0.0,0.0,0.0,0.0,0.0,0.0,0.0,0.0,0.0,0.0,0.0,0.0,0.0,0.0,0.0,0.0,0.0,0.0,0.0,0.0,0.0,0.0,0.0,0.0,0.0,0.0,0.0,0.0,0.0,0.0,0.0,0.0,0.0,0.0,0.0,0.0,0.0,0.0,0.0,0.0,0.0,0.0,0.0,0.0,0.0,0.0,0.0,0.0,0.0,0.0,0.0,0.0,0.0,0.0,0.0,1.2879,1.3888,1.6198,1.677,1.7133,1.7539,1.7049,1.6866,1.7339,1.6675,0.0,0.0,0.0,0.0,0.0,0.0,0.0,0.0,0.0,0.0,0.0,0.0,0.0,0.0,0.0,0.0,0.0,0.0,0.0,0.0,0.0,0.0,0.0,0.0,0.0,0.0,0.0,0.0,0.0,0.0,0.0,0.0,0.0,0.0,0.0,0.0,0.0,0.0,0.0,0.0,0.0,0.0,0.0,0.0,0.0,0.0,0.0,0.0,0.0,0.0,0.0,0.0,0.0,0.0,0.0,0.0,0.0,0.0,0.0,0.0,0.0,0.0,0.0,0.0,0.0,0.0,0.0,0.0,0.0,0.0,0.0,0.0,0.0,0.0,0.0,0.0,0.0,0.0,0.0,0.0,0.0,0.0,0.0,0.0,0.0,0.0,0.0,0.0,0.0,0.0,0.0,0.0,0.0,0.0,0.0,0.0,0.0,0.0,0.0,0.0,0.0,0.0,1.3341,1.4647,1.7045,1.7559,1.8015,1.8687,1.7588,1.7228,1.8049,1.6616,0.0,0.0,0.0,0.0,0.0,0.0,0.0,0.0,0.0,0.0,0.0,0.0,0.0,0.0,0.0,0.0,0.0,0.0,0.0,0.0,0.0,0.0,0.0,0.0,0.0,0.0,0.0,0.0,0.0,0.0,0.0,0.0,0.0,0.0,0.0,0.0,0.0,0.0,0.0,0.0,0.0,0.0,0.0,0.0,0.0,0.0,0.0,0.0,0.0,0.0,0.0,0.0,0.0,0.0,0.0,0.0,0.0,0.0,0.0,0.0,0.0,0.0,0.0,0.0,0.0,0.0,0.0,0.0,0.0,0.0,0.0,0.0,0.0,0.0,0.0,0.0,0.0,0.0,0.0,0.0,0.0,0.0,0.0,0.0,0.0,0.0,0.0,0.0,0.0,0.0,0.0,0.0,0.0,0.0,0.0,0.0,0.0,0.0,0.0,0.0,0.0,0.0,1.2979,1.4081,1.5965,1.6646,1.7169,1.759,1.7226,1.7243,1.7668,0.0,0.0,0.0,0.0,0.0,0.0,0.0,0.0,0.0,0.0,0.0,0.0,0.0,0.0,0.0,0.0,0.0,0.0,0.0,0.0,0.0,0.0,0.0,0.0,0.0,0.0,0.0,0.0,0.0,0.0,0.0,0.0,0.0,0.0,0.0,0.0,0.0,0.0,0.0,0.0,0.0,0.0,0.0,0.0,0.0,0.0,0.0,0.0,0.0,0.0,0.0,0.0,0.0,0.0,0.0,0.0,0.0,0.0,0.0,0.0,0.0,0.0,0.0,0.0,0.0,0.0,0.0,0.0,0.0,0.0,0.0,0.0,0.0,0.0,0.0,0.0,0.0,0.0,0.0,0.0,0.0,0.0,0.0,0.0,0.0,0.0,0.0,0.0,0.0,0.0,0.0,0.0,0.0,0.0,0.0,0.0,0.0,0.0,0.0,0.0,0.0,0.0,1.2214,1.2977,1.4006,1.5449,1.6347,1.6905,1.7002,1.6945,1.7032,1.7388,0.0,0.0,0.0,0.0,0.0,0.0,0.0,0.0,0.0,0.0,0.0,0.0,0.0,0.0,0.0,0.0,0.0,0.0,0.0,0.0,0.0,0.0,0.0,0.0,0.0,0.0,0.0,0.0,0.0,0.0,0.0,0.0,0.0,0.0,0.0,0.0,0.0,0.0,0.0,0.0,0.0,0.0,0.0,0.0,0.0,0.0,0.0,0.0,0.0,0.0,0.0,0.0,0.0,0.0,0.0,0.0,0.0,0.0,0.0,0.0,0.0,0.0,0.0,0.0,0.0,0.0,0.0,0.0,0.0,0.0,0.0,0.0,0.0,0.0,0.0,0.0,0.0,0.0,0.0,0.0,0.0,0.0,0.0,0.0,0.0,0.0,0.0,0.0,0.0,0.0,0.0,0.0,0.0,0.0,0.0,0.0,0.0,0.0,0.0,0.0,0.0,0.0,1.2924,1.3692,1.4629,1.5978,1.702,1.7567,1.7512,1.6908,1.676,0.0,0.0,0.0,0.0,0.0,0.0,0.0,0.0,0.0,0.0,0.0,0.0,0.0,0.0,0.0,0.0,0.0,0.0,0.0,0.0,0.0,0.0,0.0,0.0,0.0,0.0,0.0,0.0,0.0,0.0,0.0,0.0,0.0,0.0,0.0,0.0,0.0,0.0,0.0,0.0,0.0,0.0,0.0,0.0,0.0,0.0,0.0,0.0,0.0,0.0,0.0,0.0,0.0,0.0,0.0,0.0,0.0,0.0,0.0,0.0,0.0,0.0,0.0,0.0,0.0,0.0,0.0,0.0,0.0,0.0,0.0,0.0,0.0,0.0,0.0,0.0,0.0,0.0,0.0,0.0,0.0,0.0,0.0,0.0,0.0,0.0,0.0,0.0,0.0,0.0,0.0,0.0,0.0,0.0,0.0,0.0,0.0,0.0,0.0,0.0,0.0,0.0,0.0,1.2924,1.3692,1.4676,1.6243,1.6763,1.7078,1.719,1.6767,1.6584,1.676,0.0,0.0,0.0,0.0,0.0,0.0,0.0,0.0,0.0,0.0,0.0,0.0,0.0,0.0,0.0,0.0,0.0,0.0,0.0,0.0,0.0,0.0,0.0,0.0,0.0,0.0,0.0,0.0,0.0,0.0,0.0,0.0,0.0,0.0,0.0,0.0,0.0,0.0,0.0,0.0,0.0,0.0,0.0,0.0,0.0,0.0,0.0,0.0,0.0,0.0,0.0,0.0,0.0,0.0,0.0,0.0,0.0,0.0,0.0,0.0,0.0,0.0,0.0,0.0,0.0,0.0,0.0,0.0,0.0,0.0,0.0,0.0,0.0,0.0,0.0,0.0,0.0,0.0,0.0,0.0,0.0,0.0,0.0,0.0,0.0,0.0,0.0,0.0,0.0,0.0,0.0,0.0,0.0,0.0,0.0,0.0,0.0,0.0,0.0,0.0,0.0,0.0,1.331,1.3853,1.4602,1.6026,1.6548,1.6768,1.6775,1.661,1.6522,1.6522,0.0,0.0,0.0,0.0,0.0,0.0,0.0,0.0,0.0,0.0,0.0,0.0,0.0,0.0,0.0,0.0,0.0,0.0,0.0,0.0,0.0,0.0,0.0,0.0,0.0,0.0,0.0,0.0,0.0,0.0,0.0,0.0,0.0,0.0,0.0,0.0,0.0,0.0,0.0,0.0,0.0,0.0,0.0,0.0,0.0,0.0,0.0,0.0,0.0,0.0,0.0,0.0,0.0,0.0,0.0,0.0,0.0,0.0,0.0,0.0,0.0,0.0,0.0,0.0,0.0,0.0,0.0,0.0,0.0,0.0,0.0,0.0,0.0,0.0,0.0,0.0,0.0,0.0,0.0,0.0,0.0,0.0,0.0,0.0,0.0,0.0,0.0,0.0,0.0,0.0,0.0,0.0,0.0,0.0,0.0,0.0,0.0,0.0,0.0,0.0,0.0,0.0,1.3975,1.4214,1.463,1.5758,1.6503,1.678,1.6492,1.6507,1.6522,1.6522,0.0,0.0,0.0,0.0,0.0,0.0,0.0,0.0,0.0,0.0,0.0,0.0,0.0,0.0,0.0,0.0,0.0,0.0,0.0,0.0,0.0,0.0,0.0,0.0,0.0,0.0,0.0,0.0,0.0,0.0,0.0,0.0,0.0,0.0,0.0,0.0,0.0,0.0,0.0,0.0,0.0,0.0,0.0,0.0,0.0,0.0,0.0,0.0,0.0,0.0,0.0,0.0,0.0,0.0,0.0,0.0,0.0,0.0,0.0,0.0,1.2978,1.2822,0.0,0.0,0.0,0.0,0.0,0.0,0.0,0.0,0.0,0.0,0.0,0.0,0.0,0.0,0.0,0.0,0.0,0.0,0.0,0.0,0.0,0.0,0.0,0.0,0.0,0.0,0.0,0.0,0.0,0.0,0.0,0.0,0.0,0.0,0.0,0.0,0.0,0.0,0.0,0.0,1.4421,1.4854,1.5564,1.706,1.75,1.7692,1.7782,1.701,1.6522,1.6522,1.6007,0.0,0.0,0.0,0.0,0.0,0.0,0.0,0.0,0.0,0.0,0.0,0.0,0.0,0.0,0.0,0.0,0.0,0.0,0.0,0.0,0.0,0.0,0.0,0.0,0.0,0.0,0.0,0.0,0.0,0.0,0.0,0.0,0.0,0.0,0.0,0.0,0.0,0.0,0.0,0.0,0.0,0.0,0.0,0.0,0.0,0.0,0.0,0.0,0.0,0.0,0.0,0.0,0.0,0.0,0.0,0.0,0.0,0.0,0.0,1.3453,1.3221,0.0,0.0,0.0,0.0,0.0,0.0,0.0,0.0,0.0,0.0,0.0,0.0,0.0,0.0,0.0,0.0,0.0,0.0,0.0,0.0,0.0,0.0,0.0,0.0,0.0,0.0,0.0,0.0,0.0,0.0,0.0,0.0,0.0,0.0,0.0,0.0,0.0,0.0,0.0,0.0,1.4642,1.5205,1.5881,1.6735,1.7259,1.746,1.7405,1.6861,1.6522,1.6522,1.6245,0.0,0.0,0.0,0.0,0.0,0.0,0.0,0.0,0.0,0.0,0.0,0.0,0.0,0.0,0.0,0.0,0.0,0.0,0.0,0.0,0.0,0.0,0.0,0.0,0.0,0.0,0.0,0.0,0.0,0.0,0.0,0.0,0.0,0.0,0.0,0.0,0.0,0.0,0.0,0.0,0.0,0.0,0.0,0.0,0.0,0.0,0.0,0.0,0.0,0.0,0.0,0.0,0.0,1.6253,1.6329,1.5643,1.579,1.5494,1.4716,1.4223,1.3912,1.3758,1.3183,0.0,0.0,0.0,0.0,0.0,0.0,0.0,0.0,0.0,0.0,0.0,0.0,0.0,0.0,0.0,0.0,0.0,0.0,0.0,0.0,0.0,0.0,1.4878,1.5247,1.5792,1.594,1.4909,0.0,0.0,0.0,0.0,0.0,0.0,0.0,0.0,0.0,0.0,0.0,1.4949,1.5628,1.6191,1.6445,1.712,1.7399,1.6948,1.6873,1.6773,1.6672,1.6572,1.6522,0.0,0.0,0.0,0.0,0.0,0.0,0.0,0.0,0.0,0.0,0.0,0.0,0.0,0.0,0.0,0.0,0.0,0.0,0.0,0.0,0.0,0.0,0.0,0.0,0.0,0.0,0.0,0.0,0.0,0.0,0.0,0.0,1.2062,1.2812,0.0,0.0,0.0,0.0,0.0,0.0,0.0,0.0,0.0,0.0,0.0,0.0,0.0,1.4458,1.5179,1.4562,1.4622,1.5449,1.7755,1.8021,1.6524,1.7303,1.7629,1.7378,1.5833,0.0,1.5037,1.351,0.0,0.0,0.0,0.0,0.0,0.0,0.0,0.0,0.0,0.0,0.0,0.0,0.0,0.0,0.0,0.0,0.0,0.0,0.0,0.0,0.0,0.0,1.6988,1.714,1.7044,1.6884,1.7038,1.6583,1.5851,1.4998,1.4873,1.4912,0.0,0.0,0.0,0.0,0.0,0.0,1.5662,1.6374,1.7251,1.8254,1.8995,1.9233,1.8695,1.8254,1.7777,1.73,1.6798,1.6522,1.6522,1.7074,0.0,0.0,0.0,0.0,0.0,0.0,0.0,0.0,0.0,0.0,0.0,0.0,0.0,0.0,0.0,0.0,0.0,0.0,0.0,0.0,0.0,0.0,0.0,0.0,0.0,0.0,0.0,0.0,0.0,1.3419,1.3705,1.3906,1.3926,1.3659,0.0,0.0,0.0,0.0,0.0,0.0,0.0,0.0,0.0,1.3629,1.5807,1.7422,1.8345,1.6991,1.6753,1.7579,1.9269,1.9665,1.8861,1.9316,2.001,2.085,2.0093,1.9736,1.9534,1.6892,1.5196,1.4373,0.0,0.0,0.0,0.0,1.5938,1.5816,1.7037,1.6899,1.6383,1.7358,0.0,0.0,0.0,0.0,0.0,0.0,0.0,1.5889,1.6243,1.7206,1.8046,1.8097,1.8207,1.8261,1.8122,1.782,1.7109,1.5762,1.5703,1.5801,1.5547,1.5107,0.0,0.0,0.0,1.6113,1.6765,1.7784,1.8424,1.827,1.8929,1.9145,1.8606,1.8053,1.7639,1.74,1.6835,1.6522,1.6522,1.7375,1.784,0.0,0.0,0.0,0.0,0.0,0.0,0.0,0.0,0.0,0.0,0.0,0.0,0.0,0.0,0.0,0.0,0.0,0.0,0.0,0.0,0.0,0.0,0.0,0.0,0.0,0.0,0.0,0.0,1.4642,1.5381,1.4786,1.5299,1.5088,0.0,0.0,0.0,0.0,0.0,0.0,1.8508,1.803,1.6934,1.5154,1.7824,1.993,2.1199,1.9932,1.9639,2.0261,2.0912,2.1245,2.1212,2.121,2.1884,2.3106,2.3106,2.3091,2.2869,1.9895,1.8136,1.7387,1.787,1.8319,1.8596,1.8323,1.8075,1.7987,1.8945,1.9214,1.9228,1.9658,1.9487,1.8724,1.6788,0.0,0.0,0.0,0.0,1.7263,1.8133,1.8932,1.9441,1.9332,1.9561,1.971,1.9382,1.901,1.833,1.6709,1.6582,1.6621,1.6289,1.5615,0.0,1.655,1.6916,1.7291,1.8056,1.8998,1.9335,1.8702,1.8981,1.9058,1.8643,1.8116,1.7802,1.7802,1.7137,1.6798,1.6936,1.7626,1.8129,1.8405,0.0,0.0,0.0,0.0,0.0,0.0,0.0,0.0,0.0,0.0,0.0,0.0,0.0,0.0,0.0,0.0,0.0,0.0,0.0,0.0,0.0,0.0,0.0,0.0,0.0,0.0,0.0,0.0,0.0,1.4834,1.6898,0.0,0.0,0.0,0.0,1.2896,1.8669,2.2627,2.351,2.2389,2.0493,1.7905,1.8802,2.0497,2.2991,2.2853,2.2868,2.2879,2.2909,2.2938,2.296,2.2972,2.3021,2.3096,2.3096,2.3083,2.2988,2.1201,2.136,2.2713,2.2722,2.181,2.0493,2.0441,2.0122,1.9674,1.9137,1.9354,2.0041,2.0938,2.0944,2.0371,1.9798,1.9005,0.0,0.0,1.9058,1.9623,1.9326,2.0548,2.1742,2.1324,2.1314,2.1314,2.1293,2.0171,1.8867,1.7568,1.7002,1.6665,1.6636,0.0,1.6357,1.7238,1.7687,1.8344,1.9424,1.9622,1.9854,2.0469,2.0087,1.9748,1.9723,1.9246,1.8895,1.8895,1.7928,1.7576,1.8091,1.7664,1.7915,1.897,1.8983,0.0,0.0,0.0,0.0,0.0,0.0,0.0,0.0,0.0,0.0,0.0,0.0,0.0,0.0,0.0,0.0,0.0,0.0,0.0,0.0,0.0,0.0,0.0,0.0,0.0,0.0,0.0,0.0,1.8491,1.9998,0.0,1.7211,1.6573,1.8416,2.3368,2.5253,2.5983,2.571,2.4696,2.3616,2.2692,2.2043,2.3541,2.7406,2.7417,2.7405,2.7355,2.4493,2.4598,2.7286,2.4395,2.3071,2.3125,2.3073,2.313,2.3132,2.3689,2.3598,2.3106,2.2683,2.2104,2.1511,2.1699,2.1676,2.1419,2.1578,2.1768,2.1841,2.138,2.0761,2.0068,1.9639,1.9492,1.9512,1.9795,2.0312,2.0938,2.1808,2.2455,2.2966,2.2797,2.2755,2.2449,2.1504,2.0868,2.0322,1.957,1.8418,1.7559,1.7559,1.7201,1.7266,1.8327,1.9188,1.9948,2.0748,2.1144,2.1287,2.123,2.069,2.0351,2.0351,1.9535,1.8983,1.8983,1.799,1.7626,1.8179,1.8016,1.8267,1.902,1.9359,1.9623,0.0,0.0,0.0,0.0,0.0,0.0,0.0,0.0,0.0,0.0,0.0,0.0,0.0,0.0,0.0,0.0,0.0,0.0,0.0,0.0,0.0,0.0,0.0,0.0,0.0,1.8236,1.9901,2.1081,2.2523,2.2602,2.0452,2.0026,2.2648,2.9282,2.9133,2.8421,2.7754,2.7124,2.6784,2.6748,2.5876,2.6792,2.9752,2.9764,2.9837,2.9782,2.6809,2.6096,2.7406,2.4461,2.389,2.528,2.3796,2.3441,2.4015,2.4934,2.4571,2.3533,2.3302,2.2886,2.2578,2.2998,2.2969,2.2862,2.3252,2.3262,2.2998,2.2158,2.1387,2.0742,2.0459,2.0566,2.085,2.1143,2.1543,2.2142,2.3379,2.3966,2.4084,2.3615,2.3732,2.3499,2.1818,2.1455,2.1399,2.132,1.9841,1.8723,1.9054,1.8781,1.91,2.0643,2.1289,2.1874,2.279,2.2711,2.2447,2.2083,2.1217,2.0718,2.0718,1.9999,1.9497,1.9296,1.8606,1.8367,1.8731,1.8581,1.8731,1.9284,1.9823,2.0188,2.0363,0.0,0.0,0.0,0.0,0.0,0.0,0.0,0.0,0.0,0.0,0.0,0.0,0.0,0.0,0.0,0.0,0.0,0.0,0.0,0.0,0.0,0.0,0.0,1.7375,2.0203,2.2287,2.2464,2.4368,2.5363,2.4532,2.3692,2.5105,2.9438,2.981,2.9809,2.9832,2.977,2.9799,2.9831,2.9764,2.9739,2.961,2.9751,2.9812,2.984,2.9646,2.7383,2.3329,2.3146,2.5449,2.9397,2.5107,2.422,2.5518,2.4745,2.4433,2.4443,2.4769,2.4401,2.3838,2.4228,2.4121,2.3769,2.3769,2.3496,2.3135,2.3135,2.2861,2.2529,2.2529,2.2529,2.2529,2.2529,2.2822,2.3288,2.4013,2.4935,2.53,2.3881,2.4331,2.4489,2.2379,2.1987,2.2086,2.2621,2.1288,2.0327,2.1293,2.1121,2.1669,2.3928,2.3879,0.0,2.5432,2.4155,2.3103,2.3128,2.1719,2.0794,2.0794,2.0769,2.0451,1.9861,1.9798,1.9786,1.9798,1.9296,1.9284,1.9823,2.0401,2.0953,2.1493,0.0,0.0,0.0,0.0,0.0,0.0,0.0,0.0,0.0,0.0,0.0,0.0,0.0,0.0,0.0,0.0,0.0,0.0,0.0,0.0,0.0,1.9566,2.0831,2.0831,2.2306,2.4047,2.572,2.6804,2.7427,2.7487,2.7011,2.7592,2.9641,2.9819,2.9796,2.9807,2.9819,2.9842,2.9786,2.9786,2.8234,2.496,2.8203,2.9836,2.9779,2.6504,2.6001,2.7849,2.4587,2.379,2.5067,2.7051,2.6423,2.3871,2.4908,2.5145,2.4701,2.431,2.4016,2.3889,2.3574,2.3418,2.332,2.332,2.3242,2.3135,2.3135,2.3057,2.2969,2.2969,2.2969,2.2969,2.2969,2.3047,2.3357,2.4397,2.5435,2.5991,2.4775,2.5322,2.5409,2.2888,2.2975,2.3474,2.3318,2.3495,2.346,2.2628,2.2672,2.3001,2.3613,2.414,2.4598,2.4956,2.4293,2.3916,2.4318,2.3226,2.246,2.246,2.1719,2.1029,2.0464,1.9685,1.9409,1.9786,1.9296,1.9472,2.0401,2.0978,2.1343,0.0,0.0,0.0,0.0,0.0,0.0,0.0,0.0,0.0,0.0,0.0,0.0,0.0,0.0,0.0,0.0,0.0,0.0,0.0,0.0,0.0,0.0,2.1994,2.3612,2.4521,2.5265,2.6255,2.7761,2.8473,2.89,2.9139,2.8975,2.9098,2.9777,2.9829,2.9777,2.9836,2.977,2.977,2.977,2.9806,2.8515,2.5905,2.8537,3.0281,3.1098,2.7583,2.626,2.6954,2.503,2.3791,2.3252,2.6668,2.6578,2.4229,2.5263,2.5549,2.5178,0.0,0.0,0.0,0.0,2.3564,2.3408,2.3408,2.3291,2.3135,2.3135,2.3135,2.3135,2.3135,2.3135,2.3222,2.3714,2.38,2.4211,2.5786,2.6696,2.6871,2.5797,2.6058,2.5898,2.3893,2.399,2.4583,2.4977,2.561,0.0,2.5168,2.4933,2.5025,2.5688,2.5785,2.5937,2.6163,2.531,2.4707,2.4808,2.3816,2.2977,2.2811,2.2196,0.0,0.0,0.0,2.0439,2.0501,2.0213,0.0,0.0,0.0,2.1945,2.2184,2.2184,0.0,0.0,2.2349,2.239,0.0,0.0,0.0,0.0,0.0,0.0,0.0,0.0,0.0,0.0,0.0,0.0,0.0,0.0,0.0,0.0,2.4199,2.6013,2.8097,2.8436,2.8637,2.9063,2.9566,2.9939,2.988,2.9949,2.9907,2.9809,3.0044,3.0093,2.9776,2.9788,0.0,0.0,0.0,3.0179,3.0168,3.0216,3.0862,3.2216,3.0319,2.7238,2.3502,2.555,2.5375,2.3497,2.5017,2.5664,2.5724,2.5734,2.5651,2.5723,2.5528,2.5303,2.4873,2.4434,2.4043,2.3721,2.3721,0.0,0.0,2.3135,2.3135,2.3135,2.3135,2.3222,2.3464,2.4542,2.4872,2.5452,2.7429,2.8016,2.7844,2.6719,2.6554,2.6389,2.521,2.5115,2.5572,2.7085,2.7484,2.7738,2.8225,2.7471,2.7233,2.86,2.7996,2.7532,2.7959,2.6653,2.5523,2.5059,2.3991,0.0,2.2636,2.2472,2.2171,2.1619,2.1983,2.1995,2.1506,2.1543,2.1807,2.2297,2.2372,2.2648,2.3078,2.3078,2.3163,2.3308,2.2959,2.3054,0.0,0.0,0.0,0.0,0.0,0.0,0.0,0.0,0.0,0.0,0.0,0.0,0.0,0.0,0.0,2.5741,2.7335,2.8599,2.9942,3.0495,3.0633,3.0331,3.0382,3.0528,3.0648,3.0914,3.0721,2.9845,3.1474,3.1672,2.9866,2.9772,3.058,3.238,3.2452,3.249,3.2495,3.2421,3.0685,2.7149,2.6672,0.0,2.5381,2.9725,2.9316,2.5215,2.5526,2.5674,2.574,2.5712,2.5674,2.5567,2.4704,2.4181,2.3984,2.3545,2.334,2.3262,2.3262,2.3213,2.3135,2.3135,2.3135,2.3135,2.3135,2.3714,0.0,2.4702,2.5462,2.6307,2.6719,2.7452,2.7844,2.6719,2.7116,2.7522,2.6389,2.686,2.7567,2.7873,2.8699,2.9347,2.9478,2.855,2.7902,2.8247,2.8084,2.7821,2.7494,2.6766,2.6319,2.6151,2.5159,2.4456,2.4343,2.3502,2.2736,2.2184,2.1832,2.1606,2.1493,2.192,2.2196,2.2309,2.2749,2.3025,2.3078,2.3078,2.3701,2.4807,2.4253,2.4002,0.0,0.0,0.0,0.0,0.0,0.0,0.0,0.0,0.0,0.0,0.0,1.9447,2.0156,0.0,2.3526,2.6456,2.8286,2.9696,3.0871,3.0792,3.0624,3.0566,3.0703,3.0829,3.1075,3.0785,3.038,2.9822,3.1871,3.2632,3.1497,3.1415,3.1946,3.3078,3.3091,3.3097,3.3097,3.3095,3.1843,2.9393,2.736,2.6154,2.5737,2.8232,2.8017,2.5684,2.574,2.5664,2.5672,2.5703,2.5742,2.5664,2.4876,2.4497,2.4404,2.4189,2.3965,2.3779,2.3779,2.3779,2.3779,2.3779,2.4207,2.472,2.472,2.5322,2.6157,2.6724,2.7053,2.7452,2.7959,2.8542,2.8688,2.7533,2.7683,2.7924,2.7441,2.7683,2.8255,2.8858,2.9443,2.9792,2.9792,2.9327,2.895,2.895,2.8699,2.8411,2.8147,2.7381,2.6766,2.6559,2.5711,2.5109,2.4845,2.4305,2.3866,2.359,2.305,2.2749,2.2749,2.2736,2.2862,2.315,2.3427,2.3703,2.3979,2.3979,2.4528,2.5667,2.5746,2.5949,0.0,0.0,0.0,0.0,0.0,0.0,0.0,1.9758,1.9733,2.1068,2.1629,2.194,2.2419,2.3375,2.4818,2.7095,2.8919,3.0512,3.1606,3.0964,3.054,3.0723,3.0891,3.1208,3.1645,3.0922,3.0443,3.0443,3.2114,3.3091,3.3089,3.3102,3.3102,3.3102,3.3079,3.3144,3.3081,3.3545,3.3779,3.3717,2.9697,2.7438,2.6703,2.6192,2.5904,2.5918,2.5967,2.5925,2.5829,2.578,2.5742,2.582,2.5371,2.5195,2.5176,2.501,2.4717,2.4414,2.4414,2.4588,2.4772,2.4772,2.5653,2.6619,2.6619,2.714,2.795,2.8858,2.8817,2.8833,2.9696,2.988,2.9534,2.8676,2.8426,2.8426,2.8426,2.8426,2.8688,2.9624,2.9792,2.9792,2.9792,2.9792,2.9792,2.9792,2.9402,2.9051,2.895,2.816,2.7394,2.6841,2.6264,2.5674,2.5021,2.4883,2.482,2.482,2.4406,2.4155,2.4155,2.3715,2.3678,2.4155,2.433,2.4608,2.5065,2.5231,2.5762,2.6769,2.7359,2.7879,1.8427,1.8555,1.9447,2.0865,2.0836,2.1262,0.0,2.4416,2.4023,2.405,2.5406,2.6122,2.4873,2.6514,2.868,3.0507,3.1091,3.1626,3.2713,3.2836,3.2384,3.141,3.136,3.1767,3.2782,3.2773,3.2697,3.2721,3.2933,3.3102,3.3091,3.3104,3.3104,3.3104,3.3084,3.3109,3.3081,3.507,3.6024,3.6005,3.2326,3.0482,3.0373,2.7895,2.6904,2.6865,2.6865,2.6754,2.6502,2.5948,2.5923,2.6269,2.583,2.5664,2.5566,2.4775,2.4463,2.4414,2.4414,2.5118,2.6093,2.6093,2.6885,2.7939,2.7939,2.8683,2.951,2.9678,2.9992,3.0348,3.044,3.0168,2.9792,2.9624,2.9624,2.9624,2.9624,2.9624,2.9624,2.9792,2.9792,2.9792,2.9792,2.9792,2.9792,2.9792,2.9741,2.9515,2.9001,2.8825,2.8536,2.7984,2.7419,2.6666,2.5598,2.5084,2.482,2.482,2.4757,2.4732,2.4732,2.4669,2.4657,2.4732,2.5444,2.588,2.5959,2.6701,2.7726,2.9057,2.9116,2.8872,2.0765,2.0765,2.1179,2.2196,2.3,2.3904,2.5285,2.5937,2.6421,2.6974,2.8201,2.9162,2.8827,2.9579,3.0741,3.2127,3.2369,3.2557,3.3013,3.2027,3.1039,3.0554,3.0984,3.1822,3.298,3.3126,3.3101,3.3068,3.3114,3.3101,3.3068,3.3083,3.3096,3.3096,3.3067,3.3692,3.4984,3.466,3.5102,3.6418,3.415,3.2309,3.0743,2.8686,2.7796,2.7719,2.7266,2.6972,2.6841,2.6413,2.6119,2.5952,2.5781,2.5742,2.5693,2.5322,2.564,2.6268,2.6268,2.7083,2.8058,2.8058,2.8959,2.9857,2.9857,3.0539,3.1171,3.1171,3.1133,3.1072,3.1072,3.0896,3.0645,3.0344,3.0269,3.0181,2.9867,2.9792,2.9792,2.9792,2.9792,2.9792,2.9792,2.9792,2.9792,2.9792,2.9792,2.9704,2.9465,2.9139,2.8712,2.816,2.7896,2.757,2.7092,2.6565,2.6251,2.6251,2.5636,2.5272,2.5272,2.4983,2.4971,2.5272,2.5639,2.6401,2.7643,2.794,2.9121,3.1007,3.1007,3.1122,2.2091,2.2422,2.2987,2.3841,2.5297,2.6553,2.6716,2.762,2.8649,2.944,3.0369,3.1054,3.1379,3.1651,3.2159,3.3005,3.3089,3.3081,3.3081,3.1174,2.9846,2.9846,3.0642,3.1567,3.2381,3.2877,3.3066,3.3068,3.307,3.3133,3.3133,3.3095,3.338,3.3984,3.404,3.476,3.6341,3.4848,3.4807,3.6405,3.5608,3.3915,3.149,2.9782,2.8723,2.8277,2.7627,2.7369,2.7334,2.6924,2.6722,2.6566,2.6418,2.648,2.6744,2.6744,2.7125,2.7683,2.7955,2.8866,2.9863,2.9863,3.0765,3.1677,3.1677,3.2044,3.2453,3.2453,3.2051,3.1625,3.1625,3.1499,3.1298,3.0922,3.0834,3.0721,3.0319,3.0231,3.0231,3.0231,3.0231,3.0231,3.0231,3.0118,3.0018,3.0018,2.9892,2.9792,2.9792,2.9428,2.9013,2.8612,2.8436,2.8335,2.8335,2.7821,2.7444,2.7293,2.6515,2.5988,2.5837,2.5624,2.5794,2.6429,2.6837,2.7907,2.9685,2.9884,3.0909,3.2553,3.2553,3.2882,2.1355,2.2698,2.433,2.5963,2.7607,2.8976,2.9541,3.0495,3.1273,3.1311,3.1642,3.1872,3.1484,3.2347,3.3043,3.3056,3.3068,3.3081,3.3081,3.1174,2.9846,2.9846,3.0474,3.0966,3.0991,3.223,3.3068,3.3142,3.3109,3.312,3.312,3.3073,3.409,3.6264,3.6338,3.6376,3.6444,3.6379,3.6344,3.6383,3.6326,3.5344,3.3504,3.1699,2.9912,2.8331,2.8308,2.8262,2.8223,2.7649,2.7901,2.8661,2.8321,2.8612,2.9315,2.9315,2.8588,2.7778,2.8947,3.0135,3.1134,3.1134,3.2052,3.3068,3.3068,3.3068,3.3056,3.3056,3.2641,3.219,3.219,3.1788,3.1386,3.1373,3.1361,3.1361,3.1348,3.1336,3.1336,3.1336,3.1336,3.1336,3.1336,3.0922,3.0595,3.0595,3.0131,2.9792,2.9792,2.9779,2.9767,2.9741,2.9239,2.89,2.89,2.8398,2.7846,2.7318,2.7256,2.6992,2.6452,2.6929,2.7672,2.8609,2.9957,3.1142,3.2112,3.293,3.3408,3.3423,3.3423,3.3499,2.3251,2.4908,2.649,2.777,2.9089,3.0181,3.0733,3.1424,3.1946,3.1858,3.2273,3.2701,3.2568,3.2836,3.3099,3.3116,3.3122,3.2626,3.11,3.1087,3.0864,2.9902,3.0319,3.0728,3.0728,3.182,3.2706,3.3068,3.3083,3.3746,3.5249,3.5274,3.5612,3.6389,3.643,3.6438,3.6417,3.6445,3.6402,3.6407,3.6425,3.5427,3.3696,3.3073,3.2093,3.0906,3.0374,3.0045,3.0147,3.0701,3.1141,3.1305,3.005,2.9659,2.9948,3.0432,3.0626,3.0606,3.0612,3.1412,3.2487,3.2845,3.2996,3.3144,3.3508,3.3621,3.3621,3.3621,3.3746,3.3796,3.342,3.3194,3.2867,3.2114,3.1938,3.1838,3.1474,3.1386,3.1386,3.1386,3.1386,3.1386,3.1386,3.1248,3.1009,3.067,3.0143,2.9792,2.9792,2.9792,2.9792,2.9792,2.9616,2.9503,2.9503,2.8976,2.8574,2.8386,2.8034,2.7745,2.7557,2.772,2.8298,2.9231,2.9693,3.0923,3.284,3.3179,3.3829,3.4831,3.4831,3.4831,2.5398,2.7067,2.8499,2.9779,3.1102,3.2056,3.2196,3.2503,3.2782,3.2655,3.2567,3.262,3.3,3.1847,3.1009,3.1765,3.1937,3.1574,3.0722,3.119,3.134,3.0711,3.0935,3.111,3.0909,3.1888,3.2588,3.2789,3.3183,3.4186,3.5736,3.6195,3.6362,3.6362,3.6351,3.6358,3.6358,3.6358,3.6358,3.637,3.6397,3.5783,3.4659,3.4164,3.365,3.3044,3.194,3.146,3.1561,3.2295,3.2799,3.2959,3.1838,3.1599,3.1877,3.2286,3.2665,3.2986,3.235,3.2845,3.3721,3.4073,3.396,3.3734,3.4085,3.4198,3.4198,3.4198,3.4449,3.4638,3.4286,3.4048,3.3721,3.2993,3.2667,3.2428,3.2064,3.1989,3.1989,3.1989,3.1989,3.1989,3.1989,3.1825,3.1499,3.0972,3.0432,3.0018,2.9817,2.9792,2.9792,2.9792,2.9792,2.9792,2.9792,2.9453,2.9151,2.8938,2.8599,2.831,2.8109,2.8651,2.9366,3.0304,3.0854,3.2052,3.3995,3.3995,3.4507,3.5504,3.5504,3.5604,2.7717,2.9152,3.0398,3.2028,3.3597,3.4561,3.3925,3.382,3.3741,3.3774,3.2442,3.1561,3.2399,2.9369,2.7397,2.9578,2.9945,3.0419,3.188,3.1522,3.1315,3.2177,3.2277,3.2089,3.1537,3.2466,3.2893,3.234,3.3508,3.4317,3.4751,3.578,3.6358,3.6358,3.6358,3.6358,3.6358,3.6358,3.6358,3.6358,3.6358,3.6358,3.6358,3.5078,3.4483,3.4385,3.3044,3.2532,3.2532,3.2532,3.2955,3.3613,3.3577,3.4056,3.4763,3.4726,3.4738,3.4688,3.4161,3.4286,3.4688,3.4751,3.4726,3.4688,3.4751,3.4763,3.4763,3.4763,3.4776,3.4801,3.4776,3.4374,3.3972,3.3947,3.3545,3.3156,3.3156,3.3144,3.3119,3.3119,3.3093,3.3081,3.3081,3.2616,3.2064,3.1512,3.1009,3.0482,2.9905,2.9817,2.9792,2.9792,2.9792,2.9792,2.9792,2.9792,2.9566,2.9001,2.8963,2.8799,2.8283,2.9691,3.0949,3.1889,3.3303,3.4461,3.5504,3.5504,3.5504,3.5504,3.5569,3.5943,3.0514,3.228,3.3736,3.4929,3.514,3.508,3.4917,3.4118,3.3186,3.2253,3.1034,2.9233,2.6214,2.7493,2.9652,3.1872,3.1811,3.1726,3.2679,3.297,3.3032,3.288,3.3219,3.3257,3.2704,3.3282,3.3621,3.3483,3.3945,3.4466,3.5161,3.5968,3.6358,3.6358,3.6358,3.6358,3.6358,3.6358,3.6358,3.6358,3.6358,3.6358,3.6358,3.6061,3.587,3.587,3.5559,3.5343,3.5343,3.5343,3.5473,3.561,3.5201,3.5071,3.529,3.4876,3.4989,3.5316,3.5177,3.4675,3.4248,3.5064,3.4776,3.4261,3.509,3.5341,3.5341,3.5341,3.5629,3.5843,3.5441,3.5228,3.5014,3.4613,3.4399,3.4299,3.4299,3.3985,3.3696,3.3696,3.3357,3.3081,3.3081,3.2955,3.2667,3.2089,3.1888,3.1461,3.0532,3.0043,2.9792,2.9792,2.9792,2.9792,2.9792,2.9792,2.9729,2.9578,3.0263,3.0533,3.039,3.146,3.2457,3.3428,3.3805,3.4461,3.5504,3.5504,3.5504,3.5504,3.6054,3.6446,3.3968,3.5358,3.6225,3.6317,3.6512,3.6414,3.5124,3.3687,3.2013,3.0186,2.8727,2.6724,2.3079,2.5677,2.8769,3.0029,3.0927,3.1826,3.26,3.3181,3.3608,3.3771,3.4286,3.4399,3.3847,3.4299,3.4625,3.4625,3.4748,3.4932,3.5256,3.6031,3.6358,3.6358,3.6358,3.6358,3.6358,3.6358,3.6358,3.6358,3.6358,3.6358,3.6358,3.6358,3.6358,3.6358,3.6358,3.6358,3.6358,3.6358,3.6358,3.6332,3.6031,3.5893,3.5868,3.5554,3.5642,3.5893,3.5893,3.5341,3.4763,3.5617,3.5491,3.509,3.5717,3.5893,3.5893,3.5893,3.6119,3.6282,3.5981,3.573,3.5374,3.5152,3.4901,3.4726,3.4726,3.4474,3.4186,3.3947,3.3847,3.3646,3.3156,3.3282,3.3244,3.2679,3.2378,3.1989,3.1399,3.0834,3.0407,3.0181,3.0357,3.0306,2.9829,3.0018,3.0043,2.9804,3.0696,3.118,3.118,3.2536,3.3449,3.4027,3.4394,3.492,3.5504,3.5504,3.5668,3.6006,3.6384,3.6948,3.7219,3.8126,3.8295,3.7229,3.7636,3.7593,3.4816,3.262,3.0451,2.7889,2.619,2.4403,2.1977,2.3961,2.6194,2.6604,2.8828,3.0971,3.2147,3.2817,3.3596,3.47,3.5316,3.5466,3.4989,3.5378,3.5655,3.5655,3.5655,3.5537,3.5487,3.6081,3.6358,3.6358,3.6358,3.6358,3.6358,3.6358,3.6358,3.6358,3.6358,3.6358,3.6358,3.6358,3.6358,3.6358,3.6358,3.6358,3.6358,3.6358,3.6358,3.6358,3.6358,3.6358,3.6358,3.6358,3.6358,3.6358,3.6358,3.6056,3.573,3.6207,3.632,3.627,3.6345,3.6358,3.6358,3.6358,3.6358,3.6358,3.6358,3.6006,3.5655,3.5655,3.529,3.4939,3.4939,3.4876,3.4663,3.411,3.4399,3.4412,3.3458,3.3633,3.3734,3.3257,3.2692,3.2328,3.2328,3.1775,3.1223,3.0771,3.1122,3.1009,3.008,3.0527,3.0631,3.0137,3.1022,3.1609,3.1609,3.3241,3.4177,3.4177,3.5067,3.5504,3.5504,3.5619,3.5943,3.66,3.6843,3.7642,3.8902,3.9762,4.0124,3.9824,3.815,3.6112,3.4118,3.1162,2.826,2.6034,2.4751,2.348,2.1819,2.2707,2.4506,2.7015,2.8041,2.9606,3.2491,3.3407,3.4161,3.5265,3.5881,3.6182,3.6081,3.6169,3.6219,3.6219,3.6219,3.6207,3.6207,3.6307,3.6358,3.6358,3.6358,3.6358,3.6358,3.6358,3.6358,3.6358,3.6358,3.6358,3.6358,3.6358,3.6358,3.6358,3.6358,3.6358,3.6358,3.6358,3.6358,3.6358,3.6358,3.6358,3.6358,3.6358,3.6358,3.6358,3.6358,3.6295,3.6232,3.6332,3.6056,3.5768,3.6219,3.6358,3.6358,3.6358,3.6358,3.6358,3.6358,3.6282,3.6219,3.6219,3.6144,3.6081,3.6081,3.5717,3.524,3.4688,3.4663,3.4663,3.4462,3.4135,3.3872,3.3771,3.3282,3.293,3.293,3.2026,3.1348,3.1273,3.1336,3.1311,3.1135,3.1525,3.1705,3.1601,3.2811,3.3518,3.3518,3.4624,3.5213,3.5213,3.5424,3.5504,3.5504,3.6102,3.6492,3.66,3.793,3.8619,4.0778,4.1592,4.1601,3.9956,3.7638,3.4382,2.9272,2.6228,2.404,2.2635,2.2226,2.1815,2.0822,2.1995,2.3304,2.4013,2.5652,2.7971,3.1323,3.2252,3.3319,3.5316,3.6031,3.6358,3.6358,3.6358,3.6358,3.6358,3.6358,3.6358,3.6358,3.6358,3.6358,3.6358,3.6634,3.6646,3.6358,3.6646,3.6646,3.6358,3.6358,3.6358,3.637,3.6659,3.6634,3.6395,3.6973,3.6885,3.6383,3.6671,3.6621,3.6358,3.6358,3.6358,3.6358,3.6358,3.6358,3.6358,3.6358,3.6358,3.6358,3.6358,3.6182,3.6019,3.6282,3.6358,3.6358,3.6358,3.6358,3.6358,3.6358,3.6358,3.6358,3.6358,3.6358,3.6358,3.6358,3.6157,3.5805,3.5253,3.5378,3.5391,3.4813,3.4738,3.4663,3.4374,3.411,3.3822,3.3545,3.3505,3.3333,3.2726,3.2933,3.3112,3.3053,3.3171,3.3314,3.3328,3.3762,3.4171,3.4502,3.5163,3.5504,3.5504,3.5504,3.5504,3.5504,3.6228,3.703,3.7844,3.8576,3.9122,4.1833,4.2731,4.2585,3.9586,3.6905,3.3101,2.5679,2.2454,2.0816,1.9985,2.0075,2.0213,1.9861,2.123,2.2188,2.1488,2.3577,2.6427,2.9792,3.0909,3.234,3.4889,3.578,3.6232,3.6358,3.6358,3.6358,3.6358,3.6358,3.6358,3.6358,3.6358,3.642,3.6533,3.6847,3.686,3.6533,3.6847,3.6784,3.6358,3.6358,3.642,3.6558,3.6985,3.701,3.6759,3.7626,3.745,3.6571,3.701,3.686,3.6358,3.6358,3.6358,3.6358,3.6358,3.6358,3.6358,3.6358,3.6358,3.6358,3.6358,3.6358,3.6358,3.6358,3.6358,3.6358,3.6358,3.6445,3.6533,3.6533,3.6533,3.6508,3.6383,3.6358,3.6358,3.6358,3.6358,3.6232,3.5805,3.6069,3.6081,3.5228,3.5341,3.5403,3.4964,3.4956,3.4857,3.4299,3.5208,3.5528,3.4766,3.4848,3.4995,3.4976,3.4919,3.4985,3.5088,3.4853,3.4936,3.5514,3.5614,3.5714,3.5714,3.5579,3.5554,3.5718,3.6523,3.767,3.9182,3.9126,3.9468,4.1265,4.2387,4.2599,3.9722,3.6582,3.2947,2.7954,2.4025,2.1112,2.0037,1.9472,1.9309,1.9723,1.9974,2.0698,2.2605,2.3603,2.531,2.8624,3.0419,3.2051,3.3847,3.4977,3.5818,3.632,3.6358,3.6358,3.6358,3.6358,3.6358,3.6358,3.6358,3.6584,3.7098,3.6671,3.6646,3.7098,3.6659,3.6408,3.6358,3.6358,3.6621,3.7111,3.7161,3.7425,3.7864,3.7965,3.7663,3.7111,3.7161,3.686,3.6358,3.6358,3.6358,3.6358,3.6358,3.6358,3.6358,3.6358,3.6358,3.6358,3.6358,3.6358,3.6358,3.6358,3.6358,3.6358,3.6358,3.6722,3.7111,3.7111,3.7111,3.6973,3.6483,3.6358,3.6358,3.6358,3.6358,3.6345,3.6295,3.632,3.6332,3.6232,3.5843,3.5437,3.5386,3.5967,3.6095,3.5444,3.6345,3.7143,3.742,3.659,3.6077,3.6046,3.6391,3.6601,3.6616,3.6872,3.7103,3.7163,3.6649,3.6402,3.6402,3.5804,3.5831,3.6492,3.7279,3.8463,3.9972,3.9874,3.9929,3.9709,4.116,4.1347,3.7796,3.4707,3.1265,2.6804,2.2992,2.0338,1.9899,1.9384,1.9183,1.971,1.9798,2.0391,2.2166,2.2223,2.315,2.6465,2.7795,2.9528,3.2528,3.3872,3.5027,3.6245,3.6358,3.6358,3.6358,3.6358,3.6358,3.6358,3.6671,3.681,3.6684,3.745,3.7487,3.6697,3.7123,3.7023,3.6358,3.6358,3.6646,3.7186,3.7186,3.7312,3.755,3.8228,3.8015,3.7211,3.755,3.7362,3.6822,3.6496,3.6358,3.6408,3.6734,3.686,3.691,3.7236,3.7136,3.691,3.7249,3.691,3.6358,3.6358,3.6358,3.6358,3.6358,3.6759,3.7186,3.7186,3.7425,3.7626,3.74,3.7349,3.7349,3.7349,3.7098,3.686,3.686,3.6584,3.6358,3.6358,3.6182,3.6299,3.6987,3.731,3.7475,3.7551,3.8574,3.9022,3.8428,3.7648,3.742,3.8055,3.7916,3.7942,3.8354,3.7764,3.7404,3.7404,3.6806,3.6297,3.5908,3.5639,3.5831,3.6615,3.7397,3.8557,3.9988,4.0001,3.9996,3.7635,3.9499,4.001,3.6803,3.3508,3.0001,2.5931,2.2171,1.9534,1.9485,1.8983,1.8858,1.9649,1.9799,2.0202,2.1437,2.1365,2.2133,2.4971,2.6138,2.7959,3.1336,3.2579,3.3872,3.5705,3.6169,3.6358,3.6358,3.6358,3.6433,3.6596,3.6973,3.701,3.6621,3.7751,3.7877,3.686,3.7299,3.7211,3.6596,3.6433,3.6646,3.7186,3.7186,3.7274,3.7475,3.8442,3.8316,3.7462,3.7852,3.7676,3.7123,3.6571,3.6358,3.642,3.6973,3.7186,3.7262,3.7814,3.7751,3.7487,3.7889,3.7374,3.6609,3.6609,3.6496,3.6358,3.6358,3.6872,3.7462,3.7638,3.7965,3.8216,3.8052,3.8002,3.8002,3.8002,3.7701,3.7425,3.7425,3.6973,3.6609,3.6609,3.6823,3.715,3.803,3.8725,3.9202,3.9452,4.0474,4.0742,3.9663,3.9139,3.9046,3.9367,3.8975,3.8901,3.9394,3.8332,3.7704,3.7704,3.6926,3.6267,3.5804,3.5609,3.5831,3.6615,3.7144,3.8296,3.9984,3.9787,3.9686,3.5145,3.7449,3.9043,3.736,3.37,2.9525,2.6153,2.2087,1.8963,1.8772,1.8131,1.8064,1.9543,1.9813,1.9987,2.063,2.1594,2.2887,2.4594,2.6239,2.8109,3.0369,3.1097,3.229,3.4525,3.5717,3.6358,3.6358,3.6358,3.6596,3.7149,3.7186,3.7186,3.7174,3.7199,3.745,3.799,3.6923,3.6646,3.7174,3.6621,3.6646,3.7186,3.7186,3.7475,3.804,3.8617,3.8542,3.8002,3.8002,3.7676,3.7123,3.6571,3.6358,3.642,3.6973,3.7186,3.7262,3.7814,3.8002,3.8002,3.8002,3.7626,3.7174,3.7174,3.6797,3.6358,3.6358,3.7149,3.8128,3.8705,3.8856,3.8718,3.814,3.8002,3.8002,3.8002,3.8002,3.8002,3.8002,3.755,3.7174,3.7174,3.7697,3.8107,3.8107,4.0104,4.1371,4.0656,4.1671,4.2102,4.1444,4.1369,4.0831,3.9529,3.9409,3.9409,3.9424,3.8766,3.8377,3.8377,3.7165,3.6492,3.6477,3.5833,3.5831,3.6615,3.6615,3.7789,4.01,3.9198,3.8802,2.975,3.1456,3.2333,3.0632,2.8083,2.539,2.3231,2.0289,1.8183,1.8601,1.7721,1.7435,1.9455,1.9801,2.0238,2.1581,2.2083,2.2899,2.4582,2.6239,2.8109,3.0357,3.3081,3.5064,3.5768,3.6157,3.6358,3.6358,3.6358,3.6433,3.6609,3.6973,3.7186,3.7186,3.755,3.7475,3.6885,3.691,3.6822,3.6621,3.6445,3.6646,3.7174,3.6797,3.6923,3.745,3.7638,3.7613,3.745,3.745,3.7337,3.7123,3.6571,3.6584,3.6985,3.755,3.799,3.8417,3.8969,3.8919,3.8668,3.9032,3.8517,3.7814,3.8216,3.7676,3.7086,3.7852,3.8329,3.873,3.9283,3.9433,3.9383,3.9207,3.9157,3.9157,3.9157,3.8868,3.8592,3.8592,3.8128,3.8019,3.8921,3.8817,3.9224,4.0904,4.1425,4.1778,4.2364,4.2763,4.2776,4.2117,4.2058,4.1519,4.0202,4.0083,3.9903,3.9454,3.8766,3.8182,3.7749,3.6926,3.6267,3.5833,3.5609,3.5831,3.6615,3.6615,3.7535,3.9287,3.9993,4.0097,2.5543,2.7283,2.8031,2.7281,2.5152,2.2922,2.1706,1.942,1.7637,1.7842,1.7134,1.7107,1.9037,1.9408,1.9897,2.1443,2.187,2.2661,2.4556,2.6063,2.7959,3.0595,3.3771,3.5742,3.5742,3.6119,3.6358,3.6358,3.6358,3.6458,3.6659,3.6797,3.6973,3.7174,3.7513,3.7362,3.6684,3.681,3.681,3.6671,3.6458,3.6533,3.686,3.6521,3.6546,3.6885,3.7098,3.7186,0.0,3.7186,3.7186,3.7123,3.6571,3.6697,3.7249,3.7801,3.8366,3.8956,3.9496,3.9471,3.9245,3.9584,3.9069,3.8404,3.8755,3.8228,3.7688,3.8605,3.8868,3.8994,3.9546,3.9697,3.9697,3.9697,3.9697,3.9697,3.9697,3.9421,3.9182,3.9182,3.873,3.87,3.9987,3.9868,4.0308,4.2267,4.2436,4.2467,4.325,4.3329,4.318,4.2776,4.2731,4.2297,4.1235,4.0681,4.0232,3.9813,3.8916,3.8093,3.7434,3.6806,3.6178,3.5519,3.5744,3.6094,3.6547,3.7437,3.8321,3.93,4.1064,4.1398,0.0,2.4455,2.5576,2.6184,2.4047,2.163,2.1111,1.919,0.0,1.665,1.6522,1.695,1.8494,1.8767,1.9183,2.0627,2.128,2.2385,2.4619,2.605,2.8021,3.1135,3.3483,3.4813,3.4726,3.5717,3.6358,3.6358,3.6358,3.6584,3.7098,3.6634,3.6596,3.7111,3.7123,3.7123,3.7123,3.6621,3.6621,3.7123,3.6609,3.6358,3.6358,3.6358,3.6358,3.6383,3.691,3.7123,3.7123,3.7123,3.7123,3.7073,3.6558,3.6722,3.7312,3.7814,3.8391,3.9007,3.9521,3.9697,3.9697,3.9697,3.9346,3.8931,3.8931,3.853,3.8191,3.8768,3.8931,3.9044,3.9559,3.9697,3.9697,3.9697,3.9697,3.9697,3.9697,3.9697,3.9697,3.9697,3.9372,3.9497,4.0799,4.0906,4.1341,4.2595,4.3086,4.3329,4.3329,4.3329,4.3409,4.3409,4.3472,4.3296,4.2694,4.1295,4.0442,4.0397,3.914,3.8123,3.7509,3.6881,3.6267,3.5654,3.6237,3.6618,3.667,3.889,3.9994,4.0023,4.2332,4.2658,1.7976,0.0,1.9975,2.0158,1.9316,1.8374,0.0,1.7479,1.6705,1.6522,1.6522,1.7131,1.9175,1.9057,1.9556,2.2101,2.2661,2.3527,2.5762,2.8837,3.1311,3.2528,3.4625,3.5642,3.4801,3.5717,3.6358,3.6358,3.6358,3.642,3.6546,3.6433,3.642,3.6546,3.6558,3.6558,3.6558,3.642,3.642,3.6558,3.642,3.6358,3.6358,3.6358,3.6358,3.637,3.6496,3.6558,3.6558,3.6558,3.6558,3.6546,3.6408,3.696,3.7826,3.7952,3.8642,3.9521,3.9647,3.9697,3.9697,3.9697,3.9597,3.9496,3.9496,3.912,3.8781,3.9346,3.9496,3.9534,3.9659,3.9697,3.9697,3.9697,3.9697,3.9697,3.9697,3.9697,3.9697,3.9697,4.035,4.1406,4.263,4.281,4.3156,4.4507,4.3901,4.3329,4.3329,4.3989,4.445,4.445,4.5064,4.5466,4.5309,4.2722,4.0935,4.0427,3.914,3.8317,3.8167,3.7539,3.712,3.6971,3.712,3.7503,3.8185,3.9929,4.0797,4.0959,4.2646,4.2929,1.6522,1.7115,1.7763,1.7763,1.7565,1.7377,1.7446,1.6969,1.6522,1.6522,1.6486,1.702,1.8773,1.8943,1.9683,2.2289,2.3509,2.511,2.788,3.0701,3.2702,3.3406,3.4726,3.5579,3.5479,3.6019,3.6358,3.6358,3.6358,3.6358,3.6358,3.6358,3.6358,3.6358,3.6358,3.6358,3.6358,3.6358,3.6358,3.6358,3.6358,3.6358,3.6358,3.6358,3.6358,3.6358,3.6358,3.6358,3.6358,3.6358,3.6358,3.6358,3.6358,3.7036,3.8002,3.8002,3.8718,3.9697,3.9697,3.9697,3.9697,3.9697,3.9697,3.9697,3.9697,3.9484,3.9308,3.9609,3.9697,3.9697,3.9697,3.9697,3.9697,3.9697,3.9697,3.9697,3.9697,3.9697,3.989,4.0453,4.1119,4.2168,4.4069,4.4105,4.4284,4.5585,4.4885,4.4268,4.4397,4.488,4.5273,4.5463,4.5905,4.6173,4.6173,4.3999,4.2309,4.1538,3.9862,3.8721,3.8407,3.8048,3.7853,3.7853,3.8236,3.8831,3.9656,4.1245,4.2255,4.2579,4.3803,4.4147,1.6522,1.7061,1.7564,1.7313,1.725,1.7307,1.7402,1.6955,1.6522,1.6522,1.6597,1.6999,1.8129,1.8857,1.9999,2.2209,2.458,2.7253,3.0236,3.217,3.3359,3.3695,3.4487,3.5278,3.6031,3.627,3.6358,3.6358,3.6358,3.6358,3.6358,3.6358,3.6358,3.6358,3.6358,3.6358,3.6358,3.6358,3.6358,3.6358,3.6358,3.6358,3.6358,3.6358,3.6358,3.6358,3.6358,3.6358,3.6358,3.6358,3.6358,3.6358,3.6358,3.6985,3.7889,3.7977,3.8668,3.9584,3.9659,3.9697,3.9697,3.9697,3.9697,3.9697,3.9697,3.9697,3.9697,3.9697,3.9697,3.9697,3.9697,3.9697,3.9697,3.9697,3.9697,3.9697,3.9697,3.9697,4.007,4.1319,4.1789,4.2641,4.5024,4.4974,4.5026,4.6137,4.589,4.5622,4.5851,4.6048,4.6276,4.6538,4.6588,4.6609,4.6609,4.5114,4.387,4.3231,4.0924,3.9283,3.8571,3.8542,3.8612,3.8737,3.9502,4.0235,4.108,4.2675,4.3781,4.4398,4.5269,4.5565,1.6522,1.7626,1.843,1.7011,1.6647,1.6647,1.666,1.6584,1.6522,1.6522,1.6992,1.7743,1.8706,1.9723,2.1142,2.3376,2.7103,3.0175,3.1563,3.3713,3.464,3.3391,3.4926,3.5805,3.5052,3.5818,3.6358,3.6358,3.6358,3.6358,3.6358,3.6358,3.6358,3.6358,3.6358,3.6358,3.6358,3.6358,3.6358,3.6358,3.6358,3.6358,3.6358,3.6358,3.6358,3.6358,3.6358,3.6358,3.6358,3.6358,3.6358,3.6358,3.6358,3.6747,3.7362,3.7839,3.8429,3.9057,3.9534,3.9697,3.9697,3.9697,3.9697,3.9697,3.9697,3.9697,3.9697,3.9697,3.9697,3.9697,3.9697,3.9697,3.9697,3.9697,3.9697,3.9697,3.9697,3.9697,4.007,4.1319,4.2461,4.3693,4.5115,4.5727,4.6051,4.6237,4.6504,4.6701,4.6734,4.7613,4.8286,4.8308,4.8462,4.8576,4.8576,4.5865,4.4333,4.4788,4.2091,4.0124,3.926,3.926,3.9571,4.0331,4.0467,4.1302,4.2909,4.3656,4.4504,4.5303,4.5947,4.6265,1.6522,1.7074,1.7865,1.8669,1.8588,1.8302,1.8278,1.7664,1.7306,1.8106,1.8304,1.8692,1.9723,2.1054,2.3357,2.7601,3.0007,3.1761,3.313,3.402,3.4139,3.3227,3.45,3.5278,3.4776,3.5717,3.6232,3.5943,3.6194,3.6358,3.6358,3.6358,3.6358,3.6358,3.6358,3.6358,3.6358,3.6358,3.6358,3.6358,3.6358,3.6358,3.6358,3.6358,3.6358,3.6358,3.6358,3.6358,3.6358,3.6358,3.6358,3.6358,3.6358,3.6872,3.7701,3.8266,3.8642,3.8856,3.8806,3.8981,3.9245,3.9245,3.9446,3.9697,3.9697,3.9697,3.9697,3.9697,3.9697,3.9697,3.9697,3.9697,3.9697,3.9697,3.9697,3.9697,3.9697,3.9697,4.0262,4.2266,4.3122,4.4163,4.6062,4.6679,4.686,4.686,4.7424,4.7995,4.815,4.8835,4.9341,4.9424,4.9157,4.9001,4.9001,4.6827,4.4452,4.2217,4.1097,4.0172,3.9439,3.9864,4.0309,4.069,4.1609,4.2642,4.3805,4.4521,4.5441,4.6542,4.6819,4.7132,1.6522,1.671,1.7378,1.9377,1.9439,1.9145,1.9687,1.9759,1.992,2.0779,2.0729,2.0638,2.1171,2.2711,2.555,3.0705,3.1911,3.2664,3.4009,3.4206,3.3892,3.3379,3.4123,3.4726,3.4726,3.5592,3.5994,3.5567,3.6056,3.6307,3.6182,3.6282,3.6245,3.5981,3.6219,3.6295,3.6169,3.6295,3.6358,3.6358,3.6358,3.6358,3.6358,3.6358,3.6358,3.6358,3.6358,3.6358,3.6358,3.6358,3.6358,3.6358,3.6358,3.696,3.7864,3.8316,3.8555,3.8617,3.8316,3.8492,3.8894,3.9019,3.9346,3.9697,3.9697,3.9697,3.9697,3.9697,3.9697,3.9697,3.9697,3.9697,3.9697,3.9697,3.9697,3.9697,3.9697,3.9878,4.0844,4.3026,4.3787,4.4642,4.6916,4.7309,4.7309,4.7309,4.8141,4.8948,4.9509,4.9652,4.9839,5.0342,4.9543,4.8793,4.8136,4.6913,4.4317,3.9884,4.0262,4.0337,3.9679,4.0331,4.0888,4.1247,4.2763,4.3905,4.4553,4.5718,4.6618,4.7223,4.7525,4.7837,1.6522,1.7287,1.7865,1.7036,1.6779,1.7268,1.9347,2.2938,2.5597,2.4641,2.4695,2.4543,2.317,2.4745,2.722,3.0045,3.1849,3.3159,3.3661,3.4703,3.5018,3.3997,3.4361,3.4726,3.4726,3.5253,3.5592,3.5542,3.6056,3.6144,3.5629,3.6094,3.5893,3.4876,3.583,3.6119,3.5604,3.6107,3.6358,3.6358,3.6358,3.6358,3.6358,3.6358,3.6358,3.6358,3.6358,3.6358,3.6358,3.6358,3.6358,3.6358,3.6358,3.6722,3.7249,3.7299,3.7626,3.814,3.8642,3.8831,3.8956,3.9471,3.9659,3.9697,3.9697,3.9697,3.9697,3.9697,3.9697,3.9697,3.9697,3.9697,3.9697,3.9697,3.9697,3.9697,3.9697,4.0655,4.1887,4.3218,4.4442,4.5689,4.7019,4.7309,4.7309,4.7309,4.8141,4.92,5.0179,4.9961,5.0038,5.1003,4.9864,4.8022,4.5672,4.5371,4.3905,4.0544,4.095,4.101,4.0352,4.0576,4.1377,4.2826,4.3826,4.4737,4.5602,4.7579,4.7887,4.6691,4.7907,4.815,1.6522,1.7338,1.8191,1.8103,1.8031,1.8706,2.1255,2.3178,2.4664,2.5649,2.5679,2.5562,2.569,2.6691,2.8257,3.0566,3.1811,3.2761,3.3673,3.4153,3.4257,3.3507,3.4173,3.4449,3.3771,3.4512,3.4889,3.455,3.5027,3.5253,3.5039,3.5228,3.5152,3.4738,3.5127,3.524,3.5039,3.524,3.5341,3.5353,3.6031,3.6358,3.6358,3.6358,3.6358,3.6358,3.6358,3.6358,3.6358,3.6358,3.6358,3.6395,3.6734,3.6998,3.7186,3.7186,3.7525,3.799,3.7864,3.8278,3.8906,3.912,3.9421,3.9697,3.9697,3.9697,3.9697,3.9697,3.9697,3.9697,3.9697,3.9697,3.9697,3.9697,3.9697,3.9697,3.9697,4.0743,4.1985,4.3218,4.4549,4.5779,4.7106,4.7309,4.7309,4.7309,4.8141,4.9231,5.0242,5.0367,5.0786,5.1746,5.0072,4.7984,4.5977,4.531,4.382,4.116,4.125,4.1085,4.0427,4.1953,4.3103,4.3693,4.4669,4.5561,4.6241,4.6604,4.6632,4.6484,4.7015,4.7059,1.6522,1.7087,1.7852,1.8581,1.902,2.0027,2.2955,2.3513,2.4162,2.696,2.6962,2.6628,2.7406,2.7846,2.867,3.0501,3.1299,3.1997,3.2927,3.3084,3.3031,3.283,3.347,3.3709,3.3131,3.3922,3.4311,3.3922,3.4412,3.465,3.4474,3.4625,3.4562,3.4211,3.4537,3.4638,3.4462,3.4638,3.4726,3.4726,3.5479,3.5843,3.5855,3.6019,3.6006,3.5855,3.6019,3.6107,3.6107,3.6107,3.6207,3.6408,3.6772,3.6923,3.6923,3.6923,3.7161,3.7475,3.745,3.7952,3.8655,3.9019,3.9383,3.9697,3.9697,3.9697,3.9697,3.9697,3.9697,3.9697,3.9697,3.9697,3.9697,3.9697,3.9697,3.9697,3.9697,4.1032,4.2461,4.3313,4.4826,4.6255,4.7121,4.7309,4.7309,4.7309,4.7919,4.8677,4.9773,4.9833,5.0033,5.0639,4.949,4.7887,4.5897,4.495,4.3727,4.182,4.1489,4.1175,4.0726,4.2488,4.3661,4.4093,4.5142,4.5881,4.6295,4.6272,4.6187,4.6182,4.6414,4.6372,1.6522,1.6522,1.681,1.794,1.9032,2.0702,2.4067,2.4406,2.5109,2.8976,2.8888,2.8109,2.8109,2.8109,2.8473,2.9603,3.0256,3.0796,3.1311,3.1386,3.1599,3.2139,3.2202,3.2428,3.3018,3.3558,3.3884,3.3884,3.4399,3.4462,3.3909,3.4399,3.4198,3.3106,3.4123,3.4437,3.3897,3.4437,3.47,3.47,3.47,3.4713,3.4738,3.529,3.524,3.4751,3.5303,3.5449,3.5449,3.5542,3.5868,3.6358,3.6358,3.6358,3.6358,3.6358,3.6358,3.6521,3.7613,3.8002,3.8191,3.932,3.9685,3.9685,3.9685,3.9685,3.9685,3.9685,3.9685,3.9685,3.9685,3.9697,3.9697,3.9697,3.9697,3.9697,3.9697,4.169,4.3504,4.3504,4.5584,4.7309,4.7309,4.7309,4.7309,4.7309,4.7309,4.7694,4.8677,4.814,4.759,4.7276,4.8058,4.7626,4.5008,4.4161,4.342,4.2434,4.1743,4.1384,4.1384,4.1778,4.2669,4.3994,4.5142,4.5703,4.5703,4.7107,4.7017,4.5703,4.6387,4.6257,1.6522,1.7099,1.7965,1.9058,2.0451,2.2347,2.5297,2.5247,2.5347,2.8047,2.8348,2.8222,2.8612,2.8687,2.8787,2.9126,2.9993,3.067,3.0821,3.116,3.1449,3.1612,3.1637,3.1851,3.2416,3.2616,3.288,3.3294,3.347,3.3319,3.2742,3.2867,3.2805,3.2478,3.2792,3.3068,3.3319,3.3483,3.3558,3.3558,3.3558,3.3972,3.4726,3.4889,3.4876,3.4726,3.4901,3.4964,3.5002,3.5391,3.5868,3.6358,3.6358,3.6358,3.6358,3.6358,3.6609,3.6985,3.7312,3.7688,3.8065,3.8391,3.8781,3.912,3.912,3.912,3.912,3.912,3.912,3.912,3.912,3.9408,3.9697,3.9697,3.9697,3.9981,4.0844,4.2363,4.3787,4.4642,4.6166,4.7309,4.7309,4.7309,4.7309,4.7309,4.7309,4.7694,4.8677,4.9283,4.9168,4.8067,4.7612,4.6705,4.498,4.396,4.3133,4.2464,4.1743,4.1384,4.1384,4.277,4.3677,4.4093,4.5142,4.5703,4.5703,4.5575,4.5303,4.4908,4.5137,4.5128,1.6798,1.7513,1.8568,2.0087,2.1744,2.3653,2.6201,2.6791,2.7168,2.8499,2.8586,2.8599,2.9164,2.9089,2.9001,2.9239,2.9842,3.0281,3.0281,3.0557,3.0834,3.106,3.1085,3.1298,3.1838,3.1888,3.2026,3.2378,3.2403,3.2252,3.1901,3.1888,3.1888,3.1888,3.2102,3.2277,3.2403,3.2855,3.2968,3.2729,3.2729,3.3206,3.4073,3.4299,3.4274,3.4085,3.4299,3.4399,3.4462,3.5228,3.573,3.6056,3.6282,3.6358,3.6358,3.6358,3.6571,3.6885,3.7111,3.74,3.7726,3.8114,3.8554,3.8995,3.9171,3.9196,3.9145,3.8931,3.9032,3.9171,3.8856,3.926,3.9677,3.9737,3.9697,4.0083,4.1319,4.2641,4.3882,4.5115,4.6447,4.7309,4.7309,4.7309,4.7309,4.7309,4.7309,4.7538,4.8141,4.915,4.919,4.7637,4.7123,4.6299,4.4709,4.3781,4.3165,4.2776,4.1893,4.1596,4.1938,4.2768,4.3538,4.4155,4.4907,4.5263,4.5263,4.4807,4.4587,4.4587,4.4587,4.4587,1.7185,1.7806,1.8819,2.1011,2.2915,2.4845,2.6954,2.8612,2.9691,2.9654,2.9302,2.9164,2.9691,2.9365,2.9176,2.9704,2.9792,2.9792,2.9792,2.9792,2.998,3.0482,3.0545,3.0746,3.1273,3.1323,3.1336,3.1386,3.1386,3.1373,3.1323,3.1323,3.1323,3.1323,3.18,3.1851,3.1399,3.2416,3.2654,3.2139,3.2139,3.2416,3.2943,3.3495,3.3508,3.3106,3.3608,3.3847,3.3985,3.5039,3.5504,3.5604,3.6144,3.6358,3.6358,3.6358,3.6358,3.6433,3.6935,3.7111,3.7308,3.8159,3.8565,3.8856,3.936,3.9538,3.9371,3.8868,3.9058,3.9234,3.8579,3.903,3.9693,3.9575,3.9649,4.0147,4.1347,4.2712,4.3999,4.5283,4.6535,4.7309,4.7309,4.7309,4.7309,4.7309,4.7309,4.7309,4.7309,4.8057,4.8002,4.6376,4.6509,4.6061,4.4353,4.3673,4.3329,4.3329,4.2102,4.179,4.2751,4.2287,4.2702,4.42,4.4473,4.4587,4.4587,4.4587,4.4587,4.4587,4.4587,4.4587,1.6907,1.7922,1.932,2.134,2.4218,2.6929,2.8273,2.885,2.8988,2.8561,2.9076,2.9641,2.9767,2.9691,2.9641,2.9779,2.9792,2.9792,2.9792,2.9792,2.9829,2.9955,2.9967,3.0181,3.0733,3.0783,3.0947,3.1361,3.1386,3.121,3.0809,3.0783,3.0783,3.0783,3.0896,3.1097,3.1386,3.1637,3.1687,3.1574,3.1574,3.1637,3.1763,3.2315,3.2754,3.3081,3.3206,3.3495,3.3947,3.4625,3.5152,3.5604,3.6144,3.6358,3.6358,3.6358,3.6358,3.6383,3.6496,3.6533,3.6571,3.6817,3.722,3.755,3.7698,3.7811,3.7998,3.7871,3.7513,3.7107,3.6912,3.8244,3.9446,3.8583,3.9478,4.0933,4.1828,4.3223,4.4723,4.6535,4.7121,4.7309,4.7309,4.7309,4.7309,4.7309,4.7309,4.7309,4.7309,4.7452,4.7071,4.5648,4.5612,4.5041,4.3643,4.3419,4.3329,4.3329,4.2102,4.2129,4.3685,4.2618,4.2459,4.3476,4.4222,4.4587,4.4587,4.4587,4.4587,4.4587,4.4587,4.4587,1.6884,1.8153,2.0082,2.2985,2.553,2.7507,2.8348,2.8536,2.8448,2.816,2.9013,2.9792,2.9792,2.9792,2.9704,2.9428,2.9616,2.9691,2.9415,2.9616,2.9792,2.9792,2.9792,2.9905,3.0193,3.0218,3.0331,3.0608,3.062,3.0507,3.0231,3.0218,3.0218,3.0218,3.0482,3.062,3.062,3.1135,3.126,3.1022,3.1022,3.1022,3.1035,3.1574,3.2127,3.2667,3.2667,3.298,3.3545,3.4098,3.465,3.5177,3.5466,3.5742,3.5968,3.5968,3.5968,3.6006,3.627,3.6358,3.6358,3.6358,3.6734,3.7186,3.7321,3.7682,3.7994,3.7594,3.7707,3.7786,3.6641,3.8074,4.0211,4.1991,4.1923,4.1589,4.2018,4.335,4.4834,4.6498,4.7085,4.7309,4.7309,4.7309,4.7309,4.7309,4.7309,4.7309,4.7309,4.704,4.6561,4.5858,4.52,4.4541,4.3868,4.3509,4.321,4.2895,4.2365,4.2268,4.2868,4.2312,4.2583,4.3889,4.4384,4.4384,4.4006,4.4384,4.4384,4.4006,4.4384,4.4776,1.6824,1.8326,2.0779,2.4518,2.6239,2.7143,2.7695,2.7896,2.7959,2.7959,2.8787,2.9503,2.9503,2.9503,2.934,2.8863,2.9189,2.9327,2.885,2.9202,2.9541,2.9628,2.9641,2.9679,2.9779,2.9792,2.9792,2.9792,2.9792,2.9792,2.9792,2.9792,2.9792,2.9792,3.0231,3.0256,2.9792,3.067,3.0896,3.047,3.047,3.047,3.0482,3.0922,3.1524,3.2215,3.2215,3.2541,3.3119,3.3671,3.4173,3.4587,3.4675,3.5002,3.5416,3.5516,3.5542,3.5629,3.6169,3.6358,3.6358,3.6358,3.6671,3.7061,3.722,3.7707,3.8133,3.7619,3.8541,3.9274,3.7432,3.8324,4.083,4.5572,4.4245,4.1994,4.2318,4.3107,4.4193,4.572,4.6673,4.7309,4.7309,4.7309,4.7309,4.7309,4.7309,4.7309,4.7309,4.6726,4.6277,4.6157,4.505,4.4272,4.4152,4.3643,4.3045,4.2402,4.2452,4.2258,4.1705,4.1724,4.2504,4.4121,4.4121,4.3873,4.3306,4.4006,4.4064,4.3562,4.435,4.5052,1.6192,1.8077,2.0813,2.4087,2.5372,2.5975,2.6553,2.7055,2.7394,2.7394,2.7896,2.8335,2.8335,2.8335,2.831,2.8235,2.8285,2.831,2.8235,2.8285,2.8511,2.8988,2.9038,2.9239,2.9741,2.9792,2.9792,2.9792,2.9792,2.9792,2.9792,2.9792,2.9792,2.9792,2.9867,2.9867,2.9792,2.993,2.9967,2.9905,2.9905,2.9905,2.9905,2.998,3.0809,3.2215,3.2215,3.2541,3.3119,3.3671,3.3935,3.406,3.4537,3.4763,3.4889,3.5366,3.5542,3.5629,3.6169,3.6358,3.6358,3.6358,3.6408,3.6471,3.6578,3.6641,3.6804,3.7367,3.8556,3.9589,3.9346,3.9504,4.041,4.3286,4.2491,4.1473,4.3169,4.2301,4.1948,4.4339,4.6195,4.7309,4.7309,4.7309,4.7309,4.7309,4.7309,4.7309,4.7309,4.6726,4.6097,4.5499,4.4766,4.4077,4.3509,4.3389,4.3045,4.2402,4.1896,4.1635,4.172,4.1199,4.1346,4.2316,4.2316,4.2645,4.3306,4.3443,4.3814,4.444,4.5072,4.5407,1.6982,1.7947,1.9435,2.1914,2.3119,2.3894,2.4633,2.5586,2.6339,2.6339,2.6791,2.7369,2.7996,2.8109,2.8009,2.7695,2.7896,2.7996,2.7682,2.7908,2.8197,2.8436,2.8461,2.8574,2.8825,2.9126,2.9315,2.9315,2.9616,2.9792,2.9792,2.9792,2.9792,2.9792,2.9792,2.9792,2.9792,2.9792,2.9792,2.9792,2.9792,2.9792,2.9792,2.9792,3.0344,3.1323,3.1323,3.18,3.2604,3.2855,3.3319,3.3884,3.3822,3.3985,3.4299,3.4537,3.4813,3.5165,3.5717,3.6107,3.6358,3.6358,3.6358,3.6358,3.6358,3.6358,3.6603,3.7513,3.8736,3.9711,3.9688,3.9693,4.0226,4.2302,4.1146,4.004,4.174,4.1645,4.1993,4.4191,4.6093,4.7309,4.7309,4.7309,4.7309,4.7309,4.7309,4.7309,4.7309,4.6396,4.5633,4.5334,4.4377,4.3643,4.3359,4.3849,4.3487,4.1955,4.2502,4.2144,4.0492,4.0601,4.0622,4.0516,4.1478,4.2189,4.2583,4.3047,4.3672,4.4423,4.5163,4.5883,1.7497,1.7622,1.7886,1.9687,2.0801,2.1749,2.2755,2.401,2.5012,2.5294,2.5737,2.6289,2.7118,2.7381,2.7381,2.7118,2.7293,2.7381,2.7105,2.7431,2.7733,2.7883,2.7896,2.7946,2.8097,2.8473,2.8725,2.8725,2.9114,2.9365,2.9365,2.9503,2.9578,2.9578,2.9716,2.9792,2.9792,2.9792,2.9792,2.9792,2.9792,2.9792,2.9792,2.9792,3.0018,3.0419,3.0557,3.1148,3.2014,3.2152,3.2629,3.3244,3.3119,3.3232,3.3508,3.3809,3.4261,3.4813,3.5521,3.6049,3.6358,3.6358,3.6358,3.6358,3.6358,3.6358,3.659,3.7354,3.8592,3.9681,3.9549,3.9562,4.004,4.1298,4.0223,3.9133,3.9901,4.0911,4.2161,4.3773,4.5683,4.7115,4.7279,4.7309,4.7309,4.7309,4.7309,4.7207,4.6829,4.6092,4.5385,4.4857,4.4094,4.3524,4.3344,4.4004,4.3655,4.1806,4.2823,4.2342,3.9854,4.0115,4.0185,3.9737,4.1028,4.1804,4.1997,4.3043,4.3879,4.4579,4.551,4.6495,1.7095,1.6979,1.6768,1.7962,1.8931,1.997,2.1236,2.2296,2.3393,2.4616,2.4883,2.4921,2.4983,2.5398,2.59,2.6483,2.6063,2.5912,2.6496,2.6596,2.6741,2.7268,2.7318,2.7532,2.8059,2.8134,2.8147,2.8147,2.8172,2.8197,2.8197,2.8687,2.8976,2.8976,2.9503,2.9792,2.9792,2.9792,2.9792,2.9792,2.9792,2.9792,2.9792,2.9792,2.9817,2.9867,3.0382,3.0922,3.1474,3.2001,3.1938,3.1625,3.2667,3.2754,3.2441,3.3683,3.44,3.4839,3.5999,3.6387,3.6358,3.6358,3.6358,3.6358,3.6358,3.6358,3.6433,3.6497,3.8057,3.9543,3.9058,3.9372,3.975,3.9788,3.975,3.941,3.8365,4.0065,4.1874,4.2667,4.4762,4.6576,4.7189,4.7309,4.7309,4.7309,4.7309,4.6829,4.5689,4.5946,4.5554,4.3719,4.3956,4.4003,4.3389,4.3329,4.3119,4.2628,4.1938,4.1258,4.0684,3.9849,3.9864,4.0622,4.0758,4.1147,4.1997,4.3431,4.4596,4.5442,4.6728,4.7342,1.5623,1.5705,1.5925,1.5945,1.6929,1.808,1.8708,2.0644,2.245,2.2919,2.3988,2.482,2.482,2.4971,2.5172,2.5372,2.5511,2.5548,2.5423,2.6013,2.6402,2.6226,2.6527,2.6829,2.703,2.7369,2.7582,2.7582,2.7908,2.8109,2.8109,2.8298,2.8398,2.8398,2.8599,2.8875,2.9239,2.9603,2.9792,2.9792,2.9792,2.9792,2.9792,2.9792,2.9792,2.9804,2.9993,3.0394,3.0909,3.111,3.1474,3.1926,3.1976,3.2315,3.278,3.2842,3.3432,3.4286,3.5017,3.5546,3.5893,3.6245,3.6358,3.6358,3.6358,3.6358,3.6471,3.6998,3.8057,3.8901,3.8441,3.8994,3.9697,3.9697,3.9421,3.9437,4.0137,4.1032,4.1763,4.1984,4.4023,4.5873,4.6561,4.6681,4.6815,4.7249,4.7309,4.7121,4.6638,4.6438,4.5868,4.4733,4.443,4.4047,4.3389,4.4464,4.4471,4.2772,4.3548,4.3304,4.1591,4.1213,4.1229,4.1543,4.2062,4.252,4.2847,4.3738,4.4832,4.6112,4.6999,4.7342,1.4796,1.4887,1.52,1.4871,1.5477,1.6313,1.6906,1.871,2.0366,2.0781,2.2297,2.3578,2.3578,2.3928,2.4381,2.4757,2.4958,2.5008,2.4845,2.5448,2.5774,2.5385,2.5674,2.5975,2.6151,2.6502,2.6791,2.6992,2.7344,2.7557,2.7557,2.772,2.7908,2.8097,2.8285,2.8561,2.8925,2.9503,2.9691,2.9503,2.9691,2.9691,2.9503,2.9704,2.9792,2.9792,2.9792,2.9993,3.0357,3.0545,3.0922,3.1399,3.1399,3.1851,3.2491,3.2546,3.3091,3.3985,3.469,3.5281,3.5835,3.6301,3.6358,3.6358,3.6358,3.6358,3.654,3.6968,3.8044,3.8917,3.8421,3.8987,3.9853,4.0508,4.0089,4.0059,4.1852,4.1896,4.1841,4.2502,4.392,4.5185,4.5858,4.5978,4.6202,4.6875,4.698,4.6867,4.6711,4.6647,4.6122,4.4832,4.4638,4.4449,4.3847,4.4989,4.5104,4.3727,4.4494,4.4251,4.2522,4.2125,4.2125,4.2458,4.2986,4.3529,4.4021,4.465,4.5575,4.6756,4.727,4.7205,0.0,0.0,0.0,1.4663,1.4536,1.4765,1.6003,1.6492,1.7008,1.8272,1.9936,2.1105,2.1117,2.2163,2.3378,2.448,2.4318,2.418,2.4695,2.4808,2.4808,2.4795,2.4808,2.5021,2.5523,2.5573,2.5799,2.6433,2.6496,2.6496,2.6496,2.6954,2.7507,2.8047,2.8586,2.8875,2.8875,2.9453,2.9465,2.8913,2.949,2.9478,2.895,2.9528,2.9792,2.9792,2.9792,2.9792,2.9829,3.0369,3.0281,2.9917,3.0947,3.1373,3.1593,3.2695,3.3376,3.3985,3.4983,3.5732,3.6408,3.6351,3.6358,3.6358,3.6358,3.6358,3.6452,3.6452,3.801,3.9694,3.9164,3.9414,4.0253,4.2054,4.1626,4.1323,4.3148,4.2509,4.2105,4.4028,4.4303,4.4496,4.517,4.5289,4.5529,4.6247,4.6352,4.6117,4.5512,4.6521,4.6295,4.369,4.4545,4.5127,4.4845,4.4812,4.4977,4.5403,4.4642,4.3945,4.3355,4.252,4.2458,4.3306,4.3366,4.4078,4.5511,4.6094,4.6756,4.7409,4.7573,4.6999,1.3705,0.0,0.0,0.0,0.0,0.0,1.4297,1.5332,1.6437,1.711,1.8316,1.9402,1.9734,2.0523,2.1255,2.1558,2.2984,2.3904,2.3578,2.4305,2.4669,2.4268,2.4569,2.4883,2.5021,2.5034,2.5109,2.5259,2.5624,2.5837,2.5837,2.6377,2.6753,2.6917,2.7444,2.7733,2.7733,2.8298,2.8499,2.8335,2.89,2.9089,2.895,2.9528,2.9792,2.9792,2.9792,2.9792,2.9804,2.9955,3.0168,3.0382,3.0281,3.0947,3.1964,3.187,3.2475,3.3445,3.4539,3.4992,3.5294,3.6175,3.6358,3.6358,3.6358,3.6358,3.6534,3.7415,3.8319,3.9442,4.0502,4.0368,4.0213,4.1485,4.1219,4.1375,4.3644,4.3503,4.3065,4.3616,4.3612,4.3958,4.5095,4.5289,4.5693,4.686,4.704,4.6998,4.6799,4.6703,4.6077,4.4931,4.4691,4.4629,4.4814,4.5431,4.572,4.5403,4.5777,4.5527,4.432,4.4006,4.3989,4.4253,4.4674,4.5303,4.6143,4.6336,4.6756,4.7391,4.6946,4.642,1.3152,1.361,1.4154,1.3467,0.0,0.0,1.3709,1.4358,1.5089,1.5303,1.6557,1.7668,1.791,1.8759,1.942,1.9631,2.0997,2.2226,2.268,2.3565,2.3991,2.3678,2.3929,2.4217,2.4456,2.4481,2.4569,2.4808,2.5109,2.536,2.5586,2.5912,2.6214,2.6521,2.6992,2.7281,2.7281,2.7821,2.7996,2.777,2.8323,2.8461,2.8273,2.9063,2.9428,2.9453,2.9691,2.9792,2.9792,2.9792,2.998,3.0244,2.9917,3.0645,3.1838,3.1512,3.2102,3.3232,3.4336,3.4726,3.4901,3.6006,3.6358,3.6452,3.6977,3.7317,3.7712,3.8626,3.9414,4.0363,4.1879,4.1454,4.0986,4.2308,4.2077,4.2162,4.4647,4.4674,4.4279,4.4557,4.4329,4.4392,4.517,4.5289,4.5663,4.6741,4.689,4.689,4.689,4.6561,4.5963,4.499,4.4901,4.4986,4.5348,4.5933,4.6241,4.5984,4.6228,4.5805,4.4621,4.4587,4.472,4.4944,4.532,4.5915,4.6819,4.6819,4.6952,4.7206,4.6632,4.6123,1.3065,1.3286,1.3684,1.3684,1.3716,0.0,1.3695,1.3619,1.3506,1.3506,1.4726,1.5817,1.5859,1.6851,1.7829,1.8205,1.8792,1.9807,2.1832,2.2568,2.2832,2.2842,2.289,2.3115,2.3629,2.3741,2.4042,2.4594,2.4553,2.4853,2.5561,2.5519,2.5795,2.6508,2.6929,2.7193,2.7193,2.767,2.767,2.7205,2.7745,2.7758,2.7318,2.8423,2.8925,2.8963,2.9541,2.9792,2.9792,2.9792,2.9792,2.9792,2.9792,3.0444,3.1386,3.1386,3.2102,3.3219,3.4274,3.4625,3.4813,3.5906,3.6351,3.6714,3.773,3.8646,3.9304,3.995,4.0916,4.2029,4.3076,4.2548,4.2175,4.3805,4.3416,4.3306,4.5605,4.5678,4.5484,4.6277,4.5813,4.5319,4.5394,4.5409,4.5648,4.6337,4.6426,4.6411,4.6337,4.6262,4.5723,4.4451,4.5044,4.5778,4.6166,4.6385,4.6573,4.6777,4.6109,4.5365,4.4604,4.4587,4.4852,4.5511,4.5648,4.6305,4.7488,4.7536,4.7353,4.6977,4.6605,4.6122,1.2929,1.2968,1.3055,1.3055,1.3323,0.0,1.3135,1.3293,1.3506,1.3506,1.3787,1.4108,1.4457,1.5195,1.5923,1.6342,1.7379,1.8701,2.0505,2.1139,2.132,2.0957,2.1453,2.1778,2.1717,2.2268,2.2874,2.3366,2.3228,2.3823,2.5536,2.4946,2.5135,2.644,2.6634,2.6697,2.6697,2.6798,2.6798,2.6697,2.718,2.7394,2.7318,2.8423,2.8925,2.8963,2.9541,2.9792,2.9792,2.9792,2.9792,2.9792,2.9792,3.0444,3.1386,3.1386,3.2102,3.3169,3.3834,3.406,3.4236,3.5341,3.6299,3.7245,3.7885,3.8908,3.995,4.0944,4.2111,4.2996,4.325,4.3155,4.3025,4.3399,4.3349,4.3486,4.4712,4.5162,4.5657,4.683,4.6127,4.5469,4.6022,4.6112,4.6352,4.701,4.7115,4.692,4.6396,4.5843,4.52,4.4407,4.4725,4.5294,4.6119,4.6385,4.6573,4.6777,4.6109,4.5365,4.4604,4.4587,4.4852,4.5511,4.6495,4.7385,4.8132,4.8458,4.8054,4.6996,4.7175,4.6658,1.2939,1.2881,1.293,1.3145,1.3193,0.0,0.0,1.3193,1.3262,1.3467,1.334,1.332,1.375,1.3941,1.4246,1.4917,1.5527,1.6546,1.8238,1.9506,2.0385,2.0526,2.0557,2.0667,2.0925,2.1194,2.1703,2.2614,2.2481,2.2998,2.468,2.3964,2.4141,2.5624,2.5636,2.5774,2.6025,2.6025,2.6176,2.6533,2.6741,2.6866,2.6917,2.8009,2.8511,2.8561,2.9415,2.9792,2.9792,2.9792,2.9792,2.9792,2.9792,3.0281,3.0997,3.0997,3.17,3.2729,3.3294,3.3671,3.4035,3.4864,3.6084,3.748,3.8276,3.9967,4.1757,4.2685,4.3152,4.3329,4.3329,4.3329,4.3329,4.3329,4.3329,4.3599,4.446,4.4989,4.5468,4.5878,4.5783,4.5762,4.6232,4.6322,4.6322,4.6307,4.6307,4.6067,4.5409,4.502,4.4704,4.4567,4.5133,4.5921,4.6815,4.7077,4.7044,4.6836,4.6109,4.5365,4.4604,4.4906,4.5511,4.6448,4.7385,4.7795,4.7719,4.8282,4.8007,4.7005,4.6675,4.6206,1.3096,1.3125,1.3291,1.3467,1.3379,1.3271,0.0,0.0,0.0,1.333,1.3115,1.2988,1.332,1.3105,1.3135,1.3887,1.3961,1.4493,1.605,1.7622,1.8915,1.9782,1.9365,1.9209,1.986,1.9917,2.0502,2.1853,2.1584,2.2039,2.3542,2.2998,2.3365,2.4743,2.482,2.5071,2.5586,2.5598,2.5887,2.6533,2.6533,2.6533,2.6559,2.7494,2.8009,2.816,2.9176,2.9691,2.9792,2.9792,2.9792,2.9792,2.9792,3.0131,3.062,3.062,3.1223,3.2139,3.2704,3.3206,3.3684,3.4349,3.5928,3.7866,3.9339,4.1444,4.3449,4.3973,4.3573,4.2996,4.325,4.3155,4.2981,4.2981,4.3155,4.3474,4.4295,4.4653,4.4809,4.4519,4.5155,4.5868,4.6052,4.6127,4.5933,4.5379,4.5289,4.5065,4.4407,4.4464,4.4655,4.4799,4.5778,4.6747,4.7523,4.778,4.7597,4.6836,4.6109,4.5365,4.4604,4.5267,4.6209,4.7385,4.7977,4.794,4.7206,4.7704,4.757,4.6759,4.6143,4.5759,1.3447,1.3994,1.4394,1.3691,1.4043,1.4287,1.3203,0.0,1.334,1.3018,0.0,1.29,1.2939,0.0,0.0,1.3506,1.3574,1.3989,1.5175,1.5129,1.5476,1.6802,1.6866,1.6886,1.7124,1.7811,1.8923,2.0493,1.9982,2.0375,2.2161,2.254,2.3365,2.4743,2.482,2.5071,2.5586,2.5598,2.5887,2.6533,2.6533,2.6533,2.6546,2.7092,2.7645,2.8134,2.8762,2.9315,2.9792,2.9792,2.9792,2.9792,2.9792,3.0131,3.062,3.062,3.0984,3.1562,3.2114,3.2353,3.2579,3.3646,3.6205,3.9311,4.2012,4.3016,4.3344,4.3419,4.2607,4.2029,4.3076,4.2548,4.1767,4.1767,4.2548,4.3314,4.3416,4.3515,4.3483,4.3469,4.4221,4.5004,4.5334,4.5409,4.5394,4.5304,4.5289,4.5065,4.4407,4.5041,4.5372,4.4874,4.64,4.7456,4.7589,4.778,4.7597,4.6836,4.6109,4.5365,4.4604,4.5681,4.6664,4.7385,4.7977,4.8071,4.7608,4.7301,4.6713,4.5949,4.6506,4.6336,1.3574,1.3945,1.4385,1.4277,1.3863,1.3371,1.309,1.2772,1.2516,1.266,0.0,0.0,0.0,0.0,0.0,0.0,1.3301,1.347,1.4435,1.3993,1.4101,1.5745,1.5546,1.5405,1.5807,1.7382,1.8743,1.9467,1.9045,1.9538,2.1342,2.1171,2.1722,2.3052,2.358,2.4255,2.5146,2.5146,2.5586,2.6533,2.6533,2.6533,2.6546,2.703,2.7582,2.8134,2.8687,2.9252,2.9792,2.9792,2.9792,2.9792,2.9792,2.993,3.0143,3.0143,3.0482,3.1022,3.1549,3.1938,3.263,3.5068,3.7066,3.9047,4.1892,4.303,4.3329,4.3329,4.2467,4.1684,4.2193,4.1435,4.0575,4.0575,4.1334,4.2252,4.3098,4.3323,4.3325,4.3293,4.3603,4.3913,4.4122,4.4466,4.4601,4.4212,4.4603,4.4891,4.4601,4.541,4.6079,4.6362,4.7104,4.7803,4.837,4.8512,4.8054,4.6853,4.6032,4.5753,4.6178,4.6728,4.7065,4.7223,4.7703,4.7376,4.6238,4.6485,4.6177,4.5404,4.5917,4.5951,1.3945,1.4248,1.4622,1.4476,1.3728,1.2951,1.3014,1.2432,1.206,1.2645,1.2927,0.0,0.0,0.0,1.3281,1.3477,0.0,1.3223,1.3721,1.3271,1.3459,1.4924,1.4534,1.4386,1.4963,1.6273,1.7363,1.8054,1.7823,1.8395,1.992,1.9939,2.0453,2.1651,2.2433,2.3282,2.4394,2.4678,2.5165,2.5871,2.6308,2.6445,2.6239,2.6804,2.7356,2.7908,2.8461,2.9026,2.9566,2.9729,2.9792,2.9792,2.9792,2.9792,2.9792,2.9792,3.0143,3.0696,3.121,3.1851,3.3,3.6157,3.7661,3.8793,4.1573,4.2821,4.325,4.29,4.2029,4.1169,4.1169,4.049,3.9899,3.9899,4.0802,4.1845,4.2563,4.2991,4.3329,4.3329,4.3329,4.3329,4.3329,4.3718,4.4008,4.401,4.4481,4.5011,4.5728,4.6287,4.688,4.7802,4.7919,4.8142,4.8652,4.8714,4.8115,4.6822,4.6133,4.6257,4.7342,4.7385,4.7293,4.7094,4.749,4.6936,4.538,4.5994,4.5919,4.5243,4.5495,4.5586,1.4746,1.5361,1.5681,1.4047,1.3898,1.3952,1.3092,1.249,1.2354,1.3299,1.344,1.3403,1.3497,1.3828,1.3965,1.3574,1.3496,0.0,0.0,1.29,1.3184,1.4067,1.3802,1.3801,1.4531,1.3697,1.3912,1.5859,1.6084,1.6565,1.7445,1.9022,2.0282,2.1164,2.1677,2.2377,2.3333,2.4329,2.4624,2.4267,2.5778,2.6163,2.5636,2.6226,2.6791,2.7344,2.7896,2.8448,2.9001,2.9566,2.9792,2.9792,2.9792,2.9792,2.9792,2.9792,3.0143,3.0696,3.121,3.2114,3.3547,3.6307,3.7812,3.9084,4.1602,4.2821,4.3076,4.1932,4.0831,3.9986,3.9986,3.9899,3.9899,3.9899,4.1616,4.2841,4.1357,4.2239,4.3329,4.3329,4.3329,4.3329,4.3329,4.3344,4.3856,4.5603,4.523,4.5622,4.7956,4.7883,4.7852,4.8577,4.8868,4.8652,4.802,4.7953,4.7554,4.6652,4.6435,4.6664,4.7385,4.7385,4.7293,4.7094,4.749,4.7081,4.5771,4.613,4.6046,4.5586,4.5586,4.5586,1.4707,1.5195,1.5498,1.4916,1.4331,1.3805,1.3158,1.3105,1.3159,1.2881,1.3362,1.3879,1.3869,1.3584,1.335,1.3486,1.3271,1.3047,0.0,1.2881,1.2988,1.3271,1.3418,1.349,1.35,1.444,1.5398,1.6185,1.6464,1.7005,1.7926,1.8158,1.8627,1.9456,2.0195,2.1342,2.29,2.326,2.3798,2.4624,2.549,2.5787,2.5611,2.6189,2.6967,2.7833,2.8021,2.8637,2.9515,2.9716,2.9792,2.9792,2.9792,2.9792,2.9792,2.9792,3.0143,3.0746,3.1625,3.2441,3.3351,3.4971,3.677,3.8476,3.9315,4.0766,4.1947,4.0831,3.961,3.8917,3.9724,3.9271,3.8917,3.9724,4.1099,4.2,4.1501,4.2408,4.3329,4.3329,4.3329,4.3329,4.3329,4.3849,4.4557,4.5337,4.5578,4.6223,4.7688,4.8249,4.8614,4.8865,4.895,4.8714,4.797,4.7404,4.7281,4.7826,4.7357,4.7324,4.7977,4.7484,4.702,4.6657,4.652,4.6072,4.5337,4.5663,4.5764,4.5586,4.5586,4.5651,1.4893,1.5322,1.5585,1.5279,1.4827,1.4278,1.3811,1.3852,1.3856,1.3571,1.396,1.4364,1.4499,1.4023,1.3594,1.3711,1.3379,1.3047,0.0,1.2881,1.2881,1.2881,1.3125,1.3242,1.3115,1.4291,1.5236,1.5793,1.5838,1.6266,1.7216,1.7078,1.7397,1.8344,1.9079,2.0195,2.1704,2.2568,2.3102,2.3301,2.5056,2.5652,2.5142,2.6252,2.7143,2.7821,2.8021,2.8637,2.9478,2.9478,2.9603,2.9792,2.9792,2.9792,2.9792,2.9792,3.0256,3.1022,3.1901,3.2591,3.3202,3.4097,3.6004,3.7977,3.8104,3.9424,4.0831,4.0073,3.936,3.8917,3.9724,3.961,3.9508,4.0304,4.1351,4.2193,4.2193,4.2805,4.3329,4.3329,4.3329,4.3423,4.3925,4.4404,4.507,4.5845,4.6358,4.7215,4.8712,4.8976,4.9103,4.9357,4.9365,4.9068,4.8254,4.7405,4.7222,4.8055,4.7862,4.7769,4.7864,4.7388,4.7038,4.6903,4.6167,4.5868,4.5996,4.5726,4.5586,4.5586,4.5586,4.568]}]]